GFSSGP_850_thetae_000.txt.gz
Theta_e
322 321 322 323 318 319 323 324 321 321 324 325 326 326 325 325 327 330 332 333 329 326 322 326 333 333 334 337 335 334 333 325 321 318 327 324 328 326 326 325 327 327 322 317 315 314 319 325 327
323 321 323 323 319 319 320 321 322 321 322 325 326 327 325 330 335 333 335 329 330 325 323 327 332 335 337 336 336 333 324 321 320 320 327 329 328 329 328 328 327 322 320 317 314 315 312 310 315
323 323 324 319 320 320 320 321 320 321 324 325 326 328 328 331 337 336 335 327 329 328 325 327 333 336 336 333 333 329 324 322 320 317 326 328 329 331 329 328 327 325 323 315 313 313 315 315 314
323 325 322 320 321 320 322 320 319 321 323 325 326 326 330 330 334 334 327 326 328 330 329 329 330 333 338 333 332 329 323 321 318 317 325 328 330 331 331 330 327 327 327 315 314 314 313 315 318
326 326 322 321 321 320 320 321 319 321 322 323 325 325 329 331 330 331 327 329 330 330 332 330 332 330 332 332 331 327 324 323 320 323 325 326 330 331 331 329 329 330 321 315 315 315 316 316 316
327 322 322 323 321 320 319 323 320 321 321 324 324 325 328 331 329 331 333 333 334 332 334 335 329 329 329 331 330 325 325 328 324 319 322 323 326 329 329 331 331 327 316 316 316 317 317 317 317
325 321 323 323 323 322 322 325 317 319 323 324 325 324 327 326 325 330 332 336 336 335 335 334 327 327 327 328 327 328 334 333 325 322 318 315 318 326 327 329 325 318 317 317 317 318 319 320 320
328 321 324 322 325 324 323 324 321 321 321 324 324 323 326 328 325 327 331 335 336 336 335 333 326 326 325 324 325 327 330 328 325 321 315 313 316 321 321 318 316 316 317 319 322 324 327 328 328
328 324 326 325 324 324 323 323 324 323 323 325 325 325 326 325 326 329 330 333 336 336 335 332 329 327 327 325 325 327 325 322 322 319 316 312 314 317 316 316 317 321 323 325 326 327 328 329 330
326 326 327 322 322 322 323 323 323 323 324 325 326 326 326 325 325 326 326 327 329 331 331 331 330 330 330 328 329 332 330 324 321 317 319 317 317 319 320 322 324 327 328 328 330 331 330 329 329
327 329 324 324 325 324 322 322 325 323 322 324 325 325 326 323 324 326 325 324 325 327 331 332 330 332 333 331 332 332 329 329 325 327 323 324 322 324 326 328 330 330 330 331 329 329 329 328 328
324 326 326 327 327 327 324 325 323 323 324 324 325 325 325 326 325 326 326 324 324 326 328 333 333 333 335 336 334 334 332 331 327 327 326 325 325 327 329 330 332 331 332 330 329 328 328 326 326
322 322 326 328 327 327 327 324 323 324 325 324 325 325 324 325 326 327 326 326 323 325 327 331 335 336 335 336 336 335 332 332 331 331 331 330 328 330 332 333 332 331 329 328 327 327 325 321 315
321 323 324 325 325 326 326 326 323 324 325 325 325 325 324 324 326 326 326 325 323 323 326 332 335 338 339 339 338 337 334 334 334 332 332 332 332 331 332 330 329 327 327 326 323 317 313 312 312
321 322 322 322 325 324 325 326 325 325 324 325 325 325 324 325 325 326 324 325 324 323 326 333 335 337 338 339 339 337 336 334 333 333 331 331 331 331 330 328 327 327 320 313 312 312 311 310 308
320 321 324 323 324 325 326 329 324 326 324 324 325 325 325 326 325 323 323 324 324 326 328 334 334 333 335 336 337 336 334 333 332 332 330 329 328 329 327 326 315 310 311 311 310 308 306 305 304
319 321 321 323 324 325 324 327 323 325 323 323 325 325 325 324 323 322 323 324 325 329 332 333 333 333 334 335 337 334 332 333 332 332 330 327 328 326 317 310 310 309 307 306 305 304 303 303 303
321 321 319 320 324 324 326 326 324 325 324 324 325 325 324 322 322 322 322 322 324 327 330 332 333 334 333 333 333 331 331 332 331 330 328 324 313 309 310 309 308 308 307 305 303 303 302 300 300
317 318 318 318 319 322 324 325 325 325 322 322 323 324 320 321 322 322 321 321 322 323 324 325 329 333 332 333 331 329 331 330 328 325 311 309 310 310 309 309 309 308 307 304 302 301 301 299 298
316 316 317 317 317 319 322 324 324 323 323 322 322 322 320 321 321 321 321 321 322 323 325 325 330 332 332 332 331 331 329 325 318 309 310 310 310 310 310 311 310 309 306 303 301 300 299 298 296
315 315 315 317 317 318 319 321 323 323 322 324 323 324 321 321 322 321 321 323 324 326 328 329 331 331 333 333 331 329 324 313 309 310 311 310 310 311 311 311 309 307 303 301 299 298 297 297 296
314 314 316 317 319 320 323 327 322 323 323 320 321 320 320 321 321 321 323 326 326 328 330 331 332 333 331 330 328 324 318 310 310 311 310 310 311 311 311 310 308 305 301 299 297 296 296 296 295
313 313 313 316 317 317 319 322 324 320 322 321 319 319 320 321 321 322 324 326 327 328 329 330 329 329 327 322 321 315 310 310 311 310 310 310 311 311 310 308 306 303 300 298 296 296 295 294 293
312 313 313 315 317 319 318 323 323 322 321 320 317 317 318 320 320 322 325 327 328 328 328 329 328 325 322 317 313 311 311 311 311 310 310 310 310 309 308 306 304 301 298 297 296 294 293 292 292
311 313 317 317 316 318 316 322 319 319 319 320 317 316 317 319 320 322 323 324 327 327 327 324 323 319 316 314 311 310 311 311 310 310 310 310 309 307 306 305 303 299 297 295 293 292 292 292 292
313 313 315 314 315 315 321 322 322 320 319 319 320 318 317 318 319 321 322 321 319 320 319 318 317 317 316 315 311 310 311 311 310 310 309 308 307 306 305 304 301 298 296 293 291 291 292 292 292
312 312 312 315 316 319 321 322 321 321 316 314 315 315 315 317 319 319 319 319 318 317 317 317 317 316 314 312 311 311 311 310 310 309 309 308 307 306 305 303 300 296 293 291 291 291 292 291 291
312 311 313 313 317 320 322 323 325 322 315 315 315 315 316 316 317 318 318 318 317 316 315 314 313 312 312 311 311 311 310 309 309 309 308 306 305 305 303 301 297 293 291 291 291 292 291 290 290
313 313 314 312 316 323 327 325 319 320 316 317 316 316 315 316 317 318 318 316 315 313 312 312 311 311 311 310 310 310 309 309 308 307 306 305 305 303 301 298 294 291 291 292 291 290 290 289 289
312 313 313 315 314 319 320 319 313 319 316 316 316 316 315 316 317 318 318 316 314 313 312 312 311 311 310 309 309 309 308 308 307 306 305 305 304 301 298 293 291 291 292 291 290 289 289 289 288

GFSSGP_850_thetae_003.txt.gz
Theta_e
323 322 321 323 318 316 322 323 319 320 324 324 324 323 324 325 325 328 331 331 327 327 323 330 335 340 337 334 335 332 333 329 322 317 322 325 327 326 326 324 325 323 322 318 316 316 318 321 325
323 322 322 323 319 317 317 318 321 320 321 323 325 324 325 331 333 331 330 327 326 324 322 326 330 333 332 337 335 335 330 322 321 321 329 329 326 329 328 328 326 323 321 317 315 315 314 311 314
324 323 323 318 317 321 318 318 319 319 320 324 324 327 328 333 335 330 333 326 326 324 323 326 329 331 336 335 334 331 325 321 320 320 328 329 329 329 328 327 326 327 324 314 314 314 315 315 315
325 324 321 320 321 319 318 320 319 317 321 324 324 325 329 330 334 335 329 327 327 327 325 325 330 333 339 332 330 329 323 320 318 316 326 327 329 331 330 329 328 329 323 315 315 315 315 315 316
325 325 322 321 321 319 318 320 319 318 320 322 324 324 328 330 330 333 327 326 328 329 328 326 327 331 335 330 330 328 322 318 317 320 324 328 330 330 331 330 328 329 321 315 316 316 316 317 317
327 322 322 323 320 319 318 321 320 318 320 323 323 324 328 330 328 329 328 329 331 330 330 329 326 328 332 331 330 327 323 321 318 319 322 323 327 329 330 330 331 329 317 316 317 318 318 319 319
324 319 322 321 321 322 321 323 317 317 320 324 324 323 327 328 325 330 330 332 334 334 333 332 330 327 329 329 329 326 325 327 321 319 317 317 321 325 326 327 326 318 316 317 319 322 324 326 327
327 320 324 321 323 323 322 323 323 318 320 323 324 322 326 326 326 332 334 334 335 336 335 334 331 327 327 326 327 326 332 330 325 322 317 315 316 322 324 322 316 316 318 322 326 327 328 329 330
327 324 325 324 322 323 321 322 322 323 322 323 324 324 324 326 325 330 333 335 336 336 337 336 332 326 328 325 326 328 328 327 326 324 316 314 315 317 316 315 316 321 325 327 329 330 330 330 329
325 326 325 322 320 320 322 322 322 322 322 323 324 325 325 326 325 326 329 331 333 334 334 336 333 328 327 327 326 328 327 326 325 322 319 315 316 317 318 320 322 327 328 329 330 329 329 328 327
325 327 324 324 325 325 322 321 323 322 320 323 324 324 325 326 325 326 326 326 326 327 332 333 333 332 330 330 328 331 333 331 326 322 322 322 320 321 323 324 327 328 330 332 330 328 327 327 326
323 324 325 325 326 326 324 324 322 322 321 323 323 323 324 325 323 324 325 325 325 324 328 332 335 334 333 334 333 335 333 328 327 329 328 327 325 327 327 329 330 330 330 329 327 326 326 325 324
321 321 323 324 326 326 326 325 323 323 325 324 325 323 324 324 324 325 326 326 325 325 326 330 335 335 336 337 336 335 333 331 330 330 330 328 329 329 329 333 330 330 328 327 326 325 323 316 311
320 320 321 323 323 324 325 325 325 323 323 324 324 324 324 324 324 323 324 326 326 325 323 327 333 337 338 339 339 337 335 333 333 331 331 331 332 331 331 330 328 327 326 325 321 314 311 311 311
320 319 319 320 322 322 324 325 323 324 325 324 324 324 324 324 324 324 325 325 326 326 324 325 331 337 339 340 340 339 337 334 332 332 331 330 330 330 327 327 327 326 320 311 310 310 310 307 306
319 318 321 319 321 322 324 325 323 325 325 325 325 323 324 324 324 324 325 325 325 325 324 324 332 337 340 341 340 336 335 333 331 331 330 329 328 327 326 326 320 309 310 309 307 306 304 303 303
318 318 319 320 320 323 323 325 322 324 324 322 324 324 324 324 324 324 325 325 323 324 324 326 332 336 339 340 338 336 335 332 331 330 329 327 325 325 323 310 309 308 308 307 306 304 303 302 302
318 320 319 318 321 322 322 322 321 323 323 321 323 324 324 324 324 325 324 323 324 326 328 332 335 336 336 336 336 335 333 331 331 330 328 328 325 310 309 309 309 309 309 307 304 302 301 300 300
315 317 319 317 317 317 318 318 319 321 322 322 322 323 323 325 324 322 322 322 323 326 330 333 335 334 334 336 333 332 330 330 329 328 327 321 309 310 310 310 310 310 308 304 302 300 300 299 299
314 317 317 316 316 317 317 317 317 317 318 321 322 323 324 324 322 321 321 321 321 322 324 328 333 333 336 335 332 330 329 328 327 324 312 309 310 310 311 311 311 309 305 302 300 298 298 297 296
313 313 314 315 314 314 314 316 316 316 318 321 322 323 324 323 322 321 321 321 321 321 322 323 326 334 336 334 332 328 328 326 320 310 310 310 310 312 312 311 310 307 303 300 298 297 296 295 295
313 312 314 314 314 315 317 318 317 317 318 319 321 322 323 324 322 321 320 320 321 322 323 325 328 335 335 333 331 329 328 324 312 310 310 310 311 312 311 310 308 306 302 300 298 296 296 294 293
311 311 312 314 315 314 315 317 315 316 317 318 318 320 322 323 323 321 321 321 322 324 325 327 333 334 333 332 332 330 327 316 311 310 310 311 312 311 310 308 307 305 302 299 297 296 294 293 292
311 311 311 312 313 315 313 315 314 315 319 317 316 320 321 321 321 320 320 322 324 326 328 331 332 333 332 330 329 327 319 311 311 311 310 311 311 310 308 307 306 304 300 298 296 294 292 292 292
309 311 315 316 315 314 312 314 314 314 315 316 316 317 319 318 319 320 321 323 325 326 329 330 331 330 329 324 322 318 311 311 311 310 311 310 310 309 307 306 304 302 299 296 293 292 291 292 292
311 310 311 314 313 310 310 313 315 315 314 315 317 318 318 316 318 319 321 323 325 327 329 329 329 329 324 320 315 311 310 311 310 310 310 310 308 307 306 305 303 300 296 293 292 291 291 292 291
312 313 310 311 311 316 314 316 318 318 318 317 315 316 317 317 317 319 322 324 326 327 327 327 327 325 320 315 313 310 310 311 310 309 309 308 307 305 305 304 301 297 294 292 291 291 292 291 290
309 309 313 312 314 315 313 318 319 318 318 316 313 313 315 316 316 318 322 324 326 326 325 324 322 319 316 315 313 310 310 310 308 308 308 307 305 304 304 302 299 295 292 291 291 292 291 291 291
311 311 311 309 310 310 315 314 315 316 316 313 312 314 314 315 316 318 321 321 322 321 320 319 318 317 316 315 311 310 309 308 308 308 307 305 304 304 303 300 296 293 291 292 292 291 291 290 289
311 310 310 313 307 309 315 316 316 314 311 313 313 315 315 315 315 318 320 319 318 317 316 316 315 314 312 311 310 309 308 307 307 307 305 304 303 302 300 296 293 291 292 292 291 290 290 289 289

GFSSGP_850_thetae_006.txt.gz
Theta_e
323 323 322 322 318 315 320 320 318 320 322 322 321 323 323 324 327 328 330 329 326 324 326 340 341 340 337 333 333 332 332 331 322 318 328 327 326 324 324 322 324 322 321 317 315 316 317 318 324
322 322 322 322 318 318 318 316 320 319 320 321 323 324 323 330 332 331 330 327 325 323 325 329 342 338 336 333 334 333 333 325 321 321 324 327 327 328 328 328 325 324 318 314 313 315 313 311 313
322 323 322 317 316 319 319 317 319 319 320 321 323 326 327 331 334 330 329 326 325 323 323 326 339 336 333 335 334 332 326 321 320 323 329 328 329 329 327 324 327 326 318 314 314 313 314 314 314
324 324 320 319 320 318 317 317 319 317 321 322 323 324 328 331 334 333 332 327 326 323 324 324 327 329 335 333 330 328 324 319 319 318 328 329 330 329 330 328 328 328 318 315 315 315 315 315 316
324 324 320 321 320 318 316 318 320 318 319 320 323 324 328 328 331 332 329 326 327 325 325 324 327 330 335 332 328 326 321 317 316 316 326 329 330 330 331 330 328 328 323 317 317 317 317 317 317
325 321 320 321 319 319 317 320 320 319 319 320 322 324 327 329 329 331 329 326 329 329 328 327 326 329 333 332 329 327 323 319 317 320 323 328 329 330 331 330 329 330 321 318 318 319 320 322 322
323 318 321 320 319 320 319 321 317 317 317 321 323 323 326 328 325 327 329 329 332 332 332 330 328 327 330 332 331 329 324 324 319 318 320 322 325 328 328 327 327 323 318 318 322 325 327 328 328
326 318 323 319 322 321 321 322 323 318 318 321 323 322 324 325 326 326 330 332 334 335 335 334 333 330 327 329 331 330 326 330 324 321 319 316 318 323 325 326 320 317 319 323 326 327 328 328 329
325 323 324 322 321 321 321 320 321 322 322 322 323 323 324 325 325 325 329 331 333 335 336 336 336 334 328 328 329 330 329 331 329 326 319 315 315 319 320 318 317 321 324 326 328 329 329 329 328
324 324 323 320 319 321 321 321 321 321 321 322 323 324 324 325 325 325 325 328 330 332 335 336 336 335 330 330 329 329 329 328 326 325 319 314 314 317 318 319 320 325 327 329 329 328 328 327 327
323 325 323 323 323 324 322 321 323 321 321 323 323 324 324 325 326 325 326 327 328 329 331 334 335 336 333 330 329 328 330 329 328 326 320 319 317 318 322 323 326 328 329 332 329 327 326 325 325
323 322 324 324 325 325 324 324 321 321 322 323 324 324 322 324 325 324 325 324 325 327 328 332 335 336 335 331 331 329 331 333 330 326 324 325 324 325 327 328 329 328 329 328 327 326 326 325 322
320 320 322 323 323 324 325 324 324 324 326 326 325 324 324 323 324 324 324 325 325 325 325 326 332 336 336 334 335 333 335 333 331 330 329 328 328 328 328 331 328 327 327 326 326 324 318 313 311
318 319 319 320 321 323 323 323 323 324 325 324 323 323 324 324 323 324 324 324 325 325 326 325 325 333 337 336 337 337 336 334 332 331 330 330 330 330 332 328 327 325 325 325 320 310 310 310 310
319 318 317 318 320 320 322 322 322 322 323 324 324 325 325 325 324 324 324 323 324 324 325 326 324 329 336 338 339 339 336 335 333 331 330 329 329 328 325 325 325 326 319 310 309 308 307 306 305
319 318 320 317 317 319 322 323 320 321 321 322 323 324 325 326 324 324 323 324 324 325 326 326 324 327 335 339 340 338 335 334 331 330 330 328 328 327 326 326 324 310 309 309 308 307 306 304 303
317 316 317 317 317 319 320 321 320 322 321 321 322 323 323 324 324 324 324 324 324 325 324 325 324 328 336 339 339 336 335 334 331 330 329 328 325 324 324 320 309 309 309 309 307 304 303 302 302
314 317 317 318 317 316 319 321 319 319 320 321 322 323 323 323 323 324 324 324 324 324 324 323 325 332 337 339 336 335 334 334 331 330 330 327 326 323 310 309 309 310 309 307 304 302 301 300 301
315 315 316 315 315 316 315 315 315 315 317 318 320 321 322 323 324 324 324 324 323 323 323 324 327 335 336 337 336 335 334 333 332 331 330 327 323 309 310 310 311 310 308 305 302 301 301 300 300
315 316 316 313 314 315 314 314 313 313 315 317 318 319 321 322 323 324 324 323 322 323 323 325 330 336 336 336 336 332 331 330 329 329 325 318 309 310 311 312 311 309 307 305 302 300 300 298 297
311 312 312 312 311 311 311 311 311 312 313 314 315 316 318 320 323 323 324 323 322 323 322 324 331 337 336 337 335 331 328 328 327 324 319 309 310 310 312 311 310 309 307 305 301 299 298 297 295
312 311 312 313 312 311 310 312 311 310 312 312 314 315 318 319 321 323 323 322 321 321 322 323 328 335 336 333 334 332 327 328 325 319 310 310 310 312 311 311 310 309 307 305 301 299 297 294 293
311 310 311 312 313 313 312 313 310 309 311 314 314 317 318 319 320 322 323 323 321 321 322 322 323 329 332 332 332 328 326 326 323 311 309 310 311 311 311 310 308 308 306 304 301 297 294 293 292
310 309 310 310 313 313 310 313 311 309 309 312 312 315 318 320 321 322 323 322 320 321 322 324 325 329 330 332 329 327 325 325 318 310 310 310 311 310 310 308 307 306 305 302 299 295 293 292 292
309 311 313 315 315 312 309 311 311 309 310 311 312 315 317 317 320 320 321 321 320 321 323 326 326 330 331 331 330 328 327 326 314 310 310 310 310 309 308 306 306 305 303 300 296 293 292 292 292
309 310 311 311 315 309 309 312 311 310 310 311 311 315 317 318 318 319 320 320 320 322 325 328 331 331 330 331 329 327 325 317 310 310 309 308 308 307 306 306 305 303 301 297 294 292 292 292 292
313 311 309 311 310 312 310 310 311 313 313 313 311 313 314 315 317 318 319 319 321 323 326 329 331 331 330 327 323 321 314 309 310 309 307 307 306 305 305 305 304 302 299 296 293 292 292 292 291
311 310 313 311 312 310 309 309 311 312 314 312 312 312 314 315 316 317 318 319 323 325 328 330 330 329 327 321 319 313 309 309 309 308 306 306 305 305 304 304 302 299 296 293 292 292 292 291 291
311 311 310 310 311 307 309 308 309 313 313 313 312 312 314 316 316 317 318 320 324 326 328 329 329 328 323 318 313 311 310 309 308 306 306 305 305 304 304 303 300 297 293 292 292 292 292 292 292
309 309 309 311 306 307 304 309 312 315 312 311 313 312 313 314 315 316 317 322 325 326 327 327 326 323 321 314 313 311 309 308 306 306 305 304 303 303 303 301 298 294 292 292 292 292 292 292 291

GFSSGP_850_thetae_009.txt.gz
Theta_e
322 322 322 321 324 321 323 322 320 321 322 322 321 322 325 324 329 334 330 331 327 324 327 340 339 340 337 335 332 331 330 328 320 328 330 323 322 324 324 322 321 320 318 315 314 315 319 321 329
321 322 322 321 323 324 323 318 321 321 320 320 322 323 324 330 330 331 331 328 326 324 326 337 343 341 335 333 333 331 331 323 319 320 327 325 329 328 327 327 324 321 315 313 313 314 313 311 314
322 322 322 322 321 323 323 318 320 320 321 319 322 325 325 330 332 331 330 329 326 323 327 336 341 336 335 332 333 332 326 321 319 326 329 328 328 327 323 326 326 324 316 315 315 314 315 315 315
322 323 320 322 323 320 320 318 318 319 322 321 322 324 327 330 333 331 331 328 327 323 326 330 344 336 331 332 331 330 324 319 319 323 329 329 329 330 329 328 328 327 320 316 317 317 316 316 317
323 323 323 323 322 319 318 318 319 320 319 321 321 324 327 329 330 333 332 327 326 323 325 329 341 334 333 331 329 328 322 317 317 321 328 329 330 331 330 329 328 328 321 318 318 318 318 318 318
324 321 323 324 323 319 319 320 320 320 320 320 321 323 326 328 329 330 329 327 327 325 325 327 332 331 336 332 329 327 322 317 317 320 328 329 330 330 331 330 328 328 321 318 319 321 324 325 326
323 322 324 321 321 320 320 320 319 319 318 319 322 324 325 327 328 327 329 327 329 329 327 328 329 334 339 333 330 327 323 320 317 320 323 328 329 329 330 328 327 325 318 319 325 326 327 327 328
325 322 323 322 323 323 320 320 322 319 319 319 322 323 324 325 326 326 329 330 331 331 331 332 332 334 338 332 331 329 325 324 320 318 318 319 323 326 326 326 324 318 318 324 326 328 329 329 329
324 326 327 324 322 322 320 320 321 322 321 322 322 322 323 324 325 326 326 330 332 334 335 336 336 337 335 331 331 330 328 330 327 323 319 316 316 321 324 323 317 319 324 326 327 328 328 328 327
324 327 326 321 320 321 321 321 321 322 321 322 323 323 323 324 324 325 325 326 329 331 334 336 337 337 336 332 332 330 328 328 327 325 321 315 314 318 318 317 318 324 326 327 328 329 327 325 325
322 325 322 322 322 322 322 322 322 321 322 322 324 323 323 323 325 325 325 326 326 330 333 334 336 338 337 333 331 331 328 328 327 326 322 317 316 318 319 321 323 327 328 330 328 326 325 325 324
323 322 322 323 323 324 324 324 324 321 323 324 322 324 325 324 323 325 325 326 326 326 328 330 333 336 338 336 331 332 328 330 331 329 320 322 321 321 324 327 328 328 327 328 327 326 325 320 313
320 320 321 322 322 322 323 323 324 324 325 325 326 326 325 324 324 323 324 326 325 325 325 326 327 331 337 337 333 332 330 332 333 328 325 326 326 327 328 329 328 326 325 326 325 323 316 310 310
317 318 318 319 319 321 322 322 322 322 322 322 324 324 324 323 323 324 323 324 324 324 324 325 325 325 332 337 335 334 333 335 332 330 329 329 329 329 330 328 326 325 325 325 318 309 309 308 306
318 319 317 317 318 319 321 322 322 321 321 321 321 321 321 323 323 324 324 324 324 323 323 323 324 324 326 335 337 336 336 336 333 331 330 329 328 328 327 326 324 325 322 310 309 308 307 306 304
318 318 319 316 317 318 320 319 320 320 320 321 321 320 321 320 321 322 324 324 323 323 323 324 324 325 324 334 337 337 337 335 333 331 329 328 328 327 326 324 324 317 309 309 309 308 306 304 303
316 316 318 317 316 318 320 321 318 319 319 319 320 320 321 322 321 322 324 324 323 323 323 324 324 325 324 335 337 337 336 334 332 330 330 328 327 326 324 324 314 309 309 309 307 304 302 302 302
314 316 315 316 316 316 317 318 317 318 319 319 318 319 320 321 323 323 324 323 324 323 324 324 324 324 324 334 338 337 334 333 333 331 330 328 326 325 323 311 309 310 310 307 304 302 301 301 302
314 315 315 315 314 314 315 315 315 314 314 315 315 316 317 318 321 322 323 324 323 324 323 323 323 325 326 334 337 336 334 334 332 330 330 328 326 325 309 309 311 311 309 307 305 302 301 301 301
314 315 315 313 313 314 313 313 312 312 312 313 314 315 316 317 318 320 321 322 324 324 323 323 324 326 328 332 336 334 333 333 332 330 328 327 323 311 310 311 312 311 310 308 306 304 302 300 299
313 313 313 313 311 311 311 311 310 309 309 311 312 313 314 315 315 318 319 322 323 324 323 324 326 328 332 332 336 333 333 332 330 328 326 320 313 309 310 312 311 310 309 308 307 305 302 299 297
312 310 312 312 312 312 309 312 310 310 310 310 310 311 312 313 314 316 318 319 323 323 322 325 328 330 331 334 335 333 331 330 328 326 323 319 309 310 312 311 310 309 309 308 306 304 301 298 296
311 309 310 311 313 312 312 313 311 309 310 311 310 311 312 314 314 314 315 318 322 323 322 324 328 331 333 335 334 333 330 329 325 323 322 309 309 310 311 310 309 308 308 307 305 302 299 296 294
309 310 310 311 312 314 311 312 312 310 309 309 310 310 312 315 317 317 318 318 321 321 321 323 324 330 335 331 331 332 329 326 324 322 310 309 309 310 310 309 308 307 307 306 304 301 297 295 293
309 312 313 314 314 313 309 312 311 310 310 309 310 311 313 314 315 317 319 319 321 321 321 322 323 325 332 330 330 330 327 324 323 319 309 309 309 310 309 308 307 306 306 305 302 299 295 293 293
310 310 313 313 312 312 308 313 311 309 310 310 310 310 310 311 313 317 318 320 321 321 320 321 322 324 331 330 331 327 325 323 322 314 309 309 309 309 308 306 306 306 305 303 300 296 294 293 292
311 311 310 312 311 313 311 310 309 309 310 311 312 314 313 314 313 314 317 319 320 320 320 322 324 326 329 330 329 327 325 324 317 308 308 308 308 308 307 305 305 305 303 301 298 294 293 293 292
311 310 312 311 313 313 309 309 311 308 310 312 312 313 313 313 312 313 315 318 319 320 321 324 326 326 328 329 327 326 325 319 309 308 308 307 307 306 305 304 304 303 301 298 295 293 293 293 292
311 312 312 311 312 312 310 308 306 307 312 312 312 312 313 314 312 314 315 317 318 320 323 326 327 328 327 326 327 324 317 309 308 308 307 306 306 305 304 303 303 301 299 295 293 293 293 292 292
309 310 310 311 309 309 307 310 307 310 312 310 311 312 313 314 313 313 315 317 318 323 326 329 328 328 327 326 320 315 309 308 308 307 305 305 304 303 303 303 301 299 296 293 292 292 292 292 291

GFSSGP_850_thetae_012.txt.gz
Theta_e
321 322 322 323 326 326 327 325 323 325 327 325 323 325 330 329 335 336 331 331 329 327 339 338 340 337 336 333 330 329 329 325 319 330 327 328 329 329 327 325 320 319 317 314 315 317 322 328 329
321 322 323 324 326 327 326 325 323 325 324 322 324 325 326 331 331 335 333 330 328 328 341 342 340 339 337 333 332 331 329 322 318 329 326 326 327 327 323 321 321 317 314 313 314 314 312 314 318
322 322 324 325 326 327 326 325 324 324 323 322 326 327 329 331 335 335 331 327 327 334 338 341 342 342 338 333 332 332 327 320 318 324 327 327 326 324 326 327 326 322 316 316 315 315 316 315 315
325 324 323 325 325 325 325 323 324 324 324 323 323 328 329 328 335 333 331 329 327 337 340 336 331 340 339 333 332 330 324 319 318 327 329 328 329 330 329 328 326 324 318 317 317 317 317 317 317
324 324 325 325 325 324 324 323 323 324 324 324 324 327 328 329 330 332 333 329 328 334 340 333 334 341 339 335 332 329 322 319 318 328 329 330 330 331 330 329 328 327 320 318 318 319 320 320 320
323 323 324 325 324 324 323 322 323 323 323 323 324 324 327 327 330 330 331 328 329 327 340 336 337 342 339 337 330 327 321 316 316 327 329 330 330 330 332 331 329 328 321 318 320 323 326 326 326
323 324 323 323 324 324 323 322 322 323 323 323 323 326 327 327 331 329 329 328 328 333 337 336 337 340 338 336 332 327 323 317 317 323 329 329 329 330 332 331 328 326 319 319 324 326 328 328 328
325 324 323 324 324 324 322 322 322 322 323 321 323 325 326 326 327 327 329 328 330 331 335 339 339 338 339 337 334 330 324 319 317 319 321 325 328 329 328 327 325 322 318 322 325 328 329 329 329
325 325 324 324 324 323 322 323 322 321 322 323 323 324 324 323 325 328 330 331 334 333 332 336 340 339 340 338 336 331 326 326 320 318 317 317 319 323 325 324 322 317 321 325 326 328 328 327 326
324 325 323 323 323 323 322 323 323 323 323 324 324 324 323 323 325 333 336 337 338 336 334 332 338 341 340 337 336 332 329 329 328 324 319 317 315 318 322 320 317 320 325 326 327 328 327 325 325
322 325 323 324 323 323 323 323 323 323 324 324 325 325 324 324 326 329 332 334 337 339 339 333 335 337 340 338 337 335 333 333 332 326 322 315 313 317 319 321 323 327 327 327 327 327 326 325 322
322 321 322 322 323 325 325 324 325 323 323 323 324 323 324 325 326 324 329 332 334 338 338 332 332 335 337 339 338 336 335 333 332 329 325 318 317 317 320 329 328 329 327 327 326 326 325 321 311
322 321 321 321 322 322 322 323 324 323 323 324 325 325 326 326 326 325 324 328 332 332 329 328 329 329 334 337 339 336 335 333 334 332 327 324 323 326 327 326 326 326 326 325 325 324 314 309 309
319 320 320 320 320 320 321 321 321 321 321 322 322 323 324 325 325 325 324 324 327 330 327 327 326 326 328 335 338 336 336 334 334 332 326 326 329 329 327 327 327 325 324 324 320 309 309 308 307
319 320 319 319 318 319 320 322 321 320 320 320 321 321 321 322 324 325 325 324 324 325 327 326 324 324 325 332 336 337 335 333 333 332 330 330 328 327 328 327 326 325 325 313 309 309 308 306 304
319 319 321 319 319 318 318 320 319 321 321 321 321 320 320 320 321 323 324 324 324 324 323 323 323 323 323 327 337 337 335 334 334 332 331 330 328 328 327 326 324 324 311 309 309 307 304 303 302
317 318 319 319 318 319 320 322 320 319 321 321 320 321 321 321 320 321 322 323 323 324 323 323 323 323 325 336 339 337 335 336 334 333 330 329 328 327 326 325 324 312 309 309 307 304 303 302 302
318 318 317 317 317 318 319 319 319 319 318 318 319 321 321 321 322 321 321 322 321 324 323 323 323 323 324 335 338 337 337 336 334 332 330 329 328 327 325 324 314 309 310 309 307 306 304 302 301
315 317 317 317 317 317 317 317 317 316 316 316 317 317 318 320 321 321 322 323 323 324 324 324 323 323 325 330 332 335 336 335 334 332 330 330 327 326 325 315 309 311 310 310 309 308 306 303 301
315 316 316 315 314 314 315 316 315 314 314 314 315 316 316 317 318 320 321 322 322 323 324 324 324 323 325 325 331 331 334 335 333 332 331 329 326 324 321 309 311 312 311 311 310 308 306 303 300
315 316 315 315 314 313 314 315 315 314 313 312 312 312 313 314 316 318 319 320 321 321 323 324 324 324 325 328 333 334 334 333 333 332 330 326 323 319 309 310 312 312 311 310 310 309 306 302 299
315 312 312 313 313 315 312 317 314 314 314 313 313 313 313 313 314 314 317 318 319 320 321 323 323 324 327 330 331 333 332 333 332 331 328 325 317 310 309 311 311 311 311 310 309 308 305 302 297
313 311 311 312 313 313 314 314 313 313 314 314 314 313 314 313 314 315 315 316 318 318 319 322 323 326 327 329 332 335 333 332 331 329 326 320 313 309 310 311 311 310 310 309 308 307 304 300 297
311 311 311 311 312 315 313 313 313 313 314 313 313 313 313 314 314 314 317 316 317 319 318 322 324 328 330 331 334 335 332 331 330 326 322 315 312 309 310 310 309 309 308 308 307 305 302 299 296
311 312 314 314 314 314 311 312 313 312 312 313 313 313 313 313 314 314 316 317 318 318 318 321 324 327 330 333 334 334 333 331 329 324 319 319 310 309 310 309 308 307 307 306 305 303 300 296 294
311 312 314 313 312 312 311 313 312 312 312 312 312 312 315 316 315 313 315 317 319 319 319 321 324 326 329 332 334 335 332 328 326 323 321 314 309 309 309 308 306 306 306 305 303 301 298 295 294
311 312 311 313 312 314 312 312 312 312 311 312 312 315 315 315 315 315 315 316 319 320 319 321 323 325 329 331 333 333 329 325 324 322 316 309 308 308 308 307 305 305 304 303 302 299 296 294 293
312 311 313 313 313 313 311 312 312 311 311 312 315 314 313 314 314 315 314 316 319 321 320 322 322 323 328 328 330 330 325 325 322 320 312 308 307 307 306 305 304 303 303 302 300 297 295 293 293
311 311 312 312 313 312 312 311 311 310 311 310 313 312 312 314 314 315 314 316 319 321 321 321 320 321 326 329 329 327 324 323 321 314 307 307 306 305 304 303 303 302 301 300 297 295 293 293 292
310 311 310 313 313 314 313 313 310 310 311 315 312 312 313 314 314 314 314 317 320 320 320 320 320 324 327 330 328 326 325 322 314 307 306 305 304 304 303 302 302 301 299 297 295 293 292 291 291

GFSSGP_850_thetae_015.txt.gz
Theta_e
323 326 325 325 327 328 328 328 326 326 325 326 327 326 330 330 335 337 336 340 340 345 342 330 332 334 333 331 330 329 328 320 328 331 329 328 332 331 330 327 320 316 314 313 314 317 326 330 329
324 325 325 325 328 328 329 327 326 323 326 326 325 326 328 332 332 338 339 333 339 344 345 339 334 336 335 332 331 330 327 319 326 327 322 326 326 323 323 319 319 316 314 313 313 313 314 317 326
322 324 324 327 327 328 328 328 326 325 325 325 327 328 330 332 335 337 340 330 339 344 346 344 335 338 336 333 332 331 324 319 320 327 326 323 325 325 325 326 324 320 316 316 315 315 315 314 314
325 324 323 326 327 327 326 326 325 325 324 325 327 328 330 331 336 336 339 337 339 344 345 344 341 342 336 333 333 331 322 318 323 327 328 328 328 327 328 328 326 323 318 317 317 317 317 317 317
324 323 326 326 325 325 326 325 324 325 325 325 326 328 329 333 335 338 338 338 339 342 347 342 342 340 339 333 332 329 321 318 322 328 329 330 330 331 330 328 328 327 320 318 319 320 321 322 323
323 323 325 325 325 325 325 325 324 324 324 325 325 327 328 332 335 338 340 339 338 341 344 343 341 341 341 336 333 328 320 316 321 328 329 330 330 331 331 330 329 327 321 318 323 324 326 327 329
325 325 324 324 325 324 325 324 324 324 324 325 324 327 329 330 338 339 340 339 339 340 342 345 341 341 340 337 335 328 322 316 318 327 329 330 330 330 333 332 329 325 319 319 325 328 329 328 328
324 325 325 325 323 324 324 324 323 323 324 324 324 325 327 332 337 339 339 340 339 340 342 342 343 341 338 337 335 329 324 317 318 323 326 327 329 330 331 328 326 321 317 321 325 327 327 327 327
325 328 326 325 324 323 323 324 323 322 323 323 324 324 326 327 334 338 339 340 340 340 341 341 341 341 341 338 336 331 325 320 317 317 318 321 327 327 327 325 322 317 318 323 325 326 327 326 323
324 325 323 322 323 324 323 323 324 324 323 322 324 324 325 327 330 335 337 338 339 340 340 341 341 341 342 340 338 333 330 327 322 319 317 325 327 324 328 321 319 317 321 325 326 326 326 324 322
322 324 322 322 324 324 324 323 323 324 325 324 324 325 325 325 327 330 333 334 338 339 340 341 342 342 341 340 340 336 335 335 334 333 332 328 316 316 319 320 317 324 326 327 327 326 325 325 323
322 321 321 322 322 324 324 322 323 323 323 323 324 325 326 325 326 326 329 331 333 337 340 341 343 343 343 342 339 336 336 335 335 334 333 328 324 321 328 329 331 330 327 326 326 325 324 318 310
322 322 320 320 321 322 322 323 324 324 324 323 323 324 325 325 326 327 326 328 331 334 338 340 342 337 341 344 340 338 336 335 336 335 334 330 328 326 329 330 326 325 326 325 324 324 314 309 309
321 321 321 321 321 321 322 321 321 321 321 322 322 323 324 325 326 326 326 326 327 332 335 338 341 342 336 342 342 340 338 336 336 335 335 330 330 330 330 326 326 326 325 325 324 311 309 308 306
320 322 321 321 320 321 320 322 322 321 320 320 321 321 322 322 324 325 326 326 326 327 331 334 339 340 337 330 341 341 338 337 336 335 334 331 331 331 327 327 327 326 325 324 310 309 308 305 303
320 320 323 321 320 319 319 321 321 321 321 322 321 321 320 320 321 322 324 326 326 326 326 329 334 339 340 327 334 338 339 337 335 334 332 332 330 327 327 328 326 325 324 310 310 308 305 303 302
319 322 322 322 320 320 321 323 322 321 321 321 321 322 322 322 321 321 322 324 325 326 325 325 326 332 338 328 336 340 338 337 337 335 334 331 329 328 327 326 325 324 311 310 309 308 306 305 303
321 321 320 319 319 319 320 320 320 319 319 321 320 320 321 322 322 322 321 321 323 325 325 325 324 325 331 338 338 338 338 336 336 335 333 331 329 328 327 326 325 318 310 311 310 309 308 306 305
317 318 318 318 317 318 318 318 318 317 317 318 318 319 319 319 320 322 322 322 321 323 324 325 324 327 328 334 337 336 337 336 335 335 332 330 329 328 326 325 323 310 312 311 311 311 310 308 306
317 317 317 317 316 316 316 317 317 316 317 316 316 316 317 317 318 319 320 322 323 323 324 324 326 328 331 334 332 335 336 334 334 334 332 330 329 327 325 324 310 311 312 312 312 311 309 308 306
316 317 317 317 316 314 315 317 317 317 317 316 315 315 315 315 316 317 318 320 321 322 323 324 326 330 333 332 334 336 334 332 334 334 332 330 330 326 323 316 310 312 312 312 311 311 309 307 305
317 315 315 315 315 317 314 317 315 315 315 316 315 315 315 314 314 314 315 317 319 321 323 324 327 331 334 334 331 329 328 332 334 333 331 331 328 324 318 310 311 312 311 311 311 310 309 307 303
315 313 313 313 314 313 314 315 315 314 314 314 315 315 315 315 315 315 315 315 316 319 322 323 328 331 333 332 332 329 328 330 333 332 331 329 324 320 312 310 311 311 311 310 310 309 308 306 303
312 312 312 312 312 314 313 315 315 314 313 313 313 313 314 314 314 315 315 315 316 317 320 321 328 331 331 332 331 327 326 329 332 331 330 327 323 312 309 310 311 310 310 309 309 308 307 305 301
312 312 316 317 316 316 313 313 314 314 313 313 313 313 313 313 314 314 315 316 317 317 319 322 328 330 331 330 326 326 326 331 331 331 330 327 320 310 309 309 310 309 309 308 307 307 306 303 299
311 312 315 314 314 314 313 313 313 313 313 312 312 312 313 314 316 317 317 315 317 319 319 324 329 329 329 327 326 328 327 330 331 330 328 326 317 312 309 309 309 308 308 307 306 305 304 301 297
312 313 312 314 312 314 312 312 313 312 312 312 312 312 312 314 315 316 317 316 316 319 320 324 328 330 327 325 327 325 329 330 330 328 325 316 310 311 308 308 308 307 306 305 305 303 301 298 295
312 312 313 313 314 314 313 313 313 312 312 312 312 312 312 314 314 315 316 317 317 320 321 324 327 328 325 323 327 330 331 330 328 326 316 310 312 308 308 307 306 305 305 304 303 301 299 296 293
312 312 313 312 314 316 315 314 312 311 312 312 311 312 314 313 314 315 316 316 317 320 323 324 326 325 323 323 328 330 329 325 325 318 314 314 309 307 307 306 304 304 304 303 301 298 296 294 292
311 312 311 314 314 314 315 315 312 311 312 312 311 313 311 311 313 315 315 317 318 322 323 324 325 324 320 317 327 328 328 324 321 313 312 310 306 306 305 304 303 303 302 301 299 296 293 292 291

GFSSGP_850_thetae_018.txt.gz
Theta_e
322 327 325 326 328 327 328 328 326 326 325 325 327 327 325 327 334 342 340 340 340 334 329 329 328 327 326 327 327 327 325 318 331 332 325 334 334 331 329 324 317 313 312 313 313 319 330 329 330
322 325 325 326 328 328 327 327 326 325 325 326 325 325 325 329 337 338 341 340 346 342 330 326 327 328 329 328 328 328 321 319 324 326 328 328 328 327 326 316 315 314 314 313 313 313 313 317 323
321 326 324 327 327 327 327 326 326 325 325 325 325 326 327 334 336 340 340 340 345 346 333 328 327 330 330 328 328 327 320 320 324 324 325 325 321 321 320 321 320 316 316 315 315 314 314 313 313
325 325 324 324 326 326 325 324 325 325 324 324 326 326 329 332 337 338 334 340 344 346 344 337 332 334 333 330 328 324 319 318 326 324 324 324 325 326 326 325 324 320 317 318 317 317 317 317 318
324 325 325 324 324 324 323 324 325 325 324 325 326 326 331 334 335 336 334 339 343 346 346 344 333 339 334 330 329 323 317 318 325 327 328 330 330 331 328 326 323 321 318 318 320 322 323 324 325
323 323 324 325 325 324 323 324 325 324 324 324 324 325 330 334 337 339 337 339 342 345 346 345 336 340 336 330 329 323 317 317 326 328 329 330 330 332 330 328 324 322 318 319 322 325 327 328 327
324 324 324 323 323 323 323 324 325 324 324 324 324 323 329 336 338 339 339 338 340 344 345 339 339 339 338 333 327 324 318 316 323 327 328 329 330 331 331 330 327 322 318 320 325 327 327 327 327
324 324 326 323 323 322 323 323 324 324 323 324 324 324 328 337 338 340 340 339 339 342 344 343 339 339 337 333 328 322 320 316 319 323 325 329 329 332 334 332 325 320 317 321 323 325 325 326 324
323 326 326 324 324 324 323 322 323 323 323 323 324 324 327 335 338 339 339 340 339 341 342 343 341 339 338 335 333 326 321 317 317 320 323 326 328 329 328 325 322 318 317 321 323 324 325 324 323
323 326 327 324 322 322 324 323 323 323 323 323 323 324 325 326 333 338 339 339 340 340 341 342 343 343 340 340 335 330 324 320 317 317 317 319 328 326 324 324 321 317 318 322 324 324 325 325 325
322 323 322 321 321 323 324 324 323 323 323 324 323 324 325 325 328 332 336 338 339 340 340 341 341 341 340 340 338 336 329 325 321 319 320 325 328 324 324 322 317 319 322 323 324 323 324 324 319
321 321 321 321 321 322 323 324 323 323 323 323 323 324 325 325 326 327 330 332 336 338 340 341 342 341 341 340 339 335 334 331 333 331 330 328 319 317 320 326 329 329 327 325 324 325 324 316 311
320 320 320 320 321 321 322 322 323 323 323 323 323 323 323 325 325 326 327 327 330 337 338 340 341 342 342 340 339 337 336 335 335 335 332 330 322 319 323 329 330 329 325 323 324 324 316 310 309
321 321 321 321 321 321 321 321 321 321 321 322 323 323 323 324 325 325 326 327 327 331 335 339 341 341 341 341 340 339 337 336 335 335 333 332 327 325 330 330 328 324 324 325 325 316 310 309 305
320 321 321 321 320 321 321 321 321 321 321 321 321 321 322 322 323 325 326 326 326 327 331 336 340 340 338 338 342 340 338 337 335 335 333 332 330 330 329 329 325 325 325 324 318 310 309 306 304
321 320 322 320 320 320 320 320 319 320 321 320 321 321 320 321 322 322 323 325 326 326 327 332 337 340 339 332 339 341 339 337 336 335 333 331 331 330 330 327 327 326 325 322 310 310 308 307 305
318 319 320 321 320 320 319 320 319 320 321 321 322 322 321 321 321 321 321 322 324 326 326 328 333 335 338 334 330 339 339 336 336 335 333 331 331 331 327 327 327 325 324 310 311 310 310 309 307
320 319 319 319 319 319 318 319 318 319 319 319 320 321 321 321 322 322 321 321 322 323 326 326 327 333 336 336 334 337 335 337 336 334 333 332 331 329 327 327 326 325 317 311 311 312 312 311 309
318 318 317 317 317 316 315 315 316 316 316 316 318 319 319 320 320 320 322 322 321 321 322 325 325 325 329 337 337 334 336 336 335 334 334 333 331 329 328 327 326 325 310 312 312 312 312 311 310
317 318 317 316 316 315 314 315 314 314 315 316 316 316 317 317 318 318 319 320 322 322 321 323 325 325 325 332 336 333 334 336 335 334 334 334 330 329 328 326 325 318 311 312 312 312 312 312 310
316 317 316 316 315 314 314 314 314 315 314 314 315 315 316 316 316 316 317 318 320 321 322 322 323 324 325 325 335 337 336 336 334 334 334 333 330 329 328 326 324 311 312 312 312 312 311 311 310
316 314 315 316 314 314 313 314 313 312 313 314 315 316 315 315 315 315 315 316 318 319 321 323 324 324 325 327 334 332 331 333 333 333 333 331 329 329 327 325 319 310 312 312 312 311 311 310 309
314 313 313 314 313 310 312 312 311 311 311 312 312 314 315 315 315 315 315 314 315 316 319 320 322 324 326 330 333 332 332 332 332 332 330 329 329 328 324 323 314 311 312 312 311 311 310 309 308
312 313 312 312 311 308 311 312 311 311 312 312 312 312 313 313 314 314 314 315 315 315 315 320 321 323 329 332 335 333 330 331 331 330 328 328 328 325 321 319 311 311 311 311 310 309 309 308 307
313 312 313 314 315 310 312 311 311 311 311 311 310 312 312 312 313 313 316 316 316 316 316 315 321 323 327 332 335 333 329 327 327 329 329 328 326 322 321 318 310 310 311 310 309 308 308 307 305
312 313 313 315 313 313 312 312 311 311 312 312 312 312 312 312 312 316 316 316 316 316 315 317 319 324 328 332 333 332 329 328 326 329 330 328 327 323 318 314 309 310 310 309 308 307 307 306 304
313 311 311 313 311 309 310 310 310 310 310 310 311 312 312 312 313 315 315 316 316 317 317 318 322 323 325 331 333 330 328 326 326 327 328 327 325 320 316 311 308 309 309 308 307 306 306 304 302
311 311 312 313 308 312 311 311 311 311 310 309 309 309 312 312 312 314 314 315 314 316 316 319 322 322 326 330 329 327 326 326 326 327 326 324 323 319 312 310 307 308 307 306 305 305 304 302 299
312 312 312 311 312 312 313 311 311 310 310 309 310 311 313 313 313 314 314 315 314 316 317 319 321 322 326 328 326 325 325 325 326 323 322 323 321 312 310 308 307 306 306 305 305 304 303 300 297
311 311 311 313 310 311 311 312 311 311 310 309 308 310 310 312 311 312 312 314 314 317 318 321 321 325 327 325 324 324 325 324 320 320 320 317 312 309 307 305 305 305 305 304 304 302 300 297 294

GFSSGP_850_thetae_021.txt.gz
Theta_e
322 323 325 325 323 320 324 325 324 323 323 324 325 324 323 326 329 338 338 340 340 332 335 324 320 319 319 320 321 321 319 317 320 318 329 332 333 330 328 316 312 312 312 312 316 327 329 331 330
323 323 325 325 323 325 324 322 323 322 324 325 325 324 324 336 337 339 339 340 340 334 331 324 322 321 322 321 320 318 316 319 328 326 331 333 332 329 322 314 313 313 313 312 312 313 318 319 319
322 324 325 322 322 323 324 322 321 322 324 324 324 325 325 336 338 339 340 339 340 333 328 325 324 324 324 323 320 317 316 318 320 327 326 327 324 324 317 317 316 315 315 314 314 314 313 314 314
321 325 325 320 323 322 322 321 322 323 324 324 324 324 331 336 337 339 338 337 343 339 328 327 327 326 326 325 321 317 316 320 321 320 323 320 320 321 321 319 317 316 317 317 317 317 318 319 320
324 324 321 321 320 320 319 321 322 323 323 324 324 324 333 336 336 335 339 339 344 343 334 330 329 329 328 326 321 317 316 321 322 322 322 323 324 325 323 321 318 317 317 319 321 322 324 325 324
323 322 320 324 322 320 318 322 321 323 323 324 323 323 330 335 332 335 339 340 344 345 343 342 334 329 329 327 321 317 316 320 325 326 329 330 332 331 327 322 319 317 317 320 322 325 326 326 326
321 318 319 320 319 319 319 323 320 321 322 323 323 322 333 336 338 336 338 341 343 345 345 345 339 335 332 328 323 318 316 318 323 326 328 329 331 331 327 324 320 317 317 320 323 323 324 325 324
323 319 323 320 321 320 320 321 322 322 322 323 323 321 337 338 339 339 338 341 342 344 345 343 340 336 333 331 325 320 317 317 320 325 328 329 330 333 331 328 321 318 317 320 321 322 324 324 322
322 321 322 323 322 321 322 320 322 323 323 323 323 324 334 337 340 340 338 339 340 341 342 342 337 336 334 334 329 323 319 316 318 321 326 328 329 331 332 326 321 318 317 320 322 323 323 323 323
320 321 323 322 320 320 322 323 323 322 322 322 322 325 334 333 338 339 339 339 340 340 341 342 342 337 337 336 332 326 322 317 317 319 321 325 326 325 326 324 322 318 318 321 323 323 324 324 323
320 320 322 323 322 321 323 322 323 321 320 322 322 322 325 325 330 337 339 339 339 339 341 342 342 342 340 335 334 332 325 320 317 318 318 320 323 323 321 322 321 317 320 323 323 322 323 323 317
320 320 320 320 320 321 321 323 322 323 321 322 322 322 323 325 326 332 337 338 338 339 339 341 342 342 340 339 338 335 332 325 320 318 318 324 324 325 321 323 322 323 325 324 323 323 324 318 311
317 318 320 320 320 320 320 321 321 321 323 323 322 322 323 323 325 328 329 332 335 338 339 340 341 340 340 339 339 338 333 331 329 327 328 326 327 320 318 325 328 326 327 323 322 323 322 311 310
319 319 319 320 320 320 320 319 320 321 321 321 322 322 323 323 323 325 325 326 328 332 338 339 340 340 340 340 339 338 336 334 334 333 333 331 329 319 323 327 329 329 326 323 324 324 311 310 307
320 320 319 319 320 319 320 319 319 321 320 320 320 320 322 321 323 323 325 325 326 327 336 338 339 340 340 340 339 338 336 336 335 334 333 333 330 324 324 328 330 328 323 324 324 314 310 308 306
320 319 321 318 319 320 319 320 318 320 320 320 320 320 320 321 320 321 323 324 325 325 326 333 337 338 340 339 340 339 338 337 335 334 333 332 331 329 329 329 329 325 325 325 321 310 309 309 308
318 318 318 319 318 319 318 319 317 319 319 318 318 320 320 320 320 320 320 321 324 325 325 327 333 333 336 338 337 338 339 337 336 335 334 333 331 330 330 329 328 326 326 324 311 310 311 311 310
317 317 317 317 318 318 318 316 316 319 317 316 317 319 320 320 321 321 320 320 321 323 325 324 328 332 333 333 334 335 340 337 337 335 334 334 332 330 330 329 326 326 325 321 311 311 312 312 311
317 317 316 315 314 314 314 313 312 313 314 314 315 316 317 319 320 321 320 320 321 320 321 322 326 330 334 333 334 336 335 338 336 335 334 334 332 330 331 328 326 325 325 314 312 312 313 312 311
316 316 315 314 314 314 313 313 312 312 313 314 314 314 315 316 318 319 319 319 319 321 320 321 321 326 332 334 331 329 334 335 335 335 334 333 332 331 331 328 327 326 325 311 312 313 313 312 312
315 315 315 315 313 311 311 311 311 311 312 312 313 314 315 315 316 316 317 317 318 319 320 321 321 321 329 332 329 328 333 332 335 335 333 332 332 332 330 328 326 325 321 311 313 313 313 312 312
315 312 314 314 312 312 310 313 309 310 310 312 313 313 314 315 315 315 315 315 316 316 317 319 321 322 325 327 328 328 329 331 334 333 333 332 332 332 329 328 326 323 316 312 313 313 312 312 311
314 312 311 311 310 308 309 310 309 308 310 309 309 313 314 315 315 315 314 314 314 314 316 317 319 320 324 324 325 326 327 328 330 332 332 332 332 331 329 326 325 318 311 312 313 312 312 311 311
311 311 311 310 307 304 307 309 308 309 309 311 310 312 313 313 314 313 314 314 315 315 315 315 316 320 321 324 325 325 327 327 330 332 332 332 330 328 328 326 324 315 311 312 312 312 311 310 310
310 309 305 307 310 308 309 310 309 308 309 309 308 310 312 313 312 312 313 313 314 315 315 315 315 315 319 321 324 326 327 327 328 331 331 331 329 328 326 323 323 313 311 311 311 311 310 309 309
310 310 306 312 310 312 310 311 310 309 310 311 311 311 311 311 312 311 313 315 315 315 315 315 315 315 315 321 324 327 328 330 331 330 331 329 328 327 324 324 318 311 310 310 309 309 309 308 308
311 310 309 309 308 303 308 307 307 308 308 307 309 310 311 310 311 312 315 315 315 314 314 313 316 316 316 318 326 328 329 330 329 331 330 327 326 325 322 320 313 309 309 309 308 308 307 307 306
309 309 307 303 303 310 309 308 310 308 308 308 306 308 312 312 310 314 314 314 314 313 312 312 315 317 317 319 326 327 327 328 329 329 326 325 325 324 318 314 310 308 308 307 307 307 306 306 305
310 309 310 308 307 308 311 310 306 308 308 307 306 309 310 310 311 313 314 313 312 310 310 311 316 316 319 321 325 326 327 327 329 326 324 324 323 319 313 312 312 307 307 305 306 305 305 304 303
309 309 309 310 305 307 305 311 310 309 308 309 311 311 311 311 311 311 311 311 310 310 310 313 317 320 320 321 324 324 325 326 325 324 322 322 321 312 311 309 306 305 306 304 305 304 304 302 299

GFSSGP_850_thetae_024.txt.gz
Theta_e
323 322 325 325 321 319 323 324 323 322 321 324 324 324 323 328 327 331 336 337 340 338 331 325 321 319 318 318 318 317 317 318 326 333 334 332 332 330 325 313 311 311 311 313 328 331 332 330 329
323 322 325 324 322 324 323 320 323 320 323 323 324 324 323 337 337 336 337 338 339 334 329 323 321 319 319 319 318 317 316 316 317 328 332 334 331 330 315 312 312 311 312 313 320 327 329 326 318
323 322 324 321 320 323 323 322 322 322 323 323 323 325 327 333 337 334 337 337 339 334 327 322 321 320 320 319 318 316 317 317 321 329 333 333 331 326 313 313 313 313 313 312 312 311 312 312 314
320 323 324 320 323 321 320 320 320 320 322 323 324 323 333 335 337 337 335 335 337 335 327 323 323 323 322 320 317 317 317 318 320 323 327 327 320 315 316 316 316 316 316 315 315 316 317 318 320
320 323 319 321 319 318 318 320 322 319 321 323 324 323 331 335 336 336 335 334 337 332 327 325 326 326 325 321 318 317 318 319 318 320 318 315 316 318 318 317 316 317 319 320 320 322 323 322 323
323 321 320 322 320 319 317 320 319 320 322 323 323 322 332 334 335 332 336 336 339 336 329 327 328 329 327 323 318 317 318 319 320 318 319 320 322 320 319 318 317 317 320 321 324 325 324 325 324
319 315 320 319 320 320 319 320 319 319 321 322 323 321 335 336 336 334 337 340 343 343 335 335 331 331 329 326 320 317 317 320 322 326 328 330 331 328 323 321 319 317 320 324 324 323 323 324 322
321 317 320 317 319 319 319 320 321 320 320 323 323 327 335 335 338 339 340 340 344 344 344 343 342 333 330 327 324 318 317 319 322 327 328 330 331 329 326 323 320 317 319 321 322 322 323 322 321
321 319 321 321 320 319 320 321 322 322 322 322 322 326 327 334 339 338 339 341 344 344 343 343 343 338 333 329 326 321 316 318 321 325 328 329 331 331 329 325 321 318 318 321 322 322 323 322 323
319 319 321 320 320 320 320 321 322 321 321 321 322 326 336 337 338 338 338 340 343 343 344 342 341 338 334 331 329 323 318 317 321 323 327 327 328 331 330 325 320 318 318 321 322 323 323 323 323
318 319 320 322 322 321 320 320 322 321 320 320 320 330 334 338 339 338 338 338 338 339 341 341 340 340 337 332 332 326 322 318 318 321 323 326 325 325 326 324 322 319 317 320 322 322 322 323 318
319 319 320 320 321 319 319 321 321 322 322 322 322 322 333 337 339 339 338 338 338 338 339 339 340 341 340 339 334 331 326 321 317 318 320 321 321 322 322 323 321 318 318 321 322 322 323 322 312
317 318 319 320 320 319 319 319 320 321 322 322 322 322 322 322 324 335 338 339 338 337 337 338 340 341 341 339 339 334 333 327 321 317 317 317 318 321 322 322 323 323 324 324 322 322 323 318 310
317 317 318 319 319 319 319 319 319 320 321 321 321 322 321 322 323 324 332 336 338 338 338 338 339 339 339 339 339 337 335 334 326 321 320 320 321 323 322 321 326 326 325 325 322 323 323 311 309
320 320 318 318 319 319 319 319 318 320 320 320 319 319 319 319 321 323 323 324 325 325 335 338 338 338 338 337 339 338 338 334 332 331 331 331 329 329 320 320 326 328 328 325 323 323 317 310 307
319 318 320 318 318 318 319 319 317 319 320 320 320 319 319 318 318 321 322 323 324 324 325 335 338 339 338 338 339 339 338 335 334 334 333 332 332 331 324 321 325 328 329 323 324 323 311 309 309
316 318 318 318 317 317 317 319 317 318 318 317 318 319 318 319 320 319 320 322 323 324 324 324 337 336 336 336 338 338 338 334 335 335 334 333 333 332 329 326 327 329 328 325 324 317 310 310 311
317 317 316 316 315 314 314 317 316 317 317 317 317 317 317 318 320 320 320 319 321 323 323 323 324 335 336 334 332 335 337 336 334 336 334 333 332 332 330 329 329 329 327 325 324 311 311 312 311
316 316 316 314 314 313 313 312 312 313 312 312 313 315 316 317 318 320 321 320 320 320 320 320 321 323 332 333 331 332 335 335 333 336 334 333 332 332 329 329 329 329 326 325 321 311 312 312 312
317 316 315 313 313 313 312 312 311 311 312 313 314 314 314 315 317 318 318 319 320 320 320 320 320 320 322 330 331 332 330 333 330 333 334 334 332 332 331 329 330 328 325 325 318 311 313 313 312
314 315 314 315 312 310 309 311 310 309 311 312 313 313 313 313 314 315 317 318 318 319 319 319 320 320 320 325 331 332 331 331 332 331 333 333 333 332 332 330 330 328 325 324 316 312 313 313 312
315 312 312 313 312 312 309 312 308 309 308 308 310 312 313 313 313 313 314 315 316 316 316 317 318 318 320 321 325 330 331 330 330 330 332 332 332 331 331 330 330 328 325 323 313 312 313 313 312
314 311 311 310 309 308 308 309 307 306 308 307 306 311 314 315 315 314 314 315 315 315 314 314 315 316 318 321 323 326 332 331 328 327 329 329 330 331 330 330 331 327 325 318 312 312 313 312 312
311 309 308 307 306 304 306 309 306 306 309 309 308 310 312 313 314 314 315 314 314 314 314 314 314 314 315 318 321 323 329 330 329 329 328 330 330 330 331 331 331 327 324 318 311 312 312 312 311
308 307 303 303 302 307 307 308 307 306 306 307 306 310 310 310 312 313 312 313 314 314 315 315 315 315 315 314 318 322 325 327 328 328 327 327 329 329 330 330 330 325 322 313 311 311 311 311 310
309 308 305 309 308 309 308 310 309 307 308 308 309 308 309 311 310 310 311 312 312 312 313 313 314 314 314 315 315 318 323 325 327 326 326 326 328 328 329 329 327 321 319 310 310 310 310 309 309
310 307 307 307 307 301 306 305 305 306 307 307 307 309 309 310 311 311 310 311 314 315 315 314 313 313 314 314 315 316 319 324 325 325 326 327 327 328 329 326 325 316 312 309 309 309 308 308 307
308 307 306 299 301 308 307 307 309 307 308 307 306 307 310 311 311 311 311 314 314 314 314 313 312 312 312 314 315 316 318 323 326 326 327 327 328 328 328 324 321 316 309 306 307 309 307 307 305
309 307 307 305 305 306 311 309 305 307 308 307 306 309 310 312 312 312 311 311 313 313 311 311 310 310 310 313 316 317 319 325 326 327 326 327 327 328 325 323 318 310 307 309 307 306 304 306 303
308 309 307 304 304 304 304 309 307 306 308 308 310 310 312 313 314 313 311 311 310 312 311 310 310 309 310 314 317 319 320 322 325 326 326 327 327 326 322 320 313 308 307 306 309 306 303 304 302

GFSSGP_850_thetae_027.txt.gz
Theta_e
323 323 323 325 320 318 321 322 321 322 322 323 322 322 324 326 327 329 337 335 335 336 330 325 324 326 326 326 326 327 327 331 335 334 334 334 330 328 322 312 311 311 311 322 332 332 332 331 328
324 322 323 324 320 322 320 319 322 321 321 323 322 322 327 335 337 335 336 336 338 336 329 323 322 323 323 323 323 322 321 325 335 334 333 333 329 328 311 311 311 311 312 324 330 331 330 327 320
323 322 324 320 319 322 320 320 321 320 322 321 321 323 326 331 335 334 335 335 338 335 328 321 320 320 319 319 319 318 316 317 328 333 334 333 329 325 312 312 312 311 312 314 321 324 321 313 314
322 321 322 320 323 320 320 319 319 320 323 322 323 323 333 335 336 334 335 335 337 334 328 321 320 319 320 319 317 316 317 318 324 334 334 332 327 313 313 314 314 314 313 313 313 314 315 317 318
321 323 319 320 320 318 317 319 319 318 318 321 322 322 329 333 336 336 336 334 336 335 329 322 321 322 322 320 317 316 318 318 321 327 328 323 314 314 315 315 316 316 317 317 319 320 321 322 322
320 320 319 320 319 318 317 319 319 318 320 321 321 325 330 332 334 333 335 335 338 335 330 324 323 324 324 322 317 317 318 318 317 318 316 314 315 316 316 316 316 319 320 321 324 324 324 325 324
319 316 320 318 317 318 318 320 319 319 318 320 321 322 332 332 332 332 336 338 341 335 329 326 325 326 326 324 318 317 319 319 318 317 318 321 317 317 317 317 317 319 320 324 323 324 323 323 322
321 315 317 317 318 318 318 319 320 319 320 321 321 330 333 329 333 334 338 339 342 342 335 327 327 327 327 325 321 317 318 320 321 324 327 329 326 321 319 318 317 317 321 329 326 323 323 321 320
321 318 320 318 317 317 319 320 321 322 320 321 321 325 327 331 334 335 339 342 343 343 342 338 339 337 328 326 324 318 317 320 322 327 328 329 330 326 324 322 319 317 319 322 322 323 323 322 321
318 318 320 318 317 320 319 320 320 321 320 320 321 323 327 336 336 335 335 338 341 343 341 342 342 341 338 330 326 322 317 319 322 325 327 328 329 329 327 326 322 319 317 321 322 322 322 323 323
318 319 319 321 322 321 320 320 321 321 320 319 320 333 337 337 337 336 334 332 330 334 339 338 340 341 339 334 329 325 320 317 320 323 326 327 328 330 330 327 322 320 318 320 321 322 322 322 321
319 318 320 320 321 319 319 319 320 321 321 320 322 326 336 338 337 337 336 334 334 336 336 337 338 339 339 337 333 329 325 320 317 322 324 325 325 326 327 325 324 322 318 320 321 321 321 322 320
317 317 319 320 320 319 319 318 318 319 320 320 322 322 322 328 337 338 338 337 337 338 339 337 337 337 338 339 337 335 330 325 320 317 321 323 323 323 324 323 324 321 318 321 322 322 321 322 316
317 317 318 318 318 318 318 318 319 319 319 320 320 320 321 321 322 323 327 338 337 337 337 337 337 337 338 338 338 337 336 333 326 320 318 320 320 320 323 323 323 322 323 324 323 321 322 322 311
318 318 318 317 318 318 318 318 316 319 319 319 319 319 319 319 320 320 322 326 337 338 338 337 336 337 338 338 339 339 337 333 332 329 321 318 318 319 324 325 323 324 326 325 324 322 323 319 309
318 317 319 317 317 318 319 319 316 318 319 319 319 319 318 318 318 317 319 322 323 325 330 330 335 335 337 338 339 339 338 337 336 332 327 322 323 326 328 326 320 324 327 327 325 323 323 313 308
315 317 318 318 316 316 316 318 316 317 317 317 317 317 317 318 318 318 318 319 322 322 322 322 323 329 337 337 336 336 338 337 337 335 332 331 332 332 331 329 322 324 327 328 325 324 323 310 309
317 318 316 316 315 314 313 313 314 317 317 316 317 318 318 318 318 318 319 319 319 319 322 321 321 322 328 337 335 335 334 338 337 336 333 333 333 332 332 330 325 325 328 328 326 325 320 310 310
314 316 316 314 313 313 312 311 311 311 312 311 313 316 317 318 318 319 319 319 320 320 319 321 320 321 321 330 334 334 332 333 338 336 334 333 334 332 331 330 328 328 328 328 326 324 315 310 311
318 317 315 313 312 313 311 310 310 311 311 312 313 314 314 315 317 317 319 319 319 319 320 320 320 319 319 320 328 332 333 331 333 333 333 331 333 332 331 331 328 327 327 329 325 324 313 311 312
315 314 314 314 311 309 308 310 309 308 309 311 312 313 313 313 314 315 315 316 318 318 319 319 319 319 319 319 320 331 333 332 331 332 335 332 334 332 331 331 331 329 328 329 325 324 312 312 312
314 311 312 311 311 312 308 312 308 308 307 306 308 310 312 312 313 314 314 313 313 315 317 316 317 317 317 318 319 323 326 330 330 330 328 330 333 331 332 331 330 330 330 330 326 323 313 312 313
315 310 310 309 308 308 308 309 308 304 307 307 304 308 309 310 311 313 314 314 314 314 314 315 315 315 315 315 316 320 322 330 329 330 330 329 329 328 330 331 330 331 329 329 326 323 311 312 313
310 309 306 305 305 304 306 308 307 306 307 305 305 308 308 310 311 311 312 313 314 314 314 314 314 314 314 314 315 316 321 325 328 330 330 328 327 328 328 328 329 330 330 329 327 320 311 312 312
308 307 304 303 303 307 306 307 308 306 306 306 304 306 310 310 311 311 311 310 312 314 314 314 314 314 314 314 313 315 317 322 325 326 330 330 327 327 327 327 329 328 329 329 326 316 311 312 311
309 308 305 306 307 308 306 310 308 306 306 307 306 308 310 310 311 311 311 311 311 311 314 313 312 312 314 314 314 314 315 316 321 323 326 328 329 326 326 326 327 328 328 327 326 312 310 310 310
310 305 306 306 304 301 306 305 304 304 306 306 307 309 310 310 312 313 313 313 312 311 313 314 314 314 313 313 312 313 314 314 316 321 324 326 327 328 326 325 326 327 325 325 322 310 309 309 309
308 306 306 299 301 307 306 306 306 307 306 306 305 307 309 310 313 315 314 314 313 311 314 314 313 312 312 312 311 311 312 314 315 316 323 325 326 326 327 325 326 325 323 320 316 308 307 307 306
309 306 305 304 304 305 309 307 303 306 307 306 305 309 311 313 315 314 314 314 313 312 311 312 312 310 310 311 310 311 312 314 315 316 317 326 327 327 326 326 326 323 322 316 309 307 305 306 307
307 308 306 303 302 302 303 308 305 305 305 307 309 310 313 315 314 314 313 312 311 312 312 310 312 312 311 310 310 310 314 316 318 319 320 325 326 326 326 325 324 320 311 308 307 303 308 306 304

GFSSGP_850_thetae_030.txt.gz
Theta_e
323 323 322 323 319 317 320 319 319 322 321 320 321 321 322 325 329 330 336 338 333 330 325 327 323 328 337 331 341 337 336 338 337 336 335 334 331 328 320 312 311 312 317 335 336 336 330 330 327
323 323 322 323 318 319 317 318 320 319 321 321 321 326 328 333 335 334 336 333 335 333 325 324 322 321 325 327 330 337 336 338 336 335 334 332 327 323 311 310 311 311 324 333 329 331 331 327 318
323 323 323 319 318 319 317 318 318 319 321 320 321 322 325 331 335 334 334 334 334 335 327 322 321 321 322 323 324 324 333 335 335 334 333 332 326 315 311 311 311 312 318 327 327 327 324 314 314
323 322 321 320 322 320 318 319 317 318 322 320 321 326 332 334 335 333 334 334 335 335 329 322 320 320 320 319 318 318 318 324 337 334 334 331 325 312 313 312 312 312 311 313 315 313 313 316 317
322 322 319 320 320 319 317 318 319 317 318 319 320 321 328 334 335 335 335 334 337 334 330 323 320 319 320 319 318 316 317 320 335 334 333 328 317 313 314 314 314 314 315 315 316 318 320 321 322
321 319 318 321 319 317 316 319 318 318 319 320 320 322 328 331 334 333 333 334 337 335 329 323 321 320 321 319 317 317 318 321 324 331 328 318 314 314 315 316 317 318 319 320 322 322 323 323 323
317 317 319 317 319 315 316 318 318 319 318 319 321 322 327 328 331 333 335 335 337 336 330 324 322 322 322 320 317 317 318 318 319 320 317 314 315 316 316 316 318 319 320 323 323 329 323 322 321
320 315 317 316 317 317 317 318 319 318 320 320 320 322 326 327 329 332 336 337 339 337 333 326 323 323 323 322 319 317 318 318 318 317 316 317 318 318 317 317 317 320 323 327 329 323 322 321 320
319 317 317 316 317 317 318 318 320 320 320 320 320 321 326 328 331 333 336 339 341 339 337 330 326 325 325 324 322 318 317 320 319 319 324 327 325 321 321 319 318 318 324 325 322 322 321 321 321
318 317 318 316 314 317 318 319 319 321 319 320 320 324 326 330 332 332 334 336 339 340 340 336 330 334 335 328 325 322 317 319 321 324 327 329 329 327 324 323 320 318 321 322 322 322 321 322 322
317 318 318 320 319 320 320 320 320 320 320 319 319 323 334 335 335 335 334 334 331 337 339 339 339 340 340 337 332 325 321 317 320 322 326 328 328 329 328 326 324 320 317 320 322 322 322 322 322
319 318 319 320 321 320 318 319 318 320 320 320 321 320 327 335 336 337 336 334 333 333 337 337 339 340 339 338 336 330 325 321 318 319 322 325 327 329 329 328 325 321 318 318 321 322 321 321 321
317 317 319 320 320 319 318 318 317 318 319 320 320 320 321 323 334 336 337 337 337 336 335 336 338 339 339 338 337 335 331 327 322 318 319 322 324 326 327 328 326 325 322 319 320 321 321 321 321
317 318 317 318 318 318 317 317 318 318 319 319 319 319 320 320 321 323 334 337 336 336 335 335 337 338 339 338 338 337 335 333 329 323 318 320 322 324 324 324 324 324 321 319 322 322 321 321 322
317 318 316 316 317 317 318 317 316 318 318 318 318 319 319 319 320 320 320 321 327 337 337 337 335 336 337 337 337 337 336 336 335 332 323 318 320 322 323 323 324 322 322 323 324 323 321 322 321
317 317 319 317 316 318 318 316 315 317 317 318 318 318 318 318 319 319 319 319 320 323 336 337 335 335 336 336 337 338 338 337 337 333 331 326 319 319 321 321 325 324 323 325 325 325 322 322 318
315 317 318 318 315 316 316 317 316 317 316 316 317 317 317 317 317 317 317 317 318 319 322 327 332 334 332 335 334 334 335 335 336 336 335 334 327 320 319 323 327 325 322 325 326 326 323 323 315
318 317 316 317 314 314 315 313 312 314 313 314 314 317 317 318 318 317 317 318 318 318 318 320 321 322 323 323 329 334 334 334 334 336 336 335 332 327 327 330 330 327 322 325 327 327 324 323 312
314 315 316 314 313 313 312 311 310 311 311 311 313 315 316 317 318 318 318 318 318 318 319 318 319 320 321 321 322 329 335 334 334 332 335 335 334 332 332 332 331 328 324 325 327 326 324 323 311
317 316 316 313 311 312 310 309 310 310 310 312 313 314 315 316 316 316 316 316 316 318 318 319 319 319 319 320 321 322 326 332 331 331 330 331 334 333 332 330 330 328 327 326 326 326 325 323 311
316 316 314 315 311 308 307 310 308 308 308 309 309 310 310 311 311 312 312 312 313 314 316 317 319 319 319 319 319 320 323 329 334 333 332 329 332 333 333 332 330 329 327 327 327 327 326 323 313
316 311 312 311 311 313 308 312 309 308 305 305 306 306 307 308 308 309 310 312 313 313 313 314 316 317 317 317 318 318 319 320 324 326 329 330 329 330 332 332 330 329 329 328 328 328 327 324 315
314 309 309 308 308 308 308 308 307 304 306 306 304 306 309 310 310 311 311 311 311 313 313 313 314 315 316 316 316 316 317 318 322 325 329 329 330 329 327 330 330 330 330 329 330 329 328 324 314
309 308 305 304 305 304 305 307 306 306 306 304 304 307 309 310 310 311 311 311 311 311 313 313 313 314 314 314 314 315 315 316 318 324 328 328 330 329 329 327 328 328 329 330 329 329 328 325 316
308 310 306 304 301 306 306 307 305 305 305 306 304 306 309 311 312 312 313 313 312 311 311 313 313 314 313 313 313 313 314 314 316 319 321 323 329 329 329 328 327 327 327 328 329 328 325 324 315
309 308 305 306 305 307 305 309 308 305 306 307 307 308 310 313 313 314 315 314 315 314 312 311 312 314 314 314 314 314 314 314 314 318 324 322 324 325 328 329 327 326 326 327 328 327 324 320 313
309 305 305 304 301 301 304 304 302 304 305 305 306 308 310 311 313 314 315 315 314 314 314 312 313 314 314 312 312 313 313 313 313 314 315 318 323 324 326 327 329 327 326 327 327 326 323 318 314
308 306 307 300 302 306 305 305 305 305 306 305 305 306 312 313 313 314 314 314 313 312 312 313 311 312 313 311 311 311 311 312 311 313 314 315 319 323 323 326 327 328 326 326 326 322 320 313 312
308 306 304 303 303 304 307 306 302 304 306 306 304 308 310 312 314 314 312 312 312 311 311 311 311 310 312 311 310 310 310 310 310 312 314 316 319 323 326 325 326 327 326 323 321 319 314 308 305
307 307 304 302 302 301 302 306 305 304 303 305 308 309 312 313 312 312 311 311 311 311 311 311 311 313 313 312 311 310 310 309 310 314 315 317 321 323 325 325 325 324 323 320 317 312 308 305 303

GFSSGP_850_thetae_033.txt.gz
Theta_e
322 323 322 323 324 322 323 322 319 323 322 319 320 321 324 324 333 335 334 337 330 329 326 338 342 338 341 339 340 341 339 339 339 337 336 333 332 331 327 317 312 318 336 339 338 337 331 329 324
323 323 322 322 323 322 321 319 321 321 320 320 320 325 326 333 334 333 336 337 333 329 327 325 332 333 336 342 338 338 336 338 336 335 334 332 328 324 311 310 310 315 334 335 336 331 329 325 314
323 323 322 324 321 322 321 317 319 319 319 319 320 322 323 330 335 334 334 332 334 330 325 322 325 325 322 331 339 338 337 337 336 334 333 330 324 311 311 311 311 312 325 329 327 328 325 314 313
323 322 320 323 324 321 319 319 318 319 320 319 320 323 330 334 335 334 334 334 334 333 326 322 320 321 321 323 326 325 334 337 337 334 333 328 320 312 312 311 311 315 323 325 324 319 313 316 315
323 322 322 322 323 320 319 318 318 319 318 319 319 321 326 334 335 334 334 334 335 334 327 322 321 320 319 319 320 320 321 335 337 336 332 327 316 313 313 313 313 312 312 313 314 315 319 320 320
321 319 322 325 323 318 317 318 318 318 318 319 319 320 326 332 335 333 334 334 337 335 330 323 321 320 319 319 318 317 317 320 338 332 332 323 314 314 315 315 315 316 317 318 320 322 322 322 322
320 321 323 321 323 320 317 318 317 318 318 319 320 321 324 329 332 333 333 335 336 336 331 325 321 320 320 319 317 317 318 321 336 334 331 317 315 315 316 317 318 319 321 323 324 327 323 322 320
319 319 320 318 321 321 316 317 318 318 318 319 320 321 323 329 331 332 334 335 336 336 332 326 322 321 322 321 318 317 318 318 320 329 324 315 316 316 316 317 319 321 324 327 330 323 322 320 319
318 320 320 321 317 318 316 316 319 318 319 320 319 319 323 328 331 332 334 334 336 337 334 329 324 323 324 323 321 318 317 318 318 319 317 316 317 318 318 318 318 321 329 330 326 322 321 321 321
318 319 319 316 316 316 317 319 319 320 319 319 319 324 324 326 333 332 333 331 333 336 335 332 327 325 325 325 324 322 317 318 318 318 319 323 322 320 320 320 318 318 327 323 322 322 321 321 322
317 319 317 318 316 318 318 319 319 319 319 319 319 323 331 331 340 336 334 336 334 336 337 337 331 327 329 331 329 325 322 318 319 319 323 327 328 327 325 323 322 319 317 320 321 321 321 321 321
319 318 318 319 320 320 319 319 318 319 319 320 320 320 321 333 338 341 338 338 338 336 337 339 338 336 338 338 337 334 327 323 318 319 321 325 327 328 328 327 325 322 319 317 319 321 321 320 321
317 317 319 319 319 319 318 318 318 318 318 319 319 319 320 322 330 335 337 339 340 336 335 336 338 338 339 338 338 337 333 328 323 318 320 322 325 327 328 328 327 325 321 319 318 319 320 320 321
317 317 317 318 318 318 317 317 317 318 318 318 318 318 319 319 320 323 330 335 336 336 336 336 336 337 338 338 338 337 336 334 330 325 320 319 322 324 325 328 328 327 324 322 319 319 321 320 321
316 317 316 316 316 317 317 316 316 318 318 317 317 317 318 319 319 320 321 321 330 335 335 336 336 337 337 338 338 337 337 336 335 333 328 322 319 322 324 325 325 324 324 323 319 321 322 321 321
317 317 320 317 316 316 316 316 315 317 317 317 317 317 317 317 317 318 319 319 319 320 323 328 335 337 336 335 335 337 337 337 336 335 334 332 324 319 321 323 323 323 323 323 322 324 324 321 322
316 317 317 318 316 316 317 318 315 316 315 315 316 317 317 317 316 316 317 317 318 318 318 320 323 332 336 333 333 335 335 333 334 336 336 334 331 325 319 320 322 321 324 324 324 325 325 323 323
318 317 317 317 314 314 316 316 314 315 313 313 314 315 317 317 318 317 316 317 317 316 317 317 319 325 335 336 335 332 331 333 333 332 333 336 334 333 330 321 320 321 325 326 324 326 326 324 323
314 315 316 314 312 313 313 312 312 312 311 311 313 315 316 316 316 316 316 316 316 317 318 318 318 318 322 324 326 324 323 327 331 331 332 332 333 334 333 327 320 323 328 327 322 326 326 325 323
315 315 315 314 311 312 310 311 311 311 311 311 311 311 311 311 311 311 311 312 314 315 315 316 317 318 318 320 321 321 322 322 324 330 330 331 330 330 333 331 326 328 330 327 323 325 325 325 323
316 316 314 315 311 308 308 312 310 309 307 307 305 305 306 307 308 310 310 311 312 312 313 314 316 317 319 319 318 319 319 321 322 324 329 330 329 328 329 330 330 330 330 327 326 326 325 325 325
318 312 312 311 312 316 308 316 310 307 306 305 305 308 309 310 311 311 312 311 311 312 313 313 313 316 317 318 318 318 318 320 320 321 322 325 330 330 329 329 331 329 329 328 327 326 326 326 326
315 309 309 308 309 308 309 311 309 305 307 305 304 307 309 310 311 313 313 312 312 311 312 312 312 313 314 315 316 317 318 318 318 319 321 322 325 331 331 329 328 330 329 328 328 327 327 327 327
308 307 306 305 306 310 306 308 308 306 306 306 304 307 310 312 313 314 314 314 313 312 311 311 313 312 313 314 314 315 316 316 316 316 317 318 320 327 330 330 328 329 328 328 328 328 328 328 328
310 313 312 308 309 314 306 308 308 305 305 305 305 307 311 312 313 314 315 315 314 314 313 312 311 312 313 313 313 313 313 314 317 316 316 319 319 321 322 327 328 328 328 327 327 328 328 328 327
309 311 311 312 308 308 305 310 309 305 305 305 306 308 311 313 313 314 314 314 313 313 314 314 313 311 311 313 313 313 312 312 313 313 314 315 318 322 324 323 325 328 328 328 326 327 328 327 326
309 309 304 305 301 306 305 304 303 305 304 305 306 308 310 312 313 314 314 313 313 313 312 312 312 313 312 313 313 313 313 313 314 314 314 315 318 320 322 325 324 325 326 327 327 326 327 326 324
308 305 309 303 306 309 305 305 307 305 306 306 305 306 309 311 312 313 313 312 312 312 311 311 311 311 312 311 312 311 311 311 312 312 312 313 314 316 320 325 326 325 326 327 328 327 326 323 320
308 308 304 304 305 308 308 306 303 305 306 306 305 308 309 311 313 311 311 311 311 311 310 310 311 311 311 312 312 312 311 310 310 310 310 311 312 314 319 322 325 326 326 326 326 325 324 321 316
307 307 305 307 305 303 305 308 304 304 303 304 306 308 309 312 311 310 310 309 310 310 310 310 309 310 311 311 310 310 310 310 309 310 310 313 315 315 318 321 322 323 324 324 322 322 321 321 310

GFSSGP_850_thetae_036.txt.gz
Theta_e
322 322 323 324 327 325 325 324 324 326 326 322 322 325 327 328 333 335 333 336 337 340 342 332 342 343 341 337 343 340 338 339 339 337 337 337 335 332 330 320 313 335 333 338 337 335 328 327 320
322 323 323 325 326 327 325 324 324 325 324 322 322 323 330 333 336 339 340 337 336 342 342 339 335 328 338 341 341 339 339 339 339 337 334 331 329 326 313 310 316 336 337 338 337 332 325 319 311
323 323 325 326 327 327 325 323 322 323 321 322 323 323 325 333 338 341 336 336 340 342 342 341 328 336 343 342 339 339 339 339 337 335 333 328 324 311 310 311 314 331 335 335 335 326 321 313 312
323 323 323 327 327 326 324 324 322 323 323 322 322 326 330 333 337 340 333 334 341 342 341 330 331 341 342 341 340 339 340 339 338 335 332 324 316 311 311 311 312 315 324 329 325 321 313 315 317
323 325 327 327 326 325 324 322 322 323 322 322 322 325 329 334 335 334 335 336 342 341 340 330 330 329 328 331 332 339 337 337 337 335 330 322 313 312 312 311 313 317 322 321 315 314 317 318 320
324 325 327 328 326 325 324 322 322 322 321 321 323 324 329 331 335 335 335 339 341 341 339 337 332 330 324 326 325 325 333 338 337 336 330 321 313 313 314 313 313 313 314 315 318 320 321 322 322
326 327 328 326 326 325 324 322 322 322 321 320 322 325 327 336 333 334 334 341 340 341 339 334 329 324 322 321 320 319 321 330 338 336 332 319 314 315 315 316 316 317 319 321 327 325 323 322 320
323 327 328 327 327 326 323 321 321 320 320 320 320 324 326 335 332 333 335 335 339 341 340 338 338 329 322 322 320 317 319 323 336 335 333 318 315 315 316 318 319 320 323 325 330 324 322 320 319
320 327 328 327 326 325 320 321 319 319 319 320 321 322 326 326 332 334 336 336 339 338 339 338 336 332 330 335 323 319 318 321 332 333 332 322 327 318 317 318 319 321 324 330 325 322 321 320 321
321 326 325 324 324 323 320 319 320 321 321 321 321 322 322 323 331 335 337 337 337 337 336 336 336 333 330 328 330 322 321 321 325 327 324 329 331 331 329 318 318 321 329 329 323 321 321 321 321
319 322 322 320 321 319 320 320 321 321 322 321 321 322 330 328 330 337 338 336 336 337 336 333 331 331 329 327 330 331 330 327 331 331 330 331 331 329 328 328 320 319 324 325 322 321 321 321 321
320 318 319 319 320 320 320 320 320 320 320 320 321 320 321 335 336 338 340 337 337 337 336 337 336 331 327 330 331 333 331 328 328 330 330 332 332 331 331 331 330 329 325 326 321 321 321 321 320
319 320 319 319 320 321 320 321 320 320 320 320 320 319 321 322 330 338 337 336 334 336 337 337 338 337 333 335 337 337 335 331 326 322 324 331 331 331 332 333 332 330 329 325 318 320 320 320 320
319 319 319 319 319 319 321 321 320 320 319 319 319 318 319 320 321 323 332 338 340 339 337 335 336 337 338 338 338 338 337 336 332 329 323 321 327 328 330 331 332 330 328 323 320 319 319 320 320
319 320 320 319 319 319 319 320 320 319 319 318 318 318 318 318 320 320 322 324 328 335 339 340 335 335 335 336 338 338 337 336 336 334 330 324 322 326 329 330 329 330 328 326 323 320 319 321 320
320 319 321 319 319 318 318 319 317 317 318 317 317 317 317 317 317 319 319 319 319 320 323 331 334 332 335 336 336 335 336 337 337 336 335 333 328 322 322 330 329 328 327 324 324 321 321 322 321
319 318 318 318 318 318 318 317 317 316 317 317 317 317 317 317 317 316 316 317 318 318 319 319 321 324 324 329 335 335 332 333 336 336 336 335 335 333 326 326 329 328 326 324 324 322 323 323 323
317 316 317 316 317 319 319 317 318 318 317 316 316 316 316 317 317 318 317 317 316 316 317 317 317 318 321 331 329 335 333 330 333 334 333 334 335 334 332 327 323 327 325 323 324 324 324 324 324
317 316 316 316 315 317 317 318 317 316 316 316 316 316 316 316 316 314 315 316 316 317 317 317 317 317 318 330 329 330 335 332 331 329 333 333 332 333 334 333 331 325 321 322 322 325 324 325 325
317 316 317 316 314 316 317 317 317 316 316 315 314 314 314 314 312 310 311 312 313 315 316 316 317 317 318 318 326 324 330 333 333 327 326 331 331 330 331 332 333 331 324 321 322 327 325 324 325
318 317 318 317 315 313 314 317 316 311 310 308 308 307 308 310 312 312 313 312 311 312 312 314 315 316 317 317 318 325 327 325 325 324 323 324 328 330 331 329 331 331 330 324 325 329 326 323 325
319 316 316 315 317 318 313 318 316 312 309 311 310 310 311 311 312 313 314 313 312 311 312 312 313 313 314 316 316 324 329 325 320 321 321 321 322 329 331 329 331 330 329 329 328 329 327 324 325
316 314 314 313 316 315 314 317 314 310 311 311 311 311 311 311 312 313 314 314 313 313 312 311 312 313 312 313 315 321 328 328 328 328 322 319 319 322 327 328 328 329 329 329 328 329 327 326 326
310 312 311 312 314 321 314 314 313 311 311 311 310 310 312 312 312 313 315 314 314 314 314 313 312 312 312 312 312 314 322 327 328 329 329 326 323 319 320 324 326 327 329 329 327 328 328 327 326
312 317 321 321 322 322 309 311 313 309 309 310 310 310 312 312 312 314 315 314 314 314 314 314 314 313 311 313 312 312 313 317 327 328 328 327 324 318 318 319 322 325 327 328 328 328 328 327 327
315 318 321 320 316 314 308 312 312 309 308 307 308 309 310 312 313 314 314 314 313 313 313 313 313 313 313 312 312 313 313 312 312 317 323 326 327 325 316 320 324 325 326 326 327 327 327 327 327
313 317 308 312 308 314 312 310 308 308 307 308 309 310 312 312 313 314 313 312 312 312 311 311 311 311 311 312 311 312 312 312 312 313 314 313 318 321 321 318 323 327 327 327 327 326 326 327 327
312 309 315 314 317 317 311 309 311 310 310 310 311 311 312 312 314 313 311 310 311 311 311 310 310 310 311 311 312 311 312 312 311 311 312 313 314 317 317 318 318 322 326 326 325 326 326 326 326
311 313 310 311 311 314 311 311 310 311 311 311 311 312 311 313 313 310 308 308 309 310 310 310 310 310 310 311 311 311 311 311 311 310 310 311 312 312 314 316 318 320 321 323 324 324 324 323 323
310 312 310 314 313 310 312 312 309 310 309 309 311 311 312 313 310 308 306 307 308 309 310 309 309 309 310 310 311 311 310 310 310 310 310 311 312 313 314 315 320 321 322 323 322 322 322 322 322

GFSSGP_850_thetae_039.txt.gz
Theta_e
322 325 325 326 328 327 328 326 325 327 326 325 325 326 327 328 334 339 342 344 342 346 343 335 344 340 338 336 340 340 338 341 340 338 338 337 336 333 329 319 318 334 334 338 337 332 325 319 314
327 327 325 327 328 331 328 327 325 326 326 325 325 325 326 329 337 344 345 342 343 345 342 341 341 343 340 341 342 339 338 340 339 337 337 332 329 325 311 312 336 338 338 338 335 330 323 312 311
323 326 326 327 329 329 329 326 324 325 324 325 326 326 328 335 339 342 345 342 344 344 342 341 334 339 339 341 342 339 340 340 339 336 333 327 322 311 310 312 336 336 337 336 334 327 315 312 315
326 324 325 329 329 328 328 325 323 325 325 324 325 327 330 337 340 343 343 342 344 343 343 339 325 335 339 341 340 340 339 339 338 335 330 322 313 311 311 311 318 331 335 334 331 320 314 314 319
326 325 328 328 327 327 327 324 323 325 325 325 324 327 333 342 341 344 343 343 343 343 343 338 331 343 341 341 339 339 340 339 338 335 330 321 312 312 311 312 313 316 324 323 318 314 317 318 320
325 325 329 329 327 326 326 324 323 324 325 323 324 326 335 342 343 344 344 344 343 342 342 338 335 338 339 340 338 338 339 339 338 336 331 320 312 313 312 312 315 318 317 315 316 319 320 321 321
326 328 329 329 327 327 326 325 324 323 324 324 323 326 332 341 343 343 344 344 343 342 341 338 328 333 330 333 336 331 332 339 338 336 333 321 313 314 314 314 314 314 316 319 323 322 321 320 319
325 328 329 329 327 326 326 324 323 323 323 323 322 325 328 339 336 335 344 344 344 343 341 340 335 330 325 323 322 323 323 331 338 336 334 326 314 315 316 316 317 318 320 324 328 322 321 320 319
323 328 331 330 328 326 325 325 323 322 322 321 321 324 332 338 330 333 335 338 344 343 342 340 339 338 336 335 322 320 318 324 335 336 334 318 319 316 316 318 319 319 322 330 328 322 321 320 320
323 329 329 327 326 326 325 323 323 322 321 321 322 324 333 337 326 335 336 337 344 343 342 341 339 337 336 336 334 322 331 331 333 337 334 330 331 327 325 322 320 321 326 329 326 321 321 321 321
320 324 325 325 324 324 324 322 321 322 322 321 321 323 331 336 337 337 338 339 341 344 341 341 340 338 336 336 337 334 333 333 334 335 335 332 332 332 330 328 318 321 326 328 325 321 321 320 319
321 320 321 322 321 321 322 322 322 321 321 321 322 323 324 334 336 338 340 341 342 339 340 337 340 339 337 336 336 336 334 334 334 334 333 332 333 333 332 332 330 326 328 331 326 323 321 320 320
320 320 320 320 320 320 320 321 321 321 321 322 322 321 322 323 331 337 339 340 340 341 337 337 336 337 339 337 337 337 337 335 334 333 333 333 334 334 333 332 332 331 330 330 328 324 320 320 320
320 320 319 319 320 321 321 320 320 320 321 321 320 320 320 321 323 325 335 339 340 340 341 337 337 337 338 334 336 340 339 338 335 334 333 332 333 334 334 334 333 332 331 330 328 324 320 317 318
320 320 320 319 319 320 320 321 322 321 321 320 320 320 319 319 320 322 324 328 336 338 341 342 340 335 335 336 336 337 340 340 338 336 334 332 331 332 333 333 332 333 333 331 328 325 320 317 317
320 320 321 320 319 319 320 321 321 320 320 320 320 319 319 318 318 318 321 323 324 325 329 337 341 341 340 338 337 335 337 340 340 338 337 334 333 331 331 332 332 333 334 332 329 325 320 318 319
320 319 320 319 319 320 320 320 320 318 318 319 319 318 318 318 318 317 317 320 321 322 323 323 327 335 340 341 339 335 335 336 339 340 338 337 335 333 331 331 332 330 332 331 329 325 321 320 319
318 318 318 318 319 319 320 319 319 317 317 317 317 317 317 317 317 318 318 318 319 319 320 321 321 322 329 335 338 336 330 333 334 336 339 338 336 335 333 331 331 332 331 331 328 324 322 321 320
315 317 316 316 317 318 318 318 318 317 317 317 317 317 317 317 317 318 316 316 316 316 317 318 319 320 321 325 332 336 330 323 328 332 332 340 338 336 335 334 332 331 331 329 328 324 322 322 320
317 316 316 317 316 316 316 317 317 317 317 316 316 317 317 317 316 315 313 314 313 314 315 316 317 318 318 318 322 330 329 322 322 326 332 331 332 334 336 334 333 332 331 330 329 325 322 322 324
316 316 316 316 317 316 317 316 317 316 314 314 311 311 312 313 314 314 315 315 315 314 312 313 314 315 317 317 318 320 330 334 332 326 327 329 334 333 336 334 334 333 331 331 330 327 323 322 324
316 316 317 317 317 315 316 314 318 315 312 312 312 313 313 313 314 315 316 316 316 314 312 312 312 312 313 314 316 318 323 330 333 333 332 330 328 328 333 333 334 333 332 331 330 329 326 322 324
318 317 317 317 318 318 318 318 317 314 312 313 313 313 313 314 314 315 316 316 317 315 313 312 312 311 312 312 312 313 316 322 329 331 331 330 331 325 323 331 335 332 331 330 329 328 328 325 323
315 316 316 316 317 322 319 317 316 314 313 313 313 313 314 314 315 316 317 317 317 316 314 314 314 313 312 312 312 312 313 321 326 329 329 329 330 331 329 326 331 334 330 329 328 328 328 327 324
316 318 321 321 323 321 313 315 317 313 313 313 312 313 314 314 315 316 317 317 316 315 314 314 314 314 314 313 313 314 313 314 321 325 328 329 330 330 329 327 331 334 332 332 329 327 327 328 325
317 318 323 321 322 320 310 314 314 312 311 311 311 312 313 314 315 316 316 315 315 314 314 314 314 314 314 314 313 313 314 315 315 314 319 326 328 328 328 327 324 326 329 328 328 328 326 326 326
316 318 313 315 311 315 313 313 311 310 310 310 311 312 314 314 315 316 315 313 313 313 313 313 313 313 313 313 313 314 314 315 315 314 316 319 322 324 326 326 327 322 323 327 325 326 325 325 325
314 313 318 317 321 317 314 313 313 311 310 311 312 313 314 314 316 315 313 312 312 312 312 312 311 311 311 311 312 312 313 314 314 312 312 315 317 316 322 323 325 324 325 326 326 325 324 324 323
312 315 314 314 314 319 315 313 313 312 312 312 312 313 314 315 315 313 311 310 311 310 310 309 309 309 309 309 310 311 312 313 313 311 311 311 310 310 312 317 322 322 322 323 321 321 322 321 320
312 314 315 317 317 313 314 314 311 313 312 311 313 313 314 315 313 311 309 308 308 307 307 307 307 307 308 309 309 310 311 313 314 311 310 311 312 312 313 314 314 315 318 318 318 317 317 317 316

GFSSGP_850_thetae_042.txt.gz
Theta_e
322 322 328 326 328 327 329 326 325 326 325 325 325 325 324 326 341 346 342 342 343 341 331 328 332 338 338 336 342 338 341 340 339 338 338 333 335 331 325 315 331 332 337 337 333 324 318 313 312
322 329 326 325 329 329 327 326 325 324 325 325 325 325 325 337 342 342 345 343 347 344 335 334 332 335 334 337 341 337 341 339 339 336 336 331 327 321 311 334 338 337 338 336 334 323 312 310 312
322 328 327 327 328 329 329 326 323 325 324 325 326 325 327 339 342 344 346 343 346 345 339 337 342 342 337 340 339 338 340 339 338 335 333 325 316 310 311 336 336 337 336 334 333 320 312 314 317
322 326 325 328 328 327 327 324 324 325 324 325 325 327 335 339 342 343 342 344 345 343 342 337 336 339 340 343 341 339 339 339 337 336 330 319 311 311 311 324 332 336 335 334 327 315 314 318 319
325 326 326 327 328 326 326 324 323 324 325 325 325 328 340 342 344 343 343 344 344 343 343 340 331 338 341 340 339 338 339 339 337 334 328 317 312 311 311 311 318 327 327 325 318 316 317 319 320
325 325 328 328 327 325 325 323 323 324 325 324 324 330 342 342 344 343 343 343 343 343 343 339 329 340 340 341 340 339 339 338 337 335 329 317 312 312 312 313 314 318 321 317 315 319 319 320 320
325 326 326 328 328 326 325 325 323 323 323 324 324 325 341 345 344 344 344 343 342 342 341 333 325 333 338 341 339 339 339 339 337 335 331 320 313 313 313 313 315 315 315 316 319 320 320 319 319
325 326 328 326 328 328 325 325 324 323 322 323 323 327 341 344 339 344 344 344 343 341 341 338 326 325 324 324 328 334 333 338 338 336 330 324 314 314 315 315 315 316 318 319 321 320 320 319 319
325 327 328 329 328 328 325 325 324 323 322 322 322 329 337 343 331 339 344 344 344 342 341 340 335 331 325 323 323 324 324 328 336 336 334 322 314 315 316 317 318 318 319 321 323 320 320 319 320
324 327 328 326 327 327 326 325 324 323 322 322 322 325 334 335 329 331 337 341 344 343 341 340 340 338 335 335 328 320 318 320 329 334 332 322 316 318 316 317 319 320 321 324 324 320 320 320 320
322 325 325 327 327 324 325 324 323 322 321 321 321 325 334 337 328 329 331 335 344 343 342 340 339 338 336 337 336 328 322 322 325 331 331 330 327 332 327 322 320 319 320 322 324 320 320 320 319
321 321 322 323 323 322 322 323 322 322 322 321 322 324 329 335 337 336 332 338 335 336 342 341 340 338 336 335 336 333 331 331 329 331 333 331 329 332 332 329 324 317 318 321 321 321 320 319 320
321 320 320 320 320 320 321 322 321 321 321 322 322 322 322 325 333 336 338 340 341 341 336 338 340 339 337 336 335 336 336 334 333 332 332 333 331 332 332 330 331 328 326 328 330 326 322 319 320
319 320 320 319 320 320 320 320 320 321 321 321 321 321 321 322 323 328 337 338 340 340 340 335 334 336 337 337 337 337 337 337 336 334 333 333 332 333 333 330 331 332 330 330 330 328 323 320 318
319 320 319 319 320 320 320 320 319 320 320 321 321 320 320 320 320 321 323 330 339 339 340 339 334 334 336 339 336 338 339 338 338 337 334 333 332 333 334 334 332 332 330 331 331 329 325 321 318
320 319 321 319 319 319 320 320 319 320 321 321 321 320 320 319 319 319 320 322 324 332 335 341 341 339 336 336 335 335 338 340 339 338 337 335 334 331 332 333 332 333 333 329 331 330 326 323 319
320 320 320 320 319 319 319 320 319 320 320 320 320 320 320 319 319 318 318 318 321 323 325 327 331 339 341 339 338 335 333 337 339 339 338 337 336 335 333 331 332 331 332 329 331 331 329 325 320
321 320 318 319 319 319 319 319 318 318 318 317 318 318 318 318 318 318 318 317 317 319 320 321 322 324 331 337 339 339 338 333 333 336 337 339 335 336 335 333 331 331 331 332 330 330 330 327 321
317 317 317 317 318 318 319 319 318 318 317 317 317 317 317 317 317 317 317 318 318 318 318 319 320 320 321 321 330 336 336 331 331 327 331 332 337 337 335 333 333 331 331 332 330 330 330 326 321
316 315 316 316 317 317 316 317 316 315 316 317 317 317 316 316 316 316 316 315 316 315 315 316 317 318 319 320 320 325 330 333 330 327 325 325 330 335 336 333 331 331 332 332 332 330 329 327 322
314 315 315 316 316 316 315 315 314 315 316 316 315 314 315 315 315 314 314 315 315 314 313 313 315 316 317 318 319 319 321 322 333 331 324 320 322 329 330 335 334 330 331 331 331 331 330 329 324
316 315 315 316 316 316 314 310 314 315 314 312 312 311 312 313 314 315 316 316 316 315 312 311 312 312 312 314 316 317 318 318 321 331 331 329 327 324 325 331 334 336 332 330 330 330 330 329 327
317 316 317 317 317 317 316 315 316 312 311 311 311 313 313 314 315 315 316 316 317 316 314 313 313 312 312 312 312 312 313 315 317 324 329 332 331 329 326 328 330 333 333 333 329 329 329 328 328
317 316 316 316 316 317 317 315 314 314 312 311 312 313 313 314 314 316 316 317 317 316 315 314 314 314 314 314 313 312 312 312 312 317 322 328 330 330 330 329 329 329 330 330 330 331 329 328 327
316 316 317 318 317 316 313 316 314 312 311 311 311 313 314 314 315 316 317 317 316 315 315 314 314 314 314 314 314 313 314 315 313 314 324 326 326 329 329 328 329 328 327 328 328 328 328 326 326
316 315 317 318 318 315 311 314 313 310 312 312 312 313 313 314 315 316 317 315 314 314 314 313 313 313 313 313 313 314 314 314 314 315 314 318 324 326 327 327 326 327 328 326 325 326 326 326 326
317 315 311 314 311 312 311 311 310 309 309 310 311 312 313 314 315 316 315 314 313 313 313 312 312 312 312 311 311 312 313 314 314 314 314 315 316 318 322 325 325 325 325 327 323 323 323 323 324
314 312 317 313 316 316 312 311 310 309 309 308 309 312 314 314 315 316 314 312 311 312 312 311 310 310 310 310 310 310 312 313 314 314 313 313 313 315 316 315 318 323 322 323 322 322 322 322 323
314 314 314 312 313 316 314 311 310 309 308 308 310 313 314 314 316 314 312 310 310 310 310 309 308 309 308 308 309 309 311 312 314 313 311 310 311 311 311 310 312 315 318 319 319 319 320 320 321
314 315 315 315 315 310 311 311 310 308 309 311 312 313 314 315 314 312 310 309 308 308 307 307 307 307 307 308 309 309 310 312 312 312 310 310 310 311 311 312 312 313 314 318 318 316 316 316 317

GFSSGP_850_thetae_045.txt.gz
Theta_e
322 322 327 327 323 321 325 325 322 324 322 324 325 323 326 333 341 343 342 342 342 335 324 327 337 338 338 338 338 340 340 338 338 337 333 331 334 327 317 328 333 337 337 333 326 315 311 312 311
322 323 328 326 324 325 324 322 322 322 324 324 324 324 333 341 340 341 342 345 343 336 330 329 332 335 339 340 338 341 340 339 338 334 333 328 324 313 336 337 334 339 337 334 327 312 310 312 312
323 325 328 322 323 326 325 323 320 322 324 325 325 325 336 339 344 343 344 346 345 337 332 329 330 331 333 341 337 340 339 338 335 334 329 321 312 313 336 336 338 337 334 332 322 312 314 316 317
324 326 325 324 326 324 325 323 322 322 324 324 325 334 337 341 342 344 344 346 346 341 334 334 342 332 337 336 337 340 339 339 335 332 323 313 310 311 331 333 335 335 333 330 317 314 317 319 319
324 324 324 324 325 324 322 324 323 322 323 324 324 333 342 343 337 342 344 345 344 341 337 334 341 337 343 342 339 341 339 338 335 332 321 312 311 311 312 326 328 331 330 321 315 316 318 319 319
324 324 326 327 324 324 323 323 323 322 323 323 330 339 342 343 341 343 344 344 343 342 342 340 335 339 342 340 339 339 338 337 336 332 323 313 312 312 312 312 317 318 321 315 317 318 319 319 319
324 325 326 325 326 326 325 324 321 322 322 323 323 336 343 343 342 343 343 343 343 343 342 341 335 336 340 340 340 339 339 337 336 330 326 315 313 313 313 314 315 317 315 316 318 319 319 318 318
324 324 325 325 326 327 325 323 323 322 321 323 326 334 342 344 343 343 343 342 342 342 340 335 328 333 336 336 338 336 339 337 336 334 326 318 313 314 314 314 315 315 316 318 319 319 318 318 318
325 327 327 326 326 326 325 325 323 322 322 323 333 337 340 343 343 343 343 342 342 341 340 339 327 326 326 325 325 324 330 335 335 332 320 321 315 315 315 315 316 317 318 320 320 319 319 319 319
325 327 326 325 324 325 325 326 323 322 322 324 333 338 338 336 344 344 343 343 343 341 340 340 335 332 325 323 322 321 322 323 327 326 325 320 315 315 316 316 317 318 318 320 321 319 319 319 320
323 325 324 323 322 324 325 325 325 321 320 321 332 326 328 329 332 340 343 343 343 342 341 340 338 338 335 327 329 324 319 318 319 324 325 326 316 318 317 316 318 318 318 319 321 319 319 319 319
321 323 323 324 324 326 325 324 322 322 321 321 321 325 329 328 330 328 336 342 343 342 341 340 339 338 337 333 332 332 326 322 321 322 326 328 326 324 328 327 324 321 318 319 322 321 320 319 319
320 320 322 322 321 322 322 324 321 320 321 321 326 332 332 333 334 334 332 332 340 342 342 340 339 338 337 336 334 331 330 329 329 327 328 329 330 327 331 331 329 325 322 318 320 322 321 320 319
320 320 320 319 320 320 320 322 321 320 321 321 321 321 322 324 326 333 337 336 339 339 338 340 339 339 338 336 335 334 334 334 335 334 332 331 331 330 331 331 330 329 329 326 326 326 327 323 319
318 320 319 319 320 319 319 320 321 320 320 321 320 320 320 320 322 323 328 335 337 336 336 335 335 335 336 336 337 335 335 337 337 337 336 333 332 331 331 332 332 331 330 329 329 329 329 328 323
319 317 320 318 318 319 318 319 317 320 319 320 320 320 320 320 319 319 320 321 328 336 338 338 339 339 336 335 335 336 337 337 337 337 338 337 334 333 331 332 333 332 331 333 331 329 330 330 326
318 319 319 319 317 318 318 318 318 319 318 320 320 320 320 320 319 319 318 319 320 323 326 330 335 337 338 339 339 336 335 339 338 337 338 337 336 336 334 332 330 330 331 332 333 331 329 329 328
319 318 318 318 318 318 318 317 317 318 318 319 320 320 319 319 319 318 318 318 318 319 323 323 322 323 326 333 337 338 337 336 337 338 337 336 336 337 337 335 334 331 330 330 331 332 329 329 329
317 317 317 317 317 318 318 318 318 317 316 316 316 317 317 317 317 317 317 318 318 317 318 321 321 321 322 331 335 336 335 334 332 333 334 333 332 334 336 335 335 334 333 332 331 331 331 329 329
316 316 315 315 317 318 316 317 316 317 315 317 317 317 317 316 316 316 317 317 317 318 317 318 319 319 320 320 320 321 324 328 331 330 330 330 330 331 330 332 336 335 334 333 332 331 331 330 329
314 312 313 315 315 315 314 313 314 314 315 316 317 316 316 316 314 314 314 315 315 316 316 315 315 316 317 318 319 319 320 320 321 324 327 327 328 326 327 329 329 334 334 334 332 331 329 330 330
315 312 314 315 315 316 313 313 309 313 313 312 313 313 314 314 314 315 315 315 315 314 313 312 312 312 313 314 316 317 318 318 319 319 319 321 325 325 326 326 328 328 328 331 333 332 331 329 328
314 314 315 314 314 315 315 312 311 310 312 310 309 311 312 314 314 315 315 315 315 314 314 313 312 312 312 312 312 312 312 314 316 316 317 321 326 328 326 327 325 327 327 328 330 330 332 329 329
314 314 313 313 313 311 314 313 312 311 312 309 309 312 313 314 315 315 315 316 317 316 316 314 314 314 314 314 313 313 312 312 312 312 312 314 319 323 327 327 326 327 328 328 328 327 329 331 329
315 314 316 315 310 312 310 313 314 311 309 309 309 312 313 313 314 316 317 317 316 316 315 314 314 314 314 314 314 314 313 313 314 314 313 312 320 325 327 329 328 328 327 327 327 326 325 326 328
316 314 314 315 313 314 310 313 313 308 310 311 312 313 313 314 315 315 316 316 315 314 314 313 313 313 313 313 313 313 313 314 313 314 314 314 314 319 321 324 324 325 326 325 325 326 325 324 325
316 316 313 312 311 308 310 309 308 308 310 311 311 313 313 314 315 316 316 315 314 313 313 312 312 312 312 311 311 311 311 312 313 313 314 314 314 314 315 319 322 323 322 324 323 322 322 322 321
314 312 315 310 315 313 310 310 310 307 308 309 309 311 313 314 315 315 315 314 312 311 312 311 311 310 310 310 309 309 310 312 312 312 313 313 313 313 313 314 316 316 316 319 321 321 320 320 319
314 315 313 312 310 313 310 309 307 307 307 307 308 312 313 314 315 315 314 312 311 310 310 310 309 309 309 308 308 308 309 311 312 312 312 310 310 310 311 311 311 311 312 316 316 314 317 317 318
314 314 313 311 313 307 307 309 307 306 306 307 310 312 313 314 315 314 312 311 309 309 308 308 308 308 308 308 308 309 309 310 311 310 311 310 310 310 310 310 310 310 310 312 313 315 315 315 313

GFSSGP_850_thetae_048.txt.gz
Theta_e
322 322 323 325 322 320 324 324 319 322 322 324 324 334 336 335 339 335 341 341 341 341 326 334 340 338 340 338 336 337 339 338 336 334 331 329 329 320 324 332 337 337 332 327 312 310 312 315 319
322 323 325 325 323 324 323 320 323 320 323 323 324 330 336 342 341 342 343 342 341 339 326 333 342 339 337 338 340 339 337 337 335 332 325 323 320 325 333 334 339 337 334 324 311 310 311 312 315
322 322 326 321 322 324 324 322 318 322 323 324 323 334 338 342 341 342 341 342 342 331 327 337 340 342 340 337 340 339 339 337 333 324 319 315 313 336 337 337 338 336 330 322 312 314 314 313 313
324 325 323 323 326 323 323 322 323 321 323 324 328 336 340 341 342 342 342 343 343 333 331 339 341 336 338 337 338 339 339 335 330 325 315 311 315 334 335 338 336 331 328 318 314 317 318 318 317
323 324 324 323 324 323 321 323 322 321 322 323 327 336 342 342 343 342 344 344 344 335 333 335 336 332 338 336 338 339 338 337 328 329 315 311 311 315 324 328 330 328 324 316 315 317 318 319 319
323 323 325 326 325 323 322 324 322 321 321 327 338 340 342 341 343 343 345 345 344 338 336 336 336 336 340 336 340 339 338 338 332 329 317 312 311 311 315 318 319 321 319 315 317 317 318 318 318
323 323 324 324 325 325 325 325 319 320 321 321 337 337 342 342 342 343 344 343 342 340 338 336 335 340 343 340 339 339 338 336 333 327 319 312 312 312 312 313 315 317 316 316 318 318 318 318 318
322 322 323 324 325 326 325 325 325 321 320 327 334 339 342 342 343 343 343 343 342 342 342 341 336 336 335 337 339 338 337 337 334 326 318 314 313 313 314 315 316 316 315 318 318 318 318 318 317
323 326 324 324 325 324 325 324 326 322 323 325 333 339 340 342 342 343 343 343 342 341 340 336 336 330 326 328 332 337 338 336 334 330 320 315 314 314 314 315 315 315 317 319 319 319 318 319 318
324 325 324 322 322 324 325 325 324 324 322 336 340 341 342 342 343 342 342 341 341 341 339 339 328 326 325 325 325 325 334 334 332 326 326 320 316 315 315 316 316 317 318 321 321 319 319 319 319
325 324 323 323 323 323 324 325 324 322 319 329 337 341 342 340 340 342 342 341 341 341 339 339 334 330 325 322 323 323 323 324 325 327 325 326 317 315 315 316 317 317 318 319 322 321 319 319 319
324 324 323 323 324 324 324 324 324 324 320 321 322 325 331 333 335 339 342 342 342 341 340 339 338 337 336 331 328 328 324 320 319 321 323 324 325 317 318 318 318 318 318 318 320 321 320 319 319
320 322 323 323 324 324 323 324 324 323 323 321 323 331 329 329 327 332 341 342 342 341 341 340 338 337 336 336 332 330 329 325 324 323 322 325 327 325 323 325 327 327 323 320 318 320 321 321 319
322 320 321 322 323 324 323 323 323 323 322 324 331 334 333 333 334 334 333 337 343 342 341 340 338 337 336 335 335 333 330 330 331 332 331 330 329 328 327 327 328 330 329 327 325 322 323 325 323
320 321 319 318 320 319 321 322 324 322 321 320 325 322 322 322 323 328 333 336 335 335 338 340 340 338 337 336 335 334 333 332 333 335 335 335 333 331 330 329 329 330 331 330 328 327 326 326 327
317 317 320 318 318 319 318 321 321 323 321 318 320 320 320 319 320 322 323 325 328 335 337 337 336 338 338 337 336 335 335 333 333 335 335 335 336 334 332 332 330 331 332 332 331 330 331 329 328
317 318 319 319 318 318 317 318 317 321 320 319 318 320 320 320 319 319 319 319 321 323 328 331 336 339 339 338 336 336 335 335 334 336 336 335 336 336 335 334 333 332 332 332 331 331 332 332 330
319 317 318 319 318 318 318 317 316 317 317 318 318 319 320 320 320 319 319 318 319 320 323 325 329 331 330 336 339 338 338 337 335 336 337 337 336 336 336 336 335 334 333 332 331 331 332 332 331
316 315 317 317 316 318 318 317 317 317 317 315 317 319 319 319 318 317 317 318 318 318 317 322 323 323 322 324 331 335 337 336 335 335 336 336 334 336 335 335 335 335 334 333 333 332 331 331 331
316 316 315 315 316 317 317 318 316 316 316 317 315 317 318 317 316 316 316 317 317 317 317 319 319 319 320 320 323 331 333 331 330 331 334 333 333 333 332 331 331 332 334 333 333 332 332 331 331
315 314 313 315 315 314 314 314 314 314 315 317 317 317 317 317 315 315 316 316 316 317 317 317 317 317 317 317 317 318 319 321 323 323 323 327 329 330 330 330 330 329 330 331 330 332 332 331 330
315 311 312 314 315 317 313 315 309 313 312 312 315 316 316 315 314 314 314 315 315 315 315 315 314 314 314 314 315 316 316 317 318 318 318 319 319 320 321 325 328 327 327 328 329 329 329 331 330
315 312 313 313 313 313 313 312 310 309 310 311 312 314 315 314 314 314 315 315 315 314 313 312 312 311 312 312 312 312 313 313 314 315 316 316 317 317 319 325 326 326 325 322 325 327 328 328 330
313 313 311 311 310 310 312 312 311 311 309 310 308 311 312 313 315 315 315 315 314 314 314 313 313 313 313 313 312 312 312 312 312 312 312 312 312 313 315 318 324 324 326 328 327 326 326 326 327
313 312 309 313 312 314 310 312 314 311 309 308 307 309 312 314 315 315 315 315 315 315 315 315 314 314 314 314 314 314 314 313 313 313 312 312 312 312 313 320 323 324 327 328 327 326 326 326 325
314 312 310 314 313 312 309 312 311 309 309 311 311 312 313 313 314 315 315 316 316 315 314 314 314 313 313 313 313 313 313 312 313 313 313 313 313 313 313 316 322 325 325 327 326 325 324 325 324
316 314 312 309 308 305 308 308 307 308 308 309 310 312 312 313 314 315 316 316 315 314 313 313 313 313 312 311 311 310 310 311 312 312 313 313 313 313 313 314 315 317 320 322 322 320 322 321 321
313 312 315 307 313 311 309 309 310 308 308 309 310 311 312 313 314 315 315 315 315 313 312 312 312 312 311 310 309 309 309 310 311 311 312 312 312 311 312 312 312 313 314 315 316 318 320 321 320
314 315 314 313 312 312 312 309 304 306 307 309 309 312 313 314 315 315 314 314 313 312 311 310 310 310 309 309 308 308 308 309 310 311 311 311 311 309 310 310 310 310 311 311 311 312 313 313 314
314 314 313 315 311 307 307 308 305 304 306 309 309 311 313 314 314 314 314 313 312 310 309 308 308 308 308 308 307 308 308 309 310 310 309 310 310 310 310 309 309 309 309 309 309 310 310 310 313

GFSSGP_850_thetae_051.txt.gz
Theta_e
321 321 324 324 322 320 324 323 319 319 321 322 323 328 329 336 336 333 338 335 337 327 328 333 333 332 334 338 337 340 340 339 337 333 327 328 323 323 331 337 335 331 326 311 310 314 319 321 331
321 323 327 324 321 324 323 320 322 319 322 329 334 334 338 339 341 341 340 339 339 329 329 344 334 333 340 336 335 339 340 338 334 327 321 320 318 329 333 337 337 334 324 311 310 310 312 314 318
322 324 325 319 320 324 322 322 319 320 322 322 328 334 339 341 340 340 341 340 342 336 328 338 339 340 339 337 338 338 340 335 328 320 316 313 330 334 334 338 337 335 321 312 313 313 312 314 316
325 324 322 323 324 322 321 321 321 319 322 322 331 336 341 342 340 339 340 341 340 336 329 341 337 337 337 338 339 340 337 333 329 319 313 312 333 336 336 336 335 324 318 313 316 317 316 314 315
323 323 322 323 323 322 320 321 322 319 319 321 331 338 341 342 342 342 342 342 339 329 330 338 343 339 338 336 340 337 337 331 325 320 312 311 319 327 332 332 330 322 317 315 316 317 318 317 318
324 322 324 325 324 322 321 324 323 318 320 333 337 339 341 341 343 343 343 344 338 329 332 340 339 335 338 335 338 338 336 331 323 319 312 311 313 318 323 323 323 321 317 316 316 317 318 318 319
324 324 324 324 325 324 324 325 323 320 318 323 336 337 341 342 343 344 344 344 341 335 331 331 334 333 338 335 338 339 338 334 325 319 313 312 311 313 319 319 319 319 316 316 317 318 318 318 318
324 322 324 323 324 325 323 325 325 324 318 325 336 338 340 341 342 345 344 342 341 336 335 333 333 339 340 338 339 339 338 335 332 323 316 313 313 312 312 315 316 318 316 317 318 318 318 318 318
323 325 325 323 323 323 323 325 324 324 324 328 334 338 338 342 342 344 343 342 341 341 341 340 335 335 335 335 338 338 337 336 334 330 323 315 314 314 314 315 316 317 315 318 319 319 318 318 318
324 325 324 321 321 322 322 325 324 323 323 330 339 339 341 342 342 343 342 342 342 341 340 338 338 336 332 329 334 335 336 336 334 330 328 320 316 314 315 315 315 315 317 318 319 319 319 318 319
324 324 322 322 321 322 324 324 324 323 321 321 321 341 341 342 342 342 342 342 341 340 339 338 335 332 328 327 327 329 333 335 332 330 327 327 322 316 315 315 316 317 317 318 320 320 319 319 319
324 322 322 322 323 323 323 323 324 324 323 323 323 331 339 338 340 341 341 341 340 340 338 338 333 329 326 324 325 325 325 325 325 324 324 324 324 318 315 315 316 317 317 318 318 320 321 319 319
320 322 323 323 324 324 323 324 324 323 323 323 322 328 336 336 338 340 340 340 340 340 339 339 337 336 335 333 328 329 328 327 323 320 320 322 324 324 323 319 322 324 325 323 321 318 319 321 321
321 322 323 323 323 323 324 323 322 323 322 322 321 329 333 334 337 340 340 339 339 340 340 339 338 336 335 335 334 333 332 330 327 326 326 323 326 327 327 326 325 326 327 327 327 326 321 321 322
321 320 320 323 323 324 322 323 323 322 321 320 322 327 332 332 331 330 332 337 339 339 340 339 339 338 337 335 335 334 333 333 331 331 333 333 333 332 331 330 329 328 329 330 331 330 328 327 326
316 317 320 320 321 321 323 325 322 321 320 322 322 319 319 322 326 329 332 334 334 337 337 338 338 338 338 337 337 336 335 334 333 332 334 335 335 335 334 332 331 331 331 331 332 332 331 329 330
316 317 318 318 320 319 321 319 321 320 320 321 322 319 319 319 320 321 321 323 326 326 333 337 338 338 338 338 338 338 337 336 335 334 333 335 335 334 334 333 332 333 333 332 332 332 332 331 330
318 315 319 319 318 317 320 317 317 321 321 322 322 319 319 319 320 319 319 319 319 322 324 328 334 337 338 339 339 339 338 337 336 336 334 334 336 336 335 335 335 335 335 335 333 332 332 332 331
313 315 316 317 317 319 318 317 317 317 316 316 317 318 318 319 319 319 319 319 319 318 320 321 324 327 335 337 334 338 337 337 337 336 335 335 336 336 337 337 336 336 335 334 334 334 333 333 332
315 314 316 315 316 318 317 317 316 317 316 317 317 316 317 318 317 318 317 317 318 318 317 318 318 324 325 325 324 326 329 331 333 335 336 336 336 336 336 334 332 331 332 332 332 332 333 332 332
314 313 313 315 315 314 315 316 316 315 315 316 317 317 316 316 316 316 316 316 317 317 317 317 318 319 319 319 320 320 322 325 329 329 329 329 331 333 334 332 332 332 331 332 329 330 331 332 331
316 312 313 314 315 317 315 319 313 314 313 313 316 317 317 316 314 315 315 315 316 316 316 316 316 316 316 316 316 316 317 317 318 319 319 320 320 320 321 321 322 323 325 326 327 326 326 328 329
315 310 311 312 312 313 313 315 313 308 309 312 313 315 317 317 315 314 315 315 315 315 315 314 314 313 313 312 312 312 313 313 313 314 314 315 316 316 317 317 317 318 323 324 325 325 322 326 327
311 311 310 309 309 310 312 313 312 310 310 308 309 313 315 316 314 313 314 314 314 314 314 313 313 312 312 312 312 312 313 312 312 312 311 312 312 312 312 312 313 314 317 324 325 326 327 326 325
313 312 315 316 317 312 308 312 314 310 308 308 308 310 311 313 313 314 315 315 314 314 314 314 314 313 313 313 313 313 313 313 313 313 313 313 312 312 312 312 313 315 320 321 322 328 328 326 325
312 311 310 315 313 312 308 313 313 308 310 311 312 312 310 311 314 315 315 315 314 314 314 314 314 314 314 313 313 313 312 312 312 312 312 313 313 313 313 313 313 314 318 322 326 327 327 324 322
314 310 309 307 306 304 307 306 306 306 306 307 307 309 310 313 315 315 315 315 315 315 314 314 314 313 313 313 313 312 311 310 310 310 311 311 312 312 312 313 313 313 314 316 319 322 323 322 321
312 311 313 304 308 311 308 308 309 307 306 307 307 309 312 313 314 315 315 315 315 315 314 314 313 312 312 312 311 310 309 309 309 310 311 311 311 311 310 310 311 311 312 312 313 315 316 317 318
314 314 313 311 307 310 312 310 304 305 304 306 307 310 311 312 313 315 315 315 314 314 313 312 311 311 310 310 310 309 308 308 309 310 310 310 310 310 309 309 310 310 310 310 310 311 311 312 313
313 315 312 315 313 305 305 309 305 303 302 307 309 310 312 313 313 314 315 314 314 313 312 310 309 308 308 308 308 308 307 308 309 309 310 309 309 310 309 309 309 309 309 309 309 309 309 309 310

GFSSGP_850_thetae_054.txt.gz
Theta_e
321 320 322 325 320 319 321 321 319 319 319 320 321 323 325 335 334 330 339 329 329 325 330 333 332 331 332 334 336 337 339 339 335 330 325 324 322 328 336 333 329 324 311 310 315 320 321 332 333
321 321 325 323 319 321 320 320 321 318 319 332 332 335 337 339 340 339 336 334 327 324 332 333 333 332 339 334 338 340 339 338 328 323 321 318 326 331 336 336 334 325 311 310 310 313 316 321 323
322 326 324 319 318 321 319 321 320 320 321 323 329 334 339 340 340 337 337 335 334 324 330 331 332 337 337 335 336 341 338 335 328 321 317 318 330 332 337 336 335 320 312 313 312 312 313 314 316
325 325 322 320 322 321 320 320 320 320 321 320 326 336 341 341 340 338 337 339 338 325 335 339 335 341 336 335 336 340 337 330 324 318 314 332 332 333 337 333 328 318 314 316 316 315 314 315 316
324 323 322 322 323 322 320 321 323 318 319 320 332 337 340 341 341 340 337 339 339 329 335 343 338 339 337 338 339 340 334 329 325 317 312 332 334 336 332 331 325 318 315 316 317 317 316 317 319
323 322 322 323 323 322 321 324 321 321 317 325 336 338 339 341 342 341 340 340 338 332 333 340 337 337 336 339 341 337 336 329 322 315 311 323 331 327 327 324 322 319 315 316 317 318 318 318 320
324 322 322 322 324 324 323 324 322 322 319 318 336 337 339 341 343 343 343 340 334 331 334 337 342 339 337 338 339 337 336 333 327 317 312 311 314 322 324 321 321 319 316 316 317 318 318 318 319
324 322 322 322 324 324 323 324 324 324 321 323 334 334 339 341 343 344 343 341 334 332 334 335 336 333 338 335 338 341 338 336 331 322 315 313 312 312 314 318 319 318 316 317 318 318 318 318 318
324 325 325 323 323 323 324 323 324 324 324 328 332 339 339 340 343 344 343 341 338 336 334 334 333 332 336 336 338 340 339 337 335 329 320 314 313 313 314 314 315 317 316 317 318 318 318 318 318
323 325 325 321 321 321 324 324 324 324 323 320 324 331 340 341 342 344 342 341 339 339 339 339 333 335 337 336 338 340 337 336 335 332 327 318 315 314 314 315 316 316 315 318 319 319 318 318 318
323 325 322 321 322 322 323 324 323 323 322 320 323 322 329 339 341 341 342 341 341 341 340 338 338 337 337 334 333 333 330 335 334 332 327 325 322 317 315 315 315 315 316 317 319 320 319 319 318
323 322 323 322 322 322 322 322 323 323 323 323 323 322 321 338 338 336 339 340 341 340 339 338 336 336 335 333 330 331 330 331 331 328 326 325 324 323 316 315 315 316 317 318 318 318 320 321 319
322 321 322 322 322 322 323 323 324 323 323 323 323 322 324 335 335 335 339 340 340 340 338 337 335 329 329 328 327 327 327 325 324 324 323 322 323 324 325 320 318 318 319 323 323 322 319 318 320
321 321 322 323 323 323 323 323 323 322 322 323 322 321 323 334 334 333 339 341 340 339 339 337 336 335 334 333 330 327 328 329 329 327 322 325 322 325 327 327 324 324 326 327 327 327 327 325 321
320 321 321 322 323 324 323 323 323 322 322 322 322 322 322 332 333 333 335 338 338 338 338 337 337 337 336 334 334 333 332 332 331 329 328 331 329 330 331 330 330 329 328 329 329 330 330 329 328
318 318 323 320 322 322 321 324 320 321 321 321 321 322 321 324 332 333 335 337 338 339 338 337 338 338 338 337 336 335 334 334 333 332 331 332 333 333 333 332 331 331 331 331 330 330 331 331 331
316 319 317 320 322 322 321 321 322 322 321 321 321 321 321 320 320 330 333 333 334 333 334 336 337 337 338 338 338 337 336 336 335 335 334 333 333 334 333 333 332 333 333 333 333 333 332 332 331
319 314 317 317 321 322 322 317 320 322 319 320 320 320 321 322 318 318 320 323 331 328 330 334 336 337 337 338 338 338 338 337 337 336 335 335 334 334 335 335 335 335 335 335 334 334 334 334 333
312 314 316 316 316 319 323 321 317 322 319 319 319 320 321 322 321 320 319 319 319 320 325 326 331 334 336 336 337 338 337 337 337 336 336 336 335 335 335 336 336 336 336 335 334 334 334 333 333
313 313 314 315 316 318 316 319 318 315 320 319 319 320 322 320 320 319 319 318 319 319 318 320 323 326 328 331 335 338 334 334 336 336 336 336 336 335 335 336 336 336 334 333 332 332 332 332 331
313 313 312 315 314 314 315 317 316 316 316 316 318 320 320 319 317 317 317 318 318 318 317 317 318 319 322 328 330 331 329 327 327 331 334 335 336 336 335 335 334 333 334 332 331 330 331 330 328
316 312 312 313 315 316 314 319 315 317 316 313 315 316 317 317 317 315 315 316 316 316 316 316 317 317 318 319 319 318 318 318 318 319 322 325 324 323 323 323 322 324 324 325 325 327 327 326 326
314 310 311 312 310 312 313 315 314 309 313 317 316 315 317 317 317 316 314 315 315 316 316 316 315 315 315 314 314 314 313 313 313 313 314 315 315 316 316 316 316 317 317 317 318 321 325 325 325
309 310 310 308 309 309 310 313 315 311 310 309 309 314 316 317 317 317 315 314 315 315 315 315 314 314 313 313 312 312 312 312 312 312 311 311 311 311 311 311 311 311 312 312 314 319 327 327 326
311 312 311 315 312 312 307 311 314 311 309 308 308 310 311 313 314 315 314 314 314 314 314 314 314 313 313 312 312 313 313 313 313 313 313 313 313 313 313 312 312 312 312 313 316 318 319 324 326
312 312 310 314 312 311 307 312 311 308 308 309 311 313 311 312 311 313 313 314 314 314 314 314 314 313 313 313 313 313 313 312 312 311 311 311 312 312 312 313 313 313 313 313 316 323 323 324 326
313 313 307 305 303 303 308 306 305 304 305 307 308 308 309 310 311 311 313 315 315 314 314 314 314 313 313 313 313 313 312 311 310 310 310 310 311 311 311 311 311 312 312 313 314 316 321 321 322
311 308 312 304 307 311 308 306 308 307 306 304 306 307 308 309 311 314 315 315 315 314 314 314 314 313 312 312 312 311 311 310 309 309 309 310 310 310 310 310 310 310 310 311 312 312 314 315 317
313 311 311 309 306 308 310 309 303 306 304 302 302 307 309 310 313 315 315 315 314 314 314 314 313 312 311 310 310 310 309 309 308 309 309 310 310 309 310 309 309 309 309 310 310 310 311 311 312
314 312 311 309 309 304 304 311 306 303 302 302 305 308 309 312 314 314 314 314 314 314 313 313 312 311 310 309 309 309 308 307 308 308 309 309 309 309 309 309 309 309 309 309 309 309 309 309 309

GFSSGP_850_thetae_057.txt.gz
Theta_e
323 320 322 324 323 322 321 321 320 321 320 320 320 322 328 333 333 331 337 328 328 327 330 333 332 332 334 334 336 335 335 336 334 328 325 322 325 335 329 328 321 310 310 316 319 319 327 332 331
322 321 326 322 323 323 322 321 322 321 320 323 328 335 336 339 338 338 335 327 326 325 330 331 331 332 333 333 336 339 338 337 326 321 319 325 330 337 334 333 322 311 310 311 315 316 322 325 324
322 325 323 323 321 322 320 321 322 321 321 323 325 335 338 339 339 338 332 329 325 324 329 331 332 332 335 334 338 339 338 334 325 319 318 327 332 336 335 332 320 313 313 312 312 313 315 317 317
322 326 321 323 323 322 320 321 321 321 319 320 323 337 340 340 339 337 333 330 327 326 330 334 333 341 338 335 340 339 336 328 322 315 325 330 332 336 334 324 318 314 316 316 315 314 315 316 317
325 322 323 324 323 322 320 321 321 322 317 319 331 335 340 341 340 340 334 330 327 331 332 337 337 340 336 336 339 339 333 326 320 315 334 336 333 339 329 322 318 315 316 317 317 316 316 317 319
324 321 323 325 323 322 321 323 321 322 319 322 334 337 339 341 341 340 339 338 327 331 336 338 342 339 336 337 340 339 334 323 319 314 321 338 339 338 322 322 319 316 316 317 317 317 317 318 319
323 324 323 322 324 324 323 323 323 322 319 322 331 338 338 341 342 341 340 339 334 331 342 339 339 338 337 338 342 337 335 327 322 315 312 315 321 332 324 322 320 317 316 316 317 318 318 318 319
324 322 324 323 324 325 323 323 324 323 323 327 335 335 337 340 343 342 341 340 336 333 338 339 337 337 337 339 339 338 336 333 328 319 313 312 312 313 317 319 320 318 316 317 317 318 318 318 318
324 326 325 324 324 324 323 323 323 323 324 323 325 329 332 340 342 342 339 336 334 334 338 339 341 338 337 336 338 340 339 336 333 326 317 313 313 313 313 315 316 317 316 317 318 318 318 318 318
324 325 325 321 321 323 324 323 323 323 321 321 324 324 327 340 344 341 340 337 335 336 338 339 338 335 336 336 338 340 339 336 334 331 327 318 314 314 314 314 315 317 316 317 318 319 318 318 318
323 324 322 322 321 322 323 323 323 323 323 321 323 323 321 335 342 341 340 340 338 336 335 336 335 333 335 335 337 339 338 331 333 332 329 326 323 317 314 315 315 315 315 317 318 320 320 319 318
324 322 322 322 322 322 322 322 322 322 322 322 322 323 322 325 338 339 340 339 339 339 340 339 338 336 338 337 335 335 333 329 330 331 329 327 325 325 319 315 315 316 316 317 318 318 319 321 321
321 322 322 322 322 322 322 323 323 322 322 322 322 323 323 323 333 337 337 336 339 340 339 337 337 337 338 337 334 331 330 328 327 327 325 324 323 324 324 322 316 316 316 318 323 323 323 320 319
321 321 321 322 322 323 323 323 322 322 322 322 322 322 323 322 330 335 335 335 338 340 339 337 336 331 332 331 328 326 326 326 326 328 327 322 323 322 324 326 326 322 324 326 328 328 328 327 326
320 321 321 322 322 324 322 323 324 322 322 321 322 322 323 322 322 332 334 334 334 337 339 338 337 336 334 333 333 330 329 330 330 330 328 326 329 326 328 330 330 329 329 328 328 329 330 330 330
318 319 323 322 322 322 322 322 321 322 322 322 322 321 322 322 321 325 332 335 333 336 339 339 338 337 336 335 334 333 333 333 332 332 332 331 332 333 333 332 332 331 331 331 331 330 330 330 330
317 321 319 321 322 322 322 323 320 321 321 321 321 322 322 322 321 320 329 333 334 335 338 338 339 339 338 338 337 336 336 335 335 335 334 333 333 333 333 333 333 333 333 333 333 333 333 333 333
319 318 317 320 323 322 322 318 321 321 321 320 320 321 322 322 321 319 320 328 333 334 335 335 337 337 337 337 338 337 337 336 336 335 335 334 334 334 333 333 334 335 335 335 335 335 335 334 333
314 316 317 316 320 323 323 322 319 322 321 319 321 321 321 322 320 321 319 318 319 331 331 329 330 333 335 335 336 336 336 336 336 336 336 336 336 335 335 335 334 335 336 335 335 334 333 332 332
316 314 316 314 317 320 321 323 321 319 320 319 319 320 322 322 320 321 321 321 319 318 321 322 323 326 329 330 331 331 332 334 335 334 335 336 335 335 335 335 334 334 334 335 335 334 333 332 332
312 316 313 315 315 314 316 318 318 317 319 319 319 320 321 320 320 321 320 319 319 318 318 318 319 321 324 327 328 329 331 333 335 331 329 331 333 333 334 335 335 334 334 333 332 334 333 331 331
316 311 313 314 316 320 314 321 316 317 315 315 319 319 318 318 319 319 319 318 317 318 317 318 318 318 320 321 323 327 328 326 324 322 321 321 323 327 330 330 328 326 325 324 324 325 327 329 329
314 311 312 311 312 313 313 318 315 313 317 317 315 316 316 318 318 317 317 317 316 315 316 316 317 317 317 317 317 317 316 315 315 314 314 314 314 315 315 315 315 315 315 316 316 317 318 320 326
309 310 310 308 310 315 312 316 315 313 312 312 313 316 317 318 318 318 318 317 315 314 315 315 315 315 315 314 314 314 313 312 312 312 311 312 312 311 311 311 311 311 311 311 311 311 312 314 322
311 312 317 318 317 315 307 311 315 310 309 309 310 311 312 314 316 316 316 315 315 315 315 314 314 314 314 313 313 312 312 312 312 312 312 312 313 313 313 313 313 312 312 312 312 312 313 316 317
312 313 312 315 315 314 307 313 313 308 308 308 309 310 311 311 311 312 314 315 314 315 314 314 314 314 313 313 313 312 313 313 313 313 313 312 311 311 311 311 311 312 312 313 313 313 314 322 323
313 313 306 306 303 308 310 307 306 305 306 307 308 308 310 310 310 311 311 313 314 314 314 314 314 313 313 313 313 313 313 313 312 312 311 310 310 310 310 310 310 310 310 311 312 313 314 318 325
311 308 314 308 310 313 309 307 310 308 308 306 305 305 306 309 309 310 310 312 314 314 314 314 313 313 313 313 313 313 312 312 311 310 310 309 309 309 309 309 310 309 309 310 311 312 312 314 317
312 311 310 310 308 312 311 311 304 306 306 305 303 305 307 308 309 310 311 314 314 314 314 314 313 313 313 313 312 311 311 311 310 309 309 309 309 309 309 309 309 309 309 309 309 310 310 311 312
312 311 310 312 310 306 306 311 306 304 304 303 306 308 309 308 310 312 314 314 314 314 314 313 313 313 312 311 310 309 309 309 308 308 308 309 309 309 309 309 309 309 309 309 309 309 309 309 309

GFSSGP_850_thetae_060.txt.gz
Theta_e
325 321 322 324 325 324 325 324 325 325 322 322 323 325 332 336 333 337 336 330 338 337 344 342 340 338 340 339 339 339 337 336 333 329 324 327 335 326 328 318 310 311 320 320 320 325 330 331 329
323 321 324 325 324 325 324 324 324 325 324 323 329 332 332 336 342 339 338 328 331 338 343 342 339 338 339 339 337 336 337 332 323 320 324 328 336 332 332 318 311 310 312 316 318 324 326 325 320
324 321 324 324 323 324 323 324 325 325 324 325 329 335 338 341 343 342 340 331 340 342 342 341 335 340 340 335 337 339 335 326 319 319 326 332 336 335 331 318 313 313 312 312 315 317 317 316 317
326 326 323 323 323 323 322 325 325 325 322 324 326 337 341 340 343 342 335 340 343 343 343 333 333 339 335 337 339 338 336 326 318 321 327 332 336 335 324 318 314 316 315 314 314 315 316 317 318
325 324 323 323 323 323 325 325 325 326 322 325 329 337 342 343 341 342 339 335 342 343 343 337 336 342 335 338 341 336 330 324 315 332 335 332 338 338 323 319 315 316 317 316 316 316 317 318 318
325 324 324 324 323 324 324 325 325 324 321 328 333 337 342 341 340 342 339 342 341 342 343 342 336 343 336 338 341 337 331 321 315 324 338 335 339 338 324 321 317 316 317 317 317 317 318 318 319
324 325 325 324 323 325 324 325 325 324 324 328 332 338 341 343 347 345 343 342 342 342 344 345 339 339 337 338 339 338 332 326 317 313 327 335 338 337 324 323 320 316 316 317 317 317 318 318 319
323 324 325 324 324 324 325 325 325 324 327 331 337 338 341 338 342 347 343 342 338 342 344 346 342 339 337 338 341 337 335 331 322 315 313 314 316 316 319 321 321 318 316 317 318 318 318 318 318
324 326 327 326 324 325 325 326 324 324 327 327 327 326 326 338 343 343 342 341 339 344 343 344 344 344 343 340 339 338 337 335 329 319 314 313 314 314 314 317 317 317 316 317 318 318 318 318 318
324 326 326 323 323 325 324 325 324 325 325 326 326 324 327 339 342 342 342 340 339 343 343 342 342 342 343 340 338 338 339 336 334 329 322 316 314 314 314 314 315 317 317 317 318 318 318 318 318
324 326 324 323 322 323 324 325 324 324 326 325 325 324 324 334 339 339 340 340 339 340 341 340 340 340 341 340 339 338 338 337 335 332 328 324 319 316 314 314 315 316 316 316 318 319 320 319 319
325 324 323 323 323 322 323 323 323 323 324 323 323 322 324 327 336 337 339 341 342 342 342 340 338 338 338 340 339 338 337 335 335 333 331 329 326 325 321 315 315 315 316 317 318 320 319 320 321
324 324 324 323 323 323 323 323 322 323 323 323 322 322 324 324 328 336 341 340 339 339 339 339 338 337 337 338 339 339 338 335 335 332 330 328 326 324 324 322 316 315 316 317 319 322 325 324 322
322 323 323 323 323 323 323 323 324 322 323 323 323 323 323 323 324 332 336 338 338 339 340 339 338 338 337 338 337 337 337 336 335 328 325 324 323 323 323 325 326 322 320 322 326 329 328 328 328
320 323 323 323 322 321 323 325 325 322 323 323 323 323 322 323 323 323 333 336 336 337 338 339 338 337 336 337 335 335 332 331 331 330 329 326 324 327 324 326 329 329 328 327 327 328 328 329 330
319 321 324 322 322 322 323 325 323 322 323 323 323 323 323 322 322 322 326 333 333 335 334 337 338 337 335 335 333 333 332 330 331 331 331 330 329 331 332 331 332 331 331 331 330 331 331 330 331
320 319 321 323 322 324 324 323 322 322 322 322 322 323 323 323 323 322 321 330 333 333 334 337 338 338 338 337 336 335 334 334 333 333 333 333 332 332 332 333 333 333 333 333 333 332 332 333 334
319 319 319 321 324 324 325 324 320 322 322 321 322 322 322 323 323 323 320 323 332 333 333 334 337 337 337 338 338 337 337 336 335 335 334 334 334 334 334 333 333 334 334 334 334 334 334 334 334
315 318 320 320 323 324 324 324 323 321 322 322 322 321 322 323 323 322 320 318 324 332 332 333 334 333 335 334 335 335 335 335 336 336 336 336 336 335 335 335 335 335 334 334 335 333 333 333 332
316 316 318 319 323 323 323 324 323 322 322 323 322 321 322 323 323 322 320 320 320 319 325 330 329 331 333 333 335 335 335 335 336 336 336 336 336 336 335 335 334 334 334 333 333 334 334 334 333
317 317 319 319 323 321 322 323 323 323 321 321 321 320 320 322 323 322 320 320 320 320 319 319 324 328 328 329 329 330 330 329 331 332 334 332 331 332 333 333 333 333 335 335 335 334 334 334 333
318 317 318 321 321 320 320 317 319 320 321 321 320 320 320 321 320 319 319 319 319 319 319 319 318 318 323 325 326 328 329 329 327 331 330 329 326 324 323 325 328 332 333 332 329 327 326 329 330
316 315 317 318 316 317 318 318 316 317 318 318 318 319 320 320 319 318 318 318 319 318 317 318 318 318 318 322 323 323 324 322 320 318 317 316 315 314 314 315 315 316 316 316 316 316 316 317 319
313 315 315 316 316 318 316 317 316 316 316 316 317 318 318 318 318 319 318 318 318 318 317 317 317 317 317 318 318 317 316 316 315 314 313 312 312 312 311 311 312 311 311 311 311 311 311 311 312
315 317 319 318 320 318 313 317 315 316 315 316 315 314 314 317 317 317 318 318 318 318 316 316 316 315 316 315 315 314 314 313 313 312 312 312 312 312 312 312 312 312 312 312 312 312 312 312 313
316 315 317 316 316 316 312 316 315 314 313 314 311 311 312 312 311 311 314 315 316 317 316 315 315 315 314 314 314 313 313 312 312 312 312 313 312 312 312 311 311 311 311 312 312 313 313 314 317
316 317 311 314 310 316 315 314 313 314 313 312 311 310 311 310 310 311 312 311 314 315 315 314 314 314 314 313 313 313 312 313 313 313 313 313 312 311 311 310 310 310 310 310 310 312 312 313 320
315 313 316 317 318 316 313 313 313 313 313 313 312 311 310 309 309 310 310 311 311 313 314 314 314 314 314 313 313 313 313 313 313 312 312 312 311 310 310 309 309 309 309 309 310 310 312 313 316
315 316 315 315 315 316 314 313 312 312 312 312 311 311 310 310 310 309 309 309 310 312 313 313 314 314 313 313 313 313 313 312 311 311 310 310 310 309 309 309 309 309 309 309 309 309 310 311 312
314 316 316 317 317 315 314 315 312 311 310 308 311 311 311 310 311 310 310 310 311 313 314 314 313 313 313 313 313 312 311 311 310 309 309 309 309 309 309 309 309 309 309 309 309 309 309 309 309

GFSSGP_850_thetae_063.txt.gz
Theta_e
326 328 324 325 327 325 327 328 327 328 325 325 325 328 333 338 337 346 340 342 343 346 343 337 338 339 340 339 340 339 337 337 334 328 335 335 324 327 315 310 314 324 326 332 334 328 329 327 320
333 327 326 324 326 325 324 327 326 327 327 325 328 329 331 341 343 343 342 342 342 346 345 342 338 340 340 340 339 337 336 331 322 323 332 336 331 330 315 311 311 316 317 319 325 326 324 319 316
332 327 324 323 323 325 324 325 326 326 327 326 327 332 336 343 344 342 343 342 341 345 345 344 338 338 340 339 337 337 332 322 320 325 332 338 335 330 316 313 313 312 314 316 319 319 317 317 318
329 324 325 325 325 324 324 325 325 326 324 327 327 333 342 344 345 345 342 341 342 343 344 341 339 340 338 335 337 336 333 322 319 326 333 337 335 328 318 315 315 314 314 314 315 316 317 318 318
330 325 324 325 325 325 324 325 325 325 324 327 329 334 344 344 345 345 342 342 342 342 346 338 341 341 337 337 338 334 323 318 319 327 331 337 338 329 319 315 316 316 315 315 316 317 318 318 318
326 326 326 326 325 324 324 326 325 324 324 329 330 334 345 342 344 345 342 342 343 343 345 340 338 340 336 339 339 332 323 316 327 334 334 339 338 335 320 317 316 317 317 317 317 318 318 318 318
326 326 328 326 325 325 325 326 326 324 324 331 334 336 344 341 345 344 342 342 342 343 343 343 340 342 337 340 341 334 323 317 318 338 336 339 337 336 322 319 317 316 317 317 317 318 318 318 318
324 325 327 327 326 325 324 326 326 326 327 335 338 339 343 338 343 342 344 341 341 342 343 342 345 341 337 338 339 337 331 321 314 320 328 333 327 319 320 320 319 317 317 317 318 318 318 318 318
325 326 328 327 326 325 325 326 326 327 330 332 330 330 330 339 342 343 343 341 342 342 343 342 345 342 342 341 339 337 336 331 322 315 314 316 329 318 316 318 318 318 317 317 318 318 318 318 318
326 328 326 326 325 326 325 325 326 328 329 328 328 329 338 339 342 343 343 341 340 343 345 342 342 341 341 343 340 337 336 335 332 325 316 326 330 331 329 316 316 317 317 316 318 318 318 318 321
325 327 325 325 324 325 325 325 325 327 329 328 327 327 330 339 339 341 341 342 342 341 343 342 342 341 341 343 341 338 338 338 338 337 334 330 322 316 314 317 315 316 317 316 318 319 320 324 320
325 325 325 324 324 325 325 325 325 325 327 325 324 325 326 334 339 340 340 341 341 341 343 343 342 341 340 339 339 338 337 337 338 337 336 334 329 323 325 324 325 325 328 326 331 331 331 326 320
325 324 324 323 323 323 323 324 324 324 324 324 324 324 325 327 336 339 339 340 340 340 340 339 341 341 341 339 339 339 338 337 337 338 337 336 334 327 326 328 324 326 327 328 329 330 330 330 330
323 322 324 324 324 323 323 322 323 323 323 324 324 324 325 325 326 335 338 340 340 341 340 340 340 340 339 339 338 340 338 338 337 337 337 336 335 333 330 332 329 327 324 327 329 332 333 333 333
322 322 323 325 324 324 324 325 324 322 322 324 324 324 324 324 325 326 335 340 340 341 342 341 341 340 339 340 339 338 337 337 337 337 336 336 335 334 333 333 333 332 331 329 330 332 332 333 333
321 323 323 324 324 323 324 325 324 323 323 322 324 324 324 324 324 325 323 334 339 340 340 341 341 340 339 340 339 338 337 336 336 336 337 337 335 330 334 334 334 334 334 334 333 333 334 334 333
320 323 323 323 322 323 323 323 323 323 322 322 323 324 323 324 324 324 324 323 336 339 340 335 338 338 338 338 338 338 337 337 336 337 337 337 335 333 332 335 335 335 335 335 334 335 334 334 334
319 319 320 323 323 322 323 321 323 322 323 322 322 322 323 324 324 324 324 321 330 338 339 337 336 338 337 337 338 337 338 338 337 337 337 337 336 335 334 335 335 336 336 337 336 336 335 335 335
316 316 316 319 321 322 322 323 323 321 323 323 322 321 322 323 323 324 323 322 320 331 338 338 334 336 337 337 337 338 338 338 338 338 338 336 336 336 335 335 337 336 337 337 336 335 333 334 334
316 317 319 319 322 322 322 323 322 323 323 323 323 322 323 323 323 324 323 322 319 319 330 337 338 335 335 335 335 336 337 338 339 338 337 336 336 336 336 335 335 338 337 336 338 336 336 335 334
316 317 320 321 320 322 321 322 322 323 323 322 322 323 322 321 323 324 322 321 320 320 319 326 335 334 336 334 337 338 338 336 334 335 334 333 334 334 334 334 335 335 338 338 338 337 332 332 331
315 315 316 318 321 321 320 320 320 321 322 323 322 321 321 321 321 322 322 321 320 320 319 319 319 322 326 328 331 331 331 331 333 335 333 326 329 332 331 327 325 323 323 325 328 331 332 334 330
316 316 317 320 320 318 320 320 318 318 320 321 321 321 320 320 321 321 320 319 320 320 320 318 318 319 318 318 324 328 330 332 331 327 327 324 320 318 317 315 314 314 314 314 315 315 315 315 316
316 318 318 318 317 319 317 317 316 318 317 316 317 318 318 318 320 321 320 320 318 319 319 318 317 317 318 318 319 322 325 326 323 319 316 315 314 313 313 312 311 311 311 311 311 311 311 311 311
315 317 318 318 320 319 316 316 317 317 316 317 317 316 316 317 318 319 319 319 318 318 318 318 318 316 316 317 318 318 318 316 315 314 313 313 312 312 312 311 312 312 312 312 312 312 312 313 313
316 315 317 317 317 317 315 316 315 316 315 315 315 314 314 314 314 314 316 318 318 317 317 317 317 317 316 316 316 315 314 314 313 313 313 312 312 312 312 312 312 312 312 312 311 311 312 312 317
317 318 314 316 315 317 316 315 315 315 314 314 314 313 313 313 312 313 313 312 316 317 316 317 316 315 315 315 314 314 313 313 313 312 312 312 313 313 312 312 311 311 310 310 310 310 311 317 313
316 315 315 317 318 314 315 314 314 314 314 314 314 314 314 313 313 312 311 311 312 315 315 315 315 314 314 314 313 313 313 313 312 313 313 313 312 312 311 311 310 310 309 309 309 309 310 311 313
316 316 316 316 317 319 314 314 314 314 314 314 314 314 314 314 313 313 312 312 312 314 314 314 313 313 313 313 313 313 313 313 313 312 312 311 311 311 310 310 309 309 309 309 309 309 309 310 312
316 316 316 317 318 316 316 316 313 314 313 312 314 314 314 313 314 313 313 312 312 312 313 313 312 313 314 314 313 313 313 313 313 312 312 311 310 310 310 309 309 309 308 309 309 309 309 309 310

GFSSGP_850_thetae_066.txt.gz
Theta_e
320 323 326 327 330 326 326 325 326 332 328 328 327 327 331 343 343 346 339 344 340 330 331 333 335 338 338 338 339 337 335 332 326 340 332 323 325 311 310 316 319 326 335 335 331 326 322 316 316
324 332 325 327 325 326 323 324 327 329 326 325 328 329 333 344 342 340 342 344 340 329 332 337 337 340 339 339 338 335 330 323 324 338 331 328 324 312 311 313 317 318 330 328 324 320 316 316 316
331 333 325 325 325 325 325 323 326 327 327 326 327 334 340 345 342 342 343 343 346 335 334 339 340 342 341 338 335 331 322 320 324 335 336 332 324 314 313 312 314 315 319 319 318 316 317 317 316
330 330 326 325 324 323 322 322 325 326 326 327 328 342 342 344 345 344 342 343 346 343 342 338 340 341 340 336 334 327 321 320 326 334 336 333 324 316 315 314 313 314 315 316 316 317 317 317 316
329 327 326 326 325 323 322 325 325 325 324 326 329 334 344 341 344 344 341 342 345 345 346 339 339 341 337 337 335 328 319 319 326 332 337 335 324 317 315 316 315 315 315 316 316 317 318 318 318
327 327 325 325 325 324 323 325 325 325 324 328 328 329 344 341 344 343 341 342 343 344 345 338 339 341 336 338 335 325 318 319 326 331 336 336 326 319 316 316 317 316 316 317 317 318 318 318 318
326 325 328 325 324 324 326 326 325 324 324 331 334 336 342 339 341 342 342 342 343 345 345 338 340 339 338 339 334 326 317 323 329 332 339 338 332 320 319 317 317 317 317 317 317 318 318 318 318
325 326 325 327 326 325 326 326 326 327 331 333 336 338 341 339 332 341 342 342 343 345 342 339 340 338 338 340 338 329 320 318 337 336 339 336 325 319 320 319 317 317 317 318 318 318 318 318 318
325 327 326 327 327 326 326 326 326 328 331 331 330 333 336 338 333 341 343 342 342 343 341 340 341 340 338 340 338 335 329 318 320 329 329 328 323 317 318 319 318 318 317 318 318 318 318 318 318
324 326 326 324 325 325 325 325 326 328 329 328 331 338 337 341 341 344 342 341 343 342 341 340 341 340 339 339 337 336 335 329 319 316 314 323 333 328 318 317 317 317 317 317 318 318 318 318 319
324 325 324 324 325 325 325 325 326 328 328 328 328 331 339 340 342 341 341 341 342 340 340 342 341 339 340 339 340 338 332 334 336 332 320 328 329 329 321 317 315 315 316 317 317 318 319 319 320
324 323 324 324 325 325 325 325 325 328 326 325 325 327 334 338 340 344 344 340 336 341 344 340 340 339 339 340 340 338 336 336 337 338 335 332 325 320 318 323 321 319 319 318 323 323 329 327 321
322 324 324 324 324 326 325 325 325 325 325 324 324 325 327 336 338 340 341 342 341 341 340 339 340 339 338 338 339 338 337 335 338 338 335 335 333 329 326 325 325 323 324 325 327 326 327 329 330
322 323 324 324 324 325 324 324 323 324 323 324 324 324 325 327 335 338 339 340 340 340 341 341 339 339 338 338 338 338 336 337 337 338 337 334 336 333 327 332 328 324 323 321 323 326 332 332 332
321 323 322 322 324 324 323 324 323 323 323 323 324 324 324 325 326 334 337 339 340 339 338 339 338 337 338 338 337 337 338 337 337 337 336 336 333 334 332 330 333 330 328 327 327 329 330 331 330
320 322 324 320 323 324 323 325 323 322 322 322 323 323 323 324 324 326 331 339 339 340 340 338 339 338 338 337 337 336 337 337 337 337 336 337 334 332 331 331 329 332 333 333 331 330 331 331 332
319 324 323 318 317 324 324 325 323 323 323 322 322 323 324 324 324 324 325 329 339 340 340 340 340 339 338 337 337 338 338 337 334 335 336 337 334 332 330 332 333 334 334 333 333 332 333 334 334
319 321 322 320 318 320 323 323 322 323 324 323 322 322 322 323 324 324 325 323 331 338 340 339 339 337 338 337 338 337 337 334 334 336 337 336 335 334 334 333 334 335 335 335 335 334 333 333 333
317 319 321 320 321 321 324 322 320 322 323 323 323 322 322 323 323 324 324 324 328 337 339 339 335 335 337 336 335 337 336 338 336 336 337 337 337 336 335 334 335 336 335 334 334 334 333 333 332
316 317 318 320 322 322 321 322 321 320 321 322 323 322 321 322 322 324 324 324 323 329 337 339 338 334 336 337 337 337 337 337 337 337 338 338 336 336 336 336 335 337 335 334 333 333 332 331 330
315 315 317 321 322 322 321 321 320 320 320 321 322 323 323 322 322 323 324 324 323 325 328 336 339 336 334 335 336 336 336 336 337 337 338 337 337 337 334 333 334 335 336 335 333 332 331 330 329
317 317 319 320 321 322 320 319 320 320 320 321 322 322 323 322 321 322 323 323 322 322 325 325 336 339 335 333 334 333 331 335 335 335 335 334 327 329 331 332 332 329 325 323 322 321 324 327 328
315 315 317 318 319 318 319 318 315 318 318 320 321 322 321 321 320 321 322 322 321 320 320 320 319 325 334 332 329 327 331 334 334 336 335 333 329 328 323 319 317 316 314 313 312 312 313 313 314
316 317 317 318 318 315 317 317 314 315 317 317 320 322 322 321 320 320 321 321 321 319 319 319 319 318 318 322 331 326 326 329 330 331 331 328 321 316 315 314 313 312 312 311 311 311 311 311 312
317 316 316 316 314 315 314 314 314 315 315 315 314 316 317 319 319 319 320 321 320 320 319 318 319 318 318 317 318 321 321 321 322 324 320 316 314 313 313 313 312 312 312 312 312 312 312 312 312
317 315 316 316 315 316 314 315 314 313 315 315 314 314 315 315 315 315 317 319 320 319 319 318 318 318 317 317 317 318 318 318 319 317 314 313 313 312 312 312 312 312 312 312 312 311 311 311 311
315 316 313 316 314 315 314 313 314 313 313 313 313 313 313 312 312 312 313 314 316 318 319 319 318 317 317 317 316 316 317 318 314 314 313 313 312 312 312 312 312 312 312 311 310 310 309 310 311
317 314 315 313 315 315 314 313 312 312 312 312 312 313 314 314 313 313 312 312 312 314 317 317 316 316 315 315 315 315 315 315 314 314 313 312 312 312 312 312 312 311 311 310 309 309 309 309 310
315 316 316 316 314 318 315 313 311 311 311 311 312 314 314 313 313 313 313 312 312 312 315 316 316 315 314 314 314 313 313 314 313 313 312 312 313 312 312 311 311 311 310 309 309 308 309 309 309
316 315 315 316 316 313 313 313 312 310 310 312 314 314 314 314 313 314 313 312 312 312 314 315 315 314 314 313 313 313 313 313 313 312 312 312 312 312 311 310 310 310 309 309 308 308 308 308 309

GFSSGP_850_thetae_069.txt.gz
Theta_e
320 323 327 326 327 322 325 323 325 331 331 331 327 330 343 342 343 341 343 343 343 336 331 333 334 336 338 337 336 333 328 333 339 327 321 317 310 313 313 321 333 339 336 329 320 316 316 316 324
319 332 328 326 324 323 320 320 323 328 328 329 329 331 339 342 340 341 345 346 336 329 331 334 337 337 338 337 334 330 325 334 337 325 324 315 311 313 316 317 324 329 321 318 316 315 316 315 326
320 332 325 324 322 323 323 320 320 327 326 328 328 329 336 342 342 343 345 346 332 330 332 337 338 338 339 336 330 322 322 329 336 331 325 316 313 312 314 314 316 317 317 316 316 316 316 315 325
322 328 327 321 323 321 321 321 321 325 326 327 330 336 337 342 343 345 346 344 334 333 335 339 340 340 338 334 327 319 323 326 336 334 325 317 315 314 313 314 315 316 316 316 316 316 316 316 316
325 326 324 324 324 320 320 321 323 323 324 327 331 339 335 337 341 343 346 345 339 334 340 339 341 340 337 334 327 320 323 326 334 336 326 318 316 316 315 314 315 315 316 316 317 317 317 317 317
324 325 322 326 324 323 321 322 324 323 323 326 334 341 341 334 336 342 344 345 344 341 339 340 340 339 337 335 326 319 320 326 332 337 330 320 317 316 316 316 316 316 317 317 318 318 318 318 318
324 323 324 321 321 323 324 324 324 324 323 331 332 341 341 335 331 339 342 343 343 344 343 338 341 337 337 336 326 318 319 325 330 337 336 323 318 317 317 317 317 317 317 317 318 318 318 318 318
324 323 323 323 322 322 324 325 325 326 332 335 335 341 340 336 331 337 342 341 343 344 344 337 340 335 338 335 327 318 324 328 328 337 337 322 320 319 318 317 317 317 318 318 318 318 318 318 318
323 324 325 323 325 325 325 325 325 327 330 330 331 338 337 336 331 337 342 341 342 343 342 338 340 335 338 335 331 322 318 335 333 338 337 327 321 319 319 318 318 317 317 318 318 318 318 318 318
323 323 324 321 322 325 324 324 325 328 328 336 336 337 338 335 335 339 340 340 343 342 339 337 340 338 339 337 333 330 320 318 330 331 327 322 326 321 318 318 318 318 317 317 318 318 318 318 318
322 324 323 323 323 325 324 324 326 327 327 328 337 336 339 332 330 334 329 329 339 341 341 339 338 338 338 338 334 332 328 322 318 316 315 328 328 327 322 318 316 316 316 317 317 317 319 320 319
322 322 322 323 323 325 324 325 325 327 325 328 329 333 340 338 331 332 336 338 337 341 340 339 339 338 338 338 337 338 334 329 325 329 322 325 325 324 318 317 319 317 317 318 318 320 321 322 322
320 321 322 322 324 324 325 324 324 324 324 326 330 330 338 341 339 337 340 338 337 339 339 339 340 338 338 338 339 337 337 333 331 335 334 331 330 324 321 322 322 320 318 318 320 320 322 322 327
319 320 322 324 324 324 325 323 325 324 324 323 325 329 332 338 340 341 340 339 339 339 337 340 339 338 337 339 338 337 337 333 337 337 336 335 330 329 326 325 325 323 322 321 321 322 325 330 330
317 321 321 324 323 323 322 325 322 324 324 324 324 325 325 329 337 339 340 338 338 337 337 338 339 339 338 337 337 337 336 336 336 336 336 336 333 330 328 326 326 327 326 326 324 326 328 330 331
316 320 324 321 324 323 320 324 322 322 322 323 324 324 324 325 328 333 337 339 340 341 339 340 340 338 337 337 337 335 337 336 336 336 336 336 334 331 328 326 328 329 330 331 331 330 329 329 330
317 321 322 320 321 322 323 322 321 322 322 321 322 323 323 324 324 325 327 335 339 337 339 339 338 337 336 337 337 336 336 336 336 336 336 336 336 333 329 328 330 330 332 332 332 332 332 333 333
318 319 321 321 318 321 322 321 320 322 322 321 321 321 321 322 324 324 324 327 334 337 337 338 338 338 338 337 337 337 335 336 336 336 336 336 336 334 332 331 332 333 334 333 333 333 333 332 331
315 317 321 319 317 318 320 319 321 321 322 322 321 321 321 322 323 324 324 324 328 334 335 337 339 339 338 337 337 336 336 336 335 333 335 336 337 336 335 334 334 334 335 334 333 333 332 331 330
317 319 320 320 319 318 319 319 320 319 320 322 322 322 322 322 322 322 324 324 326 328 332 332 333 334 335 337 336 335 335 334 335 334 336 335 336 336 336 336 335 335 334 334 334 333 330 330 330
317 319 320 320 320 320 320 320 320 320 319 320 321 322 322 322 321 321 323 324 324 326 327 331 331 332 332 335 336 335 335 336 336 337 336 336 337 336 336 336 337 339 337 334 332 332 331 330 329
315 314 318 321 321 323 321 323 320 320 319 317 319 321 322 322 322 321 323 323 324 323 324 331 332 330 332 333 332 334 336 335 333 335 335 337 337 333 333 332 331 333 334 332 328 326 325 327 322
316 317 319 321 319 318 320 317 315 318 318 318 317 321 322 322 322 321 322 322 323 322 322 324 331 332 330 332 332 332 331 332 329 330 334 335 332 330 327 329 333 331 322 316 314 313 312 312 312
316 317 316 317 317 314 318 316 314 315 318 316 318 321 322 321 321 320 321 322 322 321 320 319 320 332 331 330 330 328 328 327 326 330 331 330 329 331 330 321 315 314 313 312 312 311 311 311 312
315 314 316 316 314 316 313 315 313 312 312 312 315 318 320 321 320 320 320 321 321 322 321 320 318 319 322 322 325 327 325 324 326 328 332 331 330 328 317 314 313 313 312 312 311 312 312 312 312
314 313 313 316 313 314 312 314 312 312 312 313 313 313 313 314 314 317 318 320 321 320 320 320 319 319 319 317 318 320 321 322 323 324 327 325 319 315 314 313 313 312 312 312 312 312 312 311 311
316 310 311 311 310 310 312 312 312 311 310 310 312 313 313 312 312 312 312 313 316 319 320 320 319 318 317 317 317 317 318 320 322 319 318 316 315 314 313 313 312 312 312 312 312 312 311 310 309
314 313 311 308 309 314 313 311 310 311 310 310 310 313 313 313 313 312 312 312 312 312 316 318 318 318 317 316 315 316 318 318 319 316 314 317 314 313 312 312 312 312 312 312 311 311 310 309 309
315 315 315 313 312 315 312 310 308 308 309 309 311 313 313 313 313 313 313 312 312 312 311 315 317 317 317 316 315 315 316 316 315 313 313 314 316 313 312 312 312 312 311 311 310 310 309 309 308
315 316 315 314 315 311 310 311 307 308 308 312 312 313 313 313 313 312 312 312 312 312 312 314 315 315 315 315 315 315 314 314 313 313 312 312 312 312 312 312 311 311 310 310 309 309 309 308 308

GFSSGP_850_thetae_072.txt.gz
Theta_e
326 322 327 327 324 322 322 323 322 328 331 330 329 336 341 341 342 339 343 339 339 332 336 335 335 336 337 336 332 328 333 338 331 318 312 310 312 329 339 340 339 337 331 317 314 315 320 327 328
325 322 330 326 324 322 322 320 322 328 329 330 331 338 339 342 341 343 344 345 343 332 335 336 335 337 337 334 331 328 340 333 321 320 311 311 313 317 330 338 335 330 318 315 315 315 322 324 326
323 323 326 324 321 323 321 320 320 321 327 330 327 333 338 342 343 344 345 346 340 332 337 335 336 337 335 332 327 327 339 332 323 318 312 311 314 314 318 325 322 317 315 315 315 315 322 326 329
321 323 326 322 324 320 321 318 321 322 326 329 328 335 336 342 343 346 345 345 336 332 338 337 337 337 335 331 322 323 336 331 325 319 314 313 312 314 314 315 315 315 316 316 316 315 318 323 326
322 324 325 324 324 319 319 320 321 323 325 326 330 336 332 338 342 345 345 338 332 333 337 338 339 337 334 328 320 323 332 336 329 320 315 315 314 314 315 315 315 316 316 316 316 316 316 317 319
323 323 326 325 323 321 320 321 321 322 323 329 330 336 336 328 329 344 343 339 332 335 339 340 340 337 334 326 321 323 328 339 335 323 317 316 315 315 315 316 316 317 317 317 318 318 318 317 317
323 323 324 323 322 323 322 322 320 322 322 329 333 338 336 333 329 340 342 341 336 338 339 341 340 336 336 329 319 321 326 335 339 332 323 317 316 316 316 316 317 317 318 318 318 318 318 318 318
321 322 323 321 321 321 322 324 324 325 331 333 337 339 338 332 334 333 341 341 341 339 338 339 339 336 337 329 320 319 324 331 339 335 324 318 317 317 317 317 317 317 317 318 318 318 318 318 318
320 324 323 323 320 320 322 324 325 328 331 331 335 339 336 333 333 331 335 340 341 345 343 337 340 335 337 330 320 319 325 327 332 333 323 320 319 318 317 317 317 318 318 318 318 318 318 318 318
321 323 322 321 322 323 323 323 326 328 333 337 338 337 334 333 337 334 331 334 339 342 343 340 338 335 337 332 323 319 327 327 329 335 328 321 319 319 319 319 318 317 317 318 318 318 318 318 318
320 324 322 321 322 323 324 323 325 327 328 335 338 338 332 332 333 330 334 330 332 339 339 338 338 335 338 334 330 322 318 333 332 333 327 320 322 319 319 318 317 317 317 317 317 318 318 319 319
319 320 321 323 323 324 324 323 325 326 326 328 336 338 331 334 339 336 339 336 330 330 334 337 339 337 337 338 335 332 324 318 320 319 316 321 324 322 320 317 317 316 316 317 317 320 321 323 322
317 318 321 322 324 325 325 325 325 323 329 329 332 337 337 338 339 338 337 333 331 329 331 333 337 338 336 338 336 335 336 329 324 321 317 322 323 323 319 317 319 319 318 318 319 320 320 321 324
316 317 319 322 323 324 325 324 323 323 326 330 329 334 338 333 337 335 332 331 337 333 331 329 337 338 339 338 337 338 336 335 331 330 333 331 330 327 325 323 322 322 320 320 320 321 322 325 328
316 318 319 320 323 324 323 326 323 323 323 325 328 327 336 337 335 334 337 337 336 336 336 337 337 338 338 337 338 337 336 335 333 335 336 335 335 331 328 325 324 325 324 324 324 323 324 327 329
316 317 321 320 322 322 323 326 321 323 323 323 326 326 326 335 338 339 336 337 338 337 337 336 334 332 338 336 337 337 337 336 336 335 335 335 336 333 330 328 326 328 329 329 329 328 328 328 329
316 319 320 322 323 323 321 324 321 322 321 322 323 324 324 326 333 335 336 338 338 338 337 336 337 337 338 338 338 337 337 336 335 335 336 335 336 335 333 330 328 329 329 331 332 332 332 331 331
318 319 319 321 321 319 323 322 318 321 320 321 321 322 323 323 325 325 326 334 336 338 338 339 336 337 338 338 337 337 336 334 336 335 335 335 336 335 335 331 329 331 332 333 332 332 332 331 331
314 317 319 318 319 320 322 320 320 319 319 320 321 321 322 321 322 324 324 327 330 336 337 338 336 338 338 337 336 336 336 335 335 334 335 336 336 335 335 333 332 332 333 333 333 333 332 331 330
315 317 320 319 319 319 320 320 319 319 319 319 321 321 321 321 321 321 323 324 327 328 332 336 334 336 336 337 337 336 337 337 336 334 335 335 334 335 335 335 334 334 333 334 333 333 332 331 329
317 317 318 319 319 319 319 320 319 318 318 319 319 322 321 321 321 321 321 324 324 328 327 329 330 331 336 337 336 336 336 335 336 335 334 334 334 335 335 335 335 335 334 334 333 332 330 330 329
317 317 317 318 321 323 319 322 320 318 318 317 318 320 321 322 322 321 321 322 324 324 328 327 329 330 331 332 333 335 335 334 334 333 332 334 335 335 335 335 336 336 335 334 333 333 331 327 326
315 317 318 318 316 318 318 319 315 318 319 318 316 319 320 321 322 321 321 321 322 324 325 327 328 329 331 333 332 332 334 333 333 331 330 332 333 330 332 330 332 330 328 328 330 325 318 315 313
314 317 318 316 317 320 317 319 314 315 318 316 316 318 319 321 322 322 321 321 323 323 323 324 327 327 328 330 331 330 330 330 330 331 331 328 328 326 325 325 324 326 325 319 314 313 312 311 311
315 315 319 320 318 316 315 316 314 311 310 314 314 318 318 319 320 320 320 320 322 322 321 321 320 322 323 326 330 330 330 329 328 328 326 325 325 324 323 324 325 320 314 313 313 312 311 311 312
315 312 313 318 317 314 312 316 313 311 308 311 315 315 316 318 318 319 319 320 321 321 321 321 320 320 319 319 323 327 327 327 325 324 324 324 323 322 322 325 317 314 313 313 312 312 312 312 312
314 315 310 309 309 313 312 312 312 308 308 309 310 312 312 312 312 312 314 318 319 319 320 320 320 319 318 318 318 318 322 323 324 324 325 326 325 325 321 316 317 314 313 312 312 312 312 312 311
312 311 310 306 311 315 313 311 313 310 310 310 309 311 312 313 312 312 312 312 312 312 314 316 319 319 319 318 317 316 316 318 321 320 320 320 319 317 315 313 313 312 312 312 312 312 311 311 310
313 313 312 309 309 311 311 309 307 308 309 309 309 312 313 313 313 313 312 312 311 312 312 311 314 318 318 317 317 316 316 316 318 319 318 319 318 315 313 312 312 312 312 312 312 311 311 310 309
314 315 311 308 310 308 308 310 305 306 308 309 310 312 312 312 312 312 312 312 311 311 312 312 311 314 317 316 316 316 315 316 316 316 315 314 313 313 312 312 311 311 312 311 310 309 309 309 309

GFSSGP_850_thetae_075.txt.gz
Theta_e
326 326 323 329 324 319 320 321 324 328 333 331 330 335 338 341 339 335 342 341 336 337 338 336 335 335 334 333 329 325 337 338 319 314 321 335 340 341 340 339 338 330 316 313 315 318 322 323 324
325 325 324 326 323 322 321 320 320 323 330 330 336 338 338 341 343 345 343 341 336 337 338 336 335 335 335 331 328 329 339 327 317 311 311 326 337 340 340 338 335 321 314 314 317 321 322 324 323
325 323 325 324 322 322 319 319 322 326 328 329 329 334 339 342 344 343 344 342 336 338 337 336 336 337 335 330 330 339 332 320 316 311 312 312 330 339 340 335 326 315 315 315 317 320 324 323 322
321 323 324 324 325 320 318 318 319 327 330 327 328 331 338 341 343 343 344 345 337 338 337 336 336 336 334 329 330 339 334 322 315 312 313 314 316 328 329 320 315 315 315 315 318 320 322 322 321
322 323 324 325 322 319 317 319 320 324 328 329 329 330 336 340 343 346 346 345 336 339 338 336 337 335 332 328 328 337 330 322 317 314 312 313 314 315 315 315 315 315 316 316 317 318 319 319 319
321 322 324 324 321 319 318 320 320 320 323 327 328 330 331 337 333 344 344 343 335 338 337 337 337 336 333 324 323 336 333 326 319 315 314 313 314 315 315 315 316 316 316 317 317 317 317 318 319
320 322 324 322 321 320 320 321 319 318 321 326 327 334 334 331 333 329 341 338 333 336 338 338 339 336 332 322 322 332 338 331 323 317 315 314 315 315 316 316 317 317 318 318 318 318 318 318 318
320 322 323 321 322 321 320 321 322 321 325 332 330 336 335 328 329 328 339 336 333 333 337 339 340 336 332 327 321 326 338 336 333 322 317 316 316 316 316 317 317 318 318 318 318 318 318 318 318
318 322 323 323 321 321 320 320 323 325 331 332 331 333 332 327 326 326 330 338 336 335 336 339 339 336 334 325 319 324 333 338 334 329 318 317 317 317 317 317 317 318 318 318 318 318 318 318 318
316 320 320 320 320 318 322 322 324 329 334 336 336 338 334 328 327 326 325 326 339 337 337 337 339 335 335 328 318 322 326 334 337 329 321 319 318 317 317 317 317 318 318 318 318 318 318 318 318
315 318 318 320 320 323 324 323 324 327 330 335 336 336 333 333 333 330 327 328 337 337 341 339 339 338 334 330 320 323 327 329 333 332 324 321 319 319 319 319 318 317 317 317 318 318 318 318 319
315 315 318 320 321 323 323 324 323 326 327 331 334 335 335 338 335 329 334 330 329 327 335 339 339 338 335 334 327 320 329 330 331 336 332 323 321 320 320 319 317 317 317 317 317 317 319 321 321
314 315 317 320 321 324 324 324 323 324 328 330 337 336 334 333 333 333 333 332 330 326 325 325 331 337 336 336 334 329 321 325 332 332 325 318 324 325 322 319 318 318 316 318 319 322 323 323 323
313 313 315 319 321 323 324 324 323 324 331 332 337 335 336 338 337 335 334 331 332 329 327 327 326 332 337 334 337 334 334 332 321 320 317 316 322 325 323 320 321 322 320 320 321 322 323 324 327
311 315 315 317 320 322 323 325 324 323 324 331 334 334 333 335 334 334 335 334 333 329 329 328 329 330 334 336 334 336 337 336 334 331 328 331 332 331 328 327 324 324 323 322 323 323 323 325 327
313 315 316 317 319 321 322 324 324 323 321 325 331 333 334 333 333 333 337 336 332 330 330 330 330 330 329 335 333 332 337 335 335 332 332 334 333 335 333 331 327 326 326 326 326 327 326 327 328
313 318 316 320 320 322 322 323 324 321 320 321 324 327 329 334 334 335 335 333 332 332 334 332 331 331 329 328 335 335 337 335 335 335 334 335 335 335 335 333 329 327 328 329 330 331 331 331 330
315 316 316 320 320 320 323 321 321 321 319 319 320 322 323 326 332 332 332 332 336 336 335 335 335 334 334 332 330 333 337 337 336 335 335 335 334 335 336 335 332 329 329 330 331 332 330 331 331
313 315 317 318 320 321 323 320 321 320 319 318 319 320 321 322 324 326 332 332 334 337 336 337 336 335 335 335 335 335 336 337 336 335 335 335 335 335 335 335 333 330 331 331 331 332 331 331 330
314 315 318 316 317 320 318 321 320 320 319 318 318 319 320 322 322 323 324 325 329 333 334 335 335 336 334 335 334 336 337 335 335 334 334 334 334 334 335 334 335 333 332 333 332 332 331 331 330
315 315 318 319 315 315 317 319 320 319 318 318 318 318 320 321 321 321 321 322 324 328 330 333 334 335 336 336 337 337 335 335 336 336 337 334 334 335 334 333 333 334 334 333 332 332 331 331 329
315 315 318 319 318 323 317 321 320 319 319 317 317 317 319 321 321 321 321 321 321 323 325 328 330 331 330 332 335 335 330 332 332 334 336 334 334 333 332 333 333 333 333 333 332 332 332 331 328
315 316 315 316 316 318 320 318 316 318 319 319 317 318 319 320 321 322 321 321 321 321 322 326 327 329 331 331 332 332 332 331 330 331 331 331 331 332 333 332 331 330 327 326 324 324 327 327 323
315 317 316 316 316 319 318 318 313 317 318 317 315 317 319 320 320 321 320 321 321 321 321 323 328 325 327 329 330 330 331 330 330 330 330 330 330 330 330 328 325 323 322 322 323 322 319 315 312
316 317 320 319 319 320 315 318 315 311 311 313 313 316 318 319 318 320 320 320 321 321 321 322 326 327 327 327 327 328 328 329 330 331 330 328 328 328 327 325 323 322 321 323 319 314 313 312 311
314 312 317 320 318 315 312 318 313 308 307 310 314 315 316 318 318 320 319 319 320 321 321 321 321 321 320 321 323 326 327 327 329 329 329 329 327 325 324 325 324 325 325 320 313 313 313 312 312
314 312 310 310 310 315 312 311 311 309 308 308 308 310 310 311 313 316 317 318 319 320 320 320 320 319 319 319 318 318 320 324 326 327 327 326 324 324 324 322 322 324 318 314 314 313 312 312 312
313 310 312 309 315 315 312 311 313 311 311 309 308 310 311 312 312 312 312 312 312 313 314 315 316 319 319 318 318 317 317 317 320 323 325 325 324 321 320 320 320 319 319 315 312 312 312 311 311
312 313 311 309 309 312 313 311 307 308 310 309 308 310 312 312 312 312 312 312 311 311 311 311 312 311 315 318 318 317 316 316 316 317 322 325 325 320 319 318 317 317 315 312 312 311 311 311 310
313 314 309 308 310 306 306 308 304 306 307 308 309 311 311 311 311 311 311 312 312 311 311 310 311 312 312 315 317 317 316 316 315 316 318 320 319 317 317 316 314 313 312 312 311 311 310 309 309

GFSSGP_850_thetae_078.txt.gz
Theta_e
324 325 325 325 325 320 321 320 323 328 332 331 332 335 338 340 337 335 342 344 339 337 336 336 334 334 333 332 324 332 339 323 325 334 336 336 338 338 337 337 334 320 314 312 316 320 319 322 323
322 325 324 324 325 323 321 317 320 322 330 332 333 331 337 340 343 342 342 340 339 336 336 336 335 335 333 330 323 336 339 322 315 329 337 339 340 339 338 337 326 314 313 316 319 319 319 319 320
323 324 323 324 325 324 318 318 318 323 328 331 331 331 333 339 341 341 340 339 339 336 337 336 335 334 333 326 327 339 335 317 313 316 334 339 340 340 338 334 319 314 315 318 319 320 320 320 319
322 323 322 325 325 320 317 316 318 325 328 330 329 328 332 335 340 342 344 338 337 338 337 336 335 336 332 326 332 336 321 318 310 310 323 337 340 339 336 327 314 315 316 319 320 320 321 321 321
323 321 322 325 324 319 316 318 318 323 328 327 327 329 333 338 340 342 347 338 336 337 336 336 337 336 332 327 338 337 323 316 311 313 312 328 334 333 326 316 314 315 316 319 321 321 321 320 321
321 321 323 324 323 320 317 319 318 320 323 327 326 329 331 336 335 340 345 342 335 337 336 336 337 334 330 326 338 335 324 318 313 312 313 314 321 319 315 315 315 315 316 318 319 320 320 320 320
319 318 322 320 322 320 319 320 318 316 319 326 327 327 332 332 337 337 341 342 336 336 336 337 337 334 331 322 336 334 330 321 314 313 314 314 314 315 315 316 316 316 317 317 317 318 318 318 319
318 321 320 321 321 321 318 319 320 320 318 324 328 332 334 332 333 335 337 339 335 334 335 337 337 335 331 321 328 337 334 329 318 315 314 315 315 316 316 317 317 317 317 318 318 318 318 318 318
317 319 319 320 321 320 319 319 320 323 324 330 329 329 330 331 334 334 332 335 334 333 335 336 338 335 332 324 323 336 336 333 327 318 315 315 315 316 316 317 317 318 318 318 318 318 318 318 318
314 315 316 316 317 318 320 320 320 324 330 333 334 336 332 331 331 331 332 332 328 334 335 336 338 337 333 327 320 329 338 336 334 326 318 316 316 316 316 317 317 317 317 318 318 318 318 318 318
314 315 313 315 318 320 320 323 322 325 327 332 332 335 330 328 328 327 327 326 326 334 336 337 338 338 335 330 320 323 334 337 338 330 321 319 317 317 317 317 317 317 318 318 318 318 318 318 319
312 312 314 315 317 319 319 322 323 325 326 329 331 331 330 327 325 325 325 323 325 332 336 339 339 338 336 335 324 318 324 333 338 333 325 322 320 320 319 318 318 318 317 317 317 317 318 319 322
310 311 314 314 314 318 319 321 324 323 324 327 332 335 332 329 326 326 325 325 327 328 330 330 333 337 337 336 330 319 325 326 329 334 333 327 323 321 321 321 319 317 317 317 316 318 321 323 323
310 310 311 313 315 317 320 321 323 323 325 329 332 334 333 330 330 330 326 327 330 326 326 325 326 333 333 335 334 329 321 322 330 330 334 330 322 325 325 322 319 320 319 319 319 321 321 322 323
308 309 311 312 313 318 319 322 324 322 322 328 332 333 333 335 334 335 328 328 327 325 329 327 325 326 328 332 332 334 333 331 326 321 321 319 317 324 328 326 322 323 323 321 322 322 322 323 325
309 308 312 313 315 318 319 321 322 321 322 323 326 330 332 336 337 333 331 330 330 328 326 327 327 327 328 328 331 332 333 334 335 334 333 327 328 332 333 331 329 326 325 324 323 324 324 325 327
307 310 310 314 314 318 320 322 323 321 320 319 321 323 329 331 332 332 333 332 331 331 327 328 328 329 328 330 328 327 330 332 333 335 334 331 331 332 334 334 332 330 327 327 328 328 329 330 330
308 310 315 315 317 318 321 320 323 321 320 319 319 320 322 328 330 332 332 331 333 333 330 329 328 329 330 328 330 331 328 328 332 333 334 334 334 334 334 335 335 332 330 329 329 330 332 330 330
308 310 313 316 318 319 320 319 320 321 321 320 319 319 320 321 326 330 332 331 333 333 331 332 332 331 331 330 329 329 330 329 331 334 334 335 335 334 333 334 335 334 332 330 330 331 331 330 330
309 313 316 317 318 319 318 319 320 320 320 320 320 319 319 320 321 323 329 330 332 332 332 334 334 333 332 332 332 327 329 329 331 335 336 336 335 334 334 334 334 335 333 331 332 332 331 330 330
313 314 315 317 316 314 315 316 316 319 319 319 321 319 319 319 320 321 321 324 327 332 333 335 334 334 331 333 334 333 333 332 332 334 333 335 334 334 332 333 333 332 333 333 332 331 331 330 329
315 314 316 316 316 319 315 321 318 319 320 319 319 318 319 319 320 321 321 321 321 322 326 330 332 333 333 333 332 334 332 332 331 332 334 333 332 333 333 332 331 331 331 331 330 329 329 329 329
315 315 316 315 314 318 317 319 317 318 319 319 319 319 319 319 320 321 321 321 321 321 321 323 327 330 331 330 330 331 332 332 330 331 332 330 330 331 331 330 329 330 330 328 327 325 325 325 323
314 315 315 315 316 317 317 319 314 318 318 318 318 320 318 319 320 320 321 321 321 321 321 321 323 327 329 328 328 330 329 329 330 329 330 330 330 327 328 329 330 329 326 325 325 325 323 319 318
316 316 317 317 318 319 315 318 316 310 309 313 316 316 317 319 319 319 320 320 321 321 321 320 322 323 328 327 327 327 328 329 329 330 328 330 329 329 327 326 325 327 324 323 324 322 322 322 314
316 315 318 320 318 317 313 317 314 307 307 307 309 315 316 317 317 319 320 319 319 320 321 320 320 322 323 325 324 326 328 327 327 326 328 328 328 329 328 328 326 323 323 324 324 322 317 314 313
313 314 311 312 311 315 314 311 310 309 308 308 307 309 310 312 314 315 316 317 318 319 319 319 319 320 320 320 320 319 319 319 324 325 327 326 327 327 326 324 323 323 322 321 320 321 315 315 312
311 309 312 311 316 316 312 311 312 310 309 308 306 307 310 311 311 311 311 311 311 312 314 315 317 318 319 319 319 319 318 317 317 318 322 324 325 325 325 324 324 323 322 322 320 315 317 312 312
311 311 309 309 309 314 314 311 307 307 309 307 306 308 310 311 311 312 311 311 311 311 311 310 311 311 311 311 314 318 318 318 317 316 316 319 323 324 324 325 325 324 322 317 316 315 313 312 311
312 312 307 309 310 305 306 309 304 304 307 307 306 308 309 310 310 310 311 311 311 311 311 311 310 310 311 311 312 315 317 317 317 316 316 316 321 325 325 323 318 316 316 315 313 312 311 311 311

GFSSGP_850_thetae_081.txt.gz
Theta_e
323 325 326 324 326 325 327 326 323 327 327 330 332 337 338 339 336 335 340 342 339 339 337 338 336 333 332 329 322 324 328 332 334 327 328 330 334 339 340 335 330 318 313 315 319 320 322 321 319
321 323 325 324 326 325 324 322 321 324 329 330 333 333 332 338 340 341 341 341 339 337 337 336 336 334 331 328 325 338 320 330 336 334 334 334 338 338 336 334 320 313 314 321 319 320 321 320 319
322 323 323 326 325 324 322 319 321 319 329 332 332 332 331 338 339 341 340 340 339 337 337 336 335 334 331 325 329 339 326 317 332 337 338 339 339 337 337 326 313 314 317 319 319 319 321 321 319
322 323 322 325 326 323 320 319 317 319 323 330 331 331 331 331 332 340 339 339 339 336 336 336 336 334 330 323 335 338 327 314 319 336 340 341 340 338 332 318 313 316 319 320 321 321 321 322 321
322 321 323 324 324 322 319 318 317 319 322 329 329 331 332 333 332 332 340 339 338 336 336 336 336 335 328 325 336 335 318 314 311 330 339 340 340 335 327 314 314 317 320 320 321 321 321 321 320
321 320 323 324 323 322 321 319 319 318 320 326 328 329 329 332 332 332 343 338 337 337 337 336 336 335 328 333 336 333 320 312 311 314 336 340 339 331 320 314 315 317 319 320 320 320 320 320 320
318 319 320 320 321 321 321 320 319 319 317 320 327 329 330 330 329 329 331 341 337 336 336 336 338 335 328 331 337 334 321 314 312 313 324 335 331 325 315 315 315 317 319 321 322 321 320 320 320
317 319 319 320 321 321 320 319 320 319 320 320 324 331 333 328 333 331 332 336 338 336 335 336 337 333 330 326 337 332 325 317 313 314 315 321 320 315 315 316 316 316 318 319 319 318 318 319 319
315 318 318 318 320 320 318 319 319 320 320 322 326 326 329 332 333 333 331 332 337 336 335 336 336 334 331 322 335 334 331 324 315 313 315 315 316 315 316 316 316 316 317 317 318 318 318 318 318
315 316 315 315 317 318 319 319 319 320 321 323 328 330 331 330 331 326 329 328 331 333 334 335 335 335 332 321 328 335 335 331 322 315 314 315 316 316 316 317 317 318 318 318 318 318 318 318 318
313 315 313 313 313 316 320 321 320 322 322 321 325 329 331 331 331 328 329 329 329 327 328 334 335 335 334 326 322 335 338 333 333 323 316 315 315 316 317 317 318 318 318 318 318 318 318 318 318
312 311 312 313 313 315 318 319 321 322 322 320 321 326 331 331 331 328 331 329 326 325 328 333 336 336 336 333 321 324 337 338 331 331 320 317 316 317 317 317 317 317 317 317 317 318 318 318 318
310 310 310 311 313 313 313 315 318 320 322 323 321 325 329 331 332 331 330 330 329 327 326 331 335 337 336 336 329 319 325 334 337 331 323 321 320 319 318 317 318 318 317 317 317 317 317 319 322
308 308 308 309 309 311 315 315 318 319 322 323 322 322 329 330 329 329 328 325 328 326 325 327 331 331 333 335 333 321 320 324 330 332 328 324 323 322 321 321 321 319 317 316 317 317 321 322 323
307 308 308 308 311 310 314 318 319 320 320 322 323 322 328 330 326 325 325 324 324 325 325 326 329 327 334 334 334 329 321 325 328 327 330 333 330 322 325 325 323 319 321 320 320 320 322 322 323
307 307 308 307 310 310 314 317 318 320 320 321 323 324 328 330 328 325 325 325 327 327 326 326 326 326 329 328 330 333 331 327 324 325 328 329 324 318 323 327 326 323 324 323 322 322 323 323 324
306 308 307 307 311 312 315 317 318 321 321 320 320 322 326 330 333 330 328 326 328 324 326 326 325 327 327 327 328 329 332 332 333 333 331 331 327 321 329 333 332 331 327 325 325 324 324 326 328
306 308 308 308 312 313 316 319 322 320 320 320 319 319 321 325 333 334 333 328 328 326 328 326 327 327 328 330 328 326 329 329 330 331 333 333 333 331 332 333 335 333 331 328 328 329 329 331 330
308 310 309 310 311 315 315 318 318 316 321 319 319 319 319 322 326 324 331 329 330 329 328 328 329 327 329 329 330 332 329 327 327 328 329 331 333 333 334 334 334 334 333 331 329 330 331 331 329
308 308 310 313 311 315 317 318 316 317 318 320 320 320 320 319 320 326 325 330 328 329 331 328 329 329 329 330 329 330 330 328 328 328 329 329 331 333 334 334 333 333 334 333 331 331 331 329 329
311 309 310 316 316 315 317 317 316 315 315 319 320 321 321 320 319 319 320 326 328 329 330 330 331 330 330 330 325 328 327 327 328 328 328 330 332 333 333 333 333 332 332 332 331 331 330 330 328
314 311 313 316 317 321 315 320 318 317 317 318 319 320 321 323 320 319 320 319 327 327 328 327 329 329 331 332 326 328 329 329 327 328 331 332 330 330 332 332 332 332 331 331 330 330 329 328 327
314 314 315 315 316 317 317 318 318 317 318 318 318 318 322 321 320 319 320 320 320 320 321 325 328 330 331 331 331 330 330 328 325 327 326 326 330 330 329 328 329 331 330 330 330 328 327 325 324
313 315 315 315 315 316 316 318 317 317 318 317 318 318 319 321 320 320 319 320 321 321 320 320 322 325 329 329 329 329 329 329 329 330 327 329 325 329 330 329 329 326 328 329 326 324 324 323 324
315 314 317 318 318 319 316 319 317 311 308 310 317 317 318 320 320 319 318 319 320 320 320 320 320 322 323 329 329 327 327 327 328 328 329 328 327 326 329 327 327 326 325 325 324 322 323 321 321
314 315 315 319 318 318 315 319 313 308 307 307 308 315 318 317 320 320 318 318 319 320 320 320 320 320 321 322 327 326 326 328 328 327 327 328 328 328 328 328 328 326 326 326 323 323 323 324 322
313 315 310 312 312 317 313 312 310 309 308 308 307 310 311 311 315 311 313 315 317 317 318 318 319 319 319 319 319 319 320 320 319 321 325 327 327 327 327 328 327 326 325 323 323 324 323 320 318
311 311 312 313 315 319 316 311 311 310 309 308 308 307 309 309 310 311 311 311 311 311 312 312 313 314 316 317 319 319 319 319 318 318 317 319 323 325 325 326 324 324 324 324 324 321 319 317 316
311 312 309 309 309 317 317 311 307 307 308 307 306 306 308 309 310 310 311 311 311 311 311 311 311 310 311 311 311 312 315 318 318 318 317 317 317 322 325 325 324 324 324 323 321 320 316 315 313
311 311 307 311 311 305 308 310 304 305 307 306 305 306 307 308 309 310 310 310 310 310 310 310 311 311 310 310 311 311 311 315 317 317 317 316 316 318 324 325 325 325 325 323 319 315 315 313 312

GFSSGP_850_thetae_084.txt.gz
Theta_e
324 326 328 327 326 325 326 325 325 326 328 331 331 333 335 339 337 341 342 342 344 344 345 338 338 334 332 330 324 322 333 330 324 329 331 333 332 336 342 337 331 319 314 329 336 336 324 319 318
326 327 327 327 326 326 324 324 325 325 327 330 334 336 336 340 341 343 344 342 345 346 345 341 338 334 332 328 323 325 330 335 324 331 330 335 336 340 339 333 321 315 332 332 323 323 320 318 317
323 326 325 326 326 325 324 324 324 324 326 331 332 334 334 338 342 343 341 342 343 345 344 344 337 333 331 325 330 320 332 336 331 331 333 336 339 338 336 323 313 320 333 321 321 321 319 318 317
322 324 324 327 324 322 322 323 322 323 322 324 332 333 335 336 333 335 339 342 343 344 344 339 336 334 331 323 337 331 319 333 335 336 336 339 339 336 331 314 314 323 320 319 320 321 320 319 319
321 322 322 323 321 321 322 322 321 322 321 322 328 333 334 332 334 332 334 340 343 342 343 337 336 335 330 322 338 337 319 320 336 339 340 339 339 336 321 313 316 320 320 320 322 322 322 321 320
319 320 320 321 320 320 321 321 322 322 322 322 323 328 332 336 332 332 335 338 342 342 341 339 337 335 327 328 338 336 318 314 330 340 341 341 339 334 317 314 318 321 322 322 323 322 322 321 319
319 320 318 317 317 319 320 320 322 322 322 322 324 326 329 338 340 335 334 335 341 340 340 342 337 335 327 328 336 329 319 312 314 338 340 339 335 329 316 315 319 322 322 322 323 322 321 320 320
317 318 318 316 316 316 318 320 320 322 323 322 321 327 327 332 338 335 333 333 333 340 339 340 338 335 334 334 337 334 320 313 311 329 339 339 338 328 315 315 317 321 321 322 322 320 320 319 319
315 318 317 316 316 316 315 318 319 320 321 322 322 323 325 332 335 333 331 331 327 337 339 338 338 337 336 336 337 332 322 315 313 314 335 335 332 320 315 316 316 320 321 321 320 319 318 319 319
315 316 315 314 314 315 316 317 318 320 320 321 322 325 331 332 330 335 332 329 328 329 332 336 337 336 335 335 337 334 328 321 322 326 320 330 327 330 328 316 316 317 317 317 318 318 318 318 318
312 315 314 314 314 314 316 318 318 320 322 321 322 322 329 332 333 336 331 328 326 325 324 330 335 335 332 324 335 335 334 331 327 323 328 330 328 319 317 317 317 317 318 318 318 318 318 318 318
310 309 310 311 313 313 315 317 319 319 319 321 322 322 328 331 332 333 331 327 325 325 325 327 331 335 333 332 327 335 335 334 329 318 315 317 323 318 321 325 321 320 318 319 318 319 318 318 318
309 307 307 308 310 311 312 314 316 318 319 322 322 321 324 327 328 330 331 326 325 325 325 326 329 334 335 332 330 334 335 334 333 328 317 316 316 316 317 317 317 317 317 318 318 318 318 318 318
306 308 309 308 308 308 311 312 313 315 317 320 323 323 322 322 328 331 332 329 327 327 327 327 326 332 332 335 329 324 334 337 336 330 324 319 317 317 317 317 317 317 317 317 317 317 317 320 322
306 307 307 307 308 310 308 311 314 313 317 321 322 323 323 321 327 329 329 329 328 327 327 326 326 330 330 333 335 326 320 332 335 336 333 324 323 322 321 320 321 322 320 319 317 317 319 324 323
305 305 308 307 307 308 309 309 310 312 315 319 320 322 324 324 328 326 328 328 328 327 327 327 326 325 328 332 334 331 320 321 325 331 331 332 331 330 325 327 327 325 321 321 320 321 321 324 326
305 306 307 307 307 308 311 309 310 313 316 319 321 321 323 325 328 328 328 327 327 326 328 327 325 327 329 333 330 332 328 324 325 327 329 329 333 334 326 321 325 328 324 324 324 323 323 327 326
307 307 307 308 308 309 311 310 311 317 319 321 321 322 322 324 327 329 328 326 327 327 325 326 326 327 327 329 328 330 332 333 332 331 331 327 326 326 324 320 331 333 331 329 326 325 324 326 329
307 308 309 309 308 309 311 311 312 317 320 320 321 322 321 322 326 327 329 326 330 326 327 327 326 326 326 327 328 329 329 329 330 331 331 332 332 332 332 329 333 334 334 332 329 327 328 329 331
309 309 309 309 310 310 311 312 314 318 318 318 320 322 321 319 323 326 325 326 329 328 326 327 326 327 327 328 330 331 330 329 328 328 329 329 330 331 332 332 333 333 334 334 332 329 330 331 331
309 309 308 311 311 312 312 314 316 317 316 317 318 320 321 320 319 325 323 325 321 327 329 327 327 328 328 328 325 324 326 329 330 329 330 328 329 329 330 331 332 333 333 333 333 332 330 330 329
314 310 310 312 314 316 315 318 318 318 318 317 317 318 316 320 318 319 322 323 321 323 325 325 328 329 329 329 325 327 325 325 327 327 327 328 331 331 331 331 331 330 332 332 332 331 330 330 329
315 312 312 309 318 318 317 318 319 318 319 319 317 318 318 320 320 318 319 320 325 323 323 323 323 326 328 324 328 327 326 328 327 326 325 326 328 327 329 330 329 328 328 330 331 331 329 329 329
315 316 316 316 317 320 318 319 318 318 317 316 318 319 320 319 322 320 317 319 320 321 324 326 327 328 328 329 329 330 329 328 328 328 325 324 324 325 325 326 329 329 328 329 328 327 329 325 324
315 318 320 320 320 320 317 320 318 313 312 312 312 319 319 321 320 316 317 318 319 319 317 318 319 323 328 329 328 328 328 328 327 327 328 327 326 327 325 324 325 328 327 328 328 326 325 323 323
316 317 320 319 322 320 317 320 317 312 311 310 310 319 318 319 320 318 312 320 317 316 317 318 318 320 322 326 327 327 328 327 327 328 328 327 328 328 327 327 328 328 327 325 324 325 323 323 323
316 317 312 317 315 318 317 316 313 313 313 312 315 314 311 312 316 314 310 312 312 312 315 316 317 318 318 319 321 323 322 323 326 327 328 327 327 328 326 327 327 328 327 326 326 326 324 322 322
314 312 317 318 321 321 315 316 317 314 313 313 312 311 309 309 310 313 312 310 310 310 310 311 311 313 313 314 316 318 318 318 318 318 318 319 323 325 326 326 327 327 327 326 324 323 323 324 324
315 315 313 313 314 318 317 315 310 313 312 312 311 309 307 307 309 309 310 309 309 310 310 311 311 311 310 311 311 312 312 315 318 318 317 317 317 318 324 326 326 326 326 325 323 323 324 322 318
313 314 312 316 315 312 315 313 309 311 310 310 308 308 306 306 307 307 307 307 309 309 309 309 309 309 310 310 310 310 311 312 314 316 317 317 316 316 318 324 326 326 324 324 324 324 320 319 316

GFSSGP_850_thetae_087.txt.gz
Theta_e
321 325 328 328 327 325 327 326 325 326 326 327 330 332 335 335 339 344 344 343 343 344 344 343 340 337 333 331 328 322 322 321 324 328 333 333 332 336 341 339 333 319 327 336 335 333 325 320 324
324 324 326 326 326 326 325 324 325 325 326 326 328 332 336 337 341 345 345 344 343 344 343 343 340 337 333 331 325 322 332 321 326 327 330 332 334 336 342 337 325 316 336 336 335 323 318 318 320
324 323 324 324 327 327 325 324 324 325 324 327 330 334 334 335 341 344 345 343 343 343 344 344 339 336 332 330 322 327 332 322 330 333 333 334 336 340 340 332 323 334 335 335 326 320 318 317 316
320 322 324 325 322 323 323 323 324 324 324 325 329 333 333 339 342 343 342 344 344 344 344 343 339 335 333 328 323 328 333 329 329 333 336 336 338 341 335 321 324 336 331 322 322 319 318 317 316
320 321 321 321 322 323 322 321 321 324 323 324 323 329 333 339 343 342 343 334 343 343 343 343 339 334 333 327 333 320 333 335 332 333 335 339 339 336 327 317 336 336 321 322 321 320 319 319 317
319 318 321 320 320 320 320 320 322 322 322 322 323 324 329 339 338 342 341 339 335 343 342 342 338 335 333 326 334 332 318 333 335 336 338 339 338 335 317 314 333 329 321 322 322 321 321 320 320
319 319 318 318 318 318 320 319 321 321 322 322 322 324 325 339 340 342 341 339 334 338 342 341 337 336 333 326 336 338 326 317 337 340 341 340 338 328 314 316 329 321 322 322 323 322 321 319 319
316 317 318 318 317 317 317 318 319 320 321 321 321 323 324 327 341 339 340 335 334 331 338 340 339 336 333 331 337 336 321 316 329 340 342 340 338 329 314 317 326 322 323 323 323 322 321 320 319
315 318 317 316 316 316 315 316 317 318 320 320 321 323 323 332 339 339 338 337 334 332 331 336 339 338 337 335 335 335 325 314 314 339 340 339 336 326 314 319 328 325 324 323 322 321 320 320 319
315 316 315 314 314 314 315 315 316 316 318 319 320 322 323 332 333 336 336 336 334 332 330 330 334 338 338 337 336 336 324 316 314 333 340 337 336 331 328 317 320 322 324 323 321 319 318 319 319
312 314 314 314 314 314 315 316 317 317 319 318 319 320 322 329 335 334 335 335 331 331 327 326 325 334 334 337 336 336 331 326 329 328 333 336 334 332 332 319 316 321 322 321 318 318 318 319 325
310 310 310 311 312 313 315 314 315 317 318 318 321 324 324 323 333 334 334 334 332 327 326 327 326 326 333 335 335 336 335 331 330 331 331 333 332 331 331 318 316 317 317 322 319 321 323 324 323
308 309 308 307 308 309 311 312 314 314 316 318 319 322 323 324 327 331 332 332 331 325 325 327 326 326 332 332 332 336 334 333 331 329 331 331 331 326 330 330 329 330 327 329 328 327 326 323 324
306 307 308 308 308 308 309 309 310 311 313 315 318 320 322 324 325 329 330 330 329 325 324 325 325 326 327 332 332 332 335 334 334 331 328 329 330 326 330 330 329 328 328 325 324 324 325 324 325
305 306 307 306 306 308 309 310 310 309 310 314 316 318 322 324 323 323 329 330 329 325 327 325 326 326 327 331 332 330 333 334 334 334 331 327 328 325 326 327 324 319 320 324 325 324 324 326 328
307 306 307 307 307 306 308 310 310 309 308 311 315 318 321 323 324 322 326 325 329 327 327 327 327 326 327 329 330 332 327 334 334 335 336 331 329 326 321 325 326 330 330 323 325 322 322 329 330
307 309 307 307 307 307 308 309 309 308 309 310 313 316 319 322 325 325 327 326 325 327 329 328 327 327 326 326 329 332 332 328 334 335 336 337 332 328 326 326 326 331 332 328 327 328 328 329 328
308 308 308 308 308 308 308 309 309 309 309 313 313 316 319 322 324 327 329 328 327 328 328 328 328 326 326 325 326 334 334 330 330 332 333 333 333 334 335 330 325 332 332 330 329 329 329 329 328
307 308 308 308 308 309 310 308 309 309 316 316 316 319 320 322 324 324 328 328 328 328 327 328 330 328 326 326 325 332 333 331 330 329 328 329 331 332 332 331 327 331 333 333 331 330 329 328 328
307 308 310 309 309 309 311 309 309 310 316 319 319 320 321 322 323 326 325 327 329 329 328 329 328 327 326 326 325 331 332 332 333 333 332 332 332 331 331 332 330 332 333 333 333 331 329 329 329
309 310 309 309 310 311 310 310 310 311 316 318 319 320 322 322 320 324 325 325 325 325 328 327 329 326 326 327 327 330 328 329 330 331 330 329 329 329 330 330 330 332 332 333 334 333 330 330 331
312 309 310 312 312 313 311 311 310 313 317 318 318 318 320 320 319 320 325 325 321 321 322 328 328 329 327 327 328 328 326 327 329 329 329 329 328 329 329 330 330 330 331 331 331 331 332 331 331
313 313 312 312 313 314 313 315 313 315 317 318 318 318 320 318 319 318 322 324 322 321 322 325 325 327 327 327 328 328 326 327 326 328 327 325 325 323 325 329 331 330 330 329 329 329 328 331 330
314 310 311 312 312 319 318 320 319 318 318 318 319 318 320 318 319 316 318 322 324 320 322 323 323 323 324 325 324 326 325 325 325 327 326 325 325 323 324 327 327 328 328 326 327 327 325 325 327
317 319 321 322 324 320 318 321 317 315 314 314 314 319 320 317 318 315 314 317 321 320 322 324 325 324 325 327 328 326 326 326 322 322 323 324 324 322 322 324 323 324 326 326 326 325 326 327 328
317 318 322 322 322 320 318 325 318 314 313 312 315 321 318 315 312 316 314 316 317 320 317 317 318 320 321 326 327 328 328 327 326 326 326 327 325 325 324 323 323 324 324 325 327 326 327 326 324
317 321 315 321 318 322 322 318 316 315 317 318 319 316 313 312 310 311 312 311 312 314 314 315 316 318 320 321 325 325 326 327 327 327 328 328 328 328 327 327 326 327 327 327 327 325 326 325 323
315 314 316 320 324 322 318 317 317 317 315 315 312 311 310 309 310 312 312 310 309 310 310 311 312 313 314 316 317 318 321 324 325 327 329 328 329 328 326 326 327 327 327 327 327 326 325 325 325
316 316 315 314 316 322 318 317 313 315 315 312 309 307 307 307 307 308 311 312 310 309 308 309 310 310 310 311 312 312 314 316 317 317 317 318 321 323 325 326 326 327 327 327 327 326 326 324 323
315 315 314 317 317 316 317 316 313 313 311 310 308 308 307 306 307 307 305 305 306 306 307 308 308 308 309 309 310 310 311 312 313 315 316 316 316 317 318 323 326 327 326 327 327 326 324 323 322

GFSSGP_850_thetae_090.txt.gz
Theta_e
314 322 326 329 328 326 326 326 324 325 324 325 325 328 332 334 343 343 340 343 345 346 342 340 338 336 333 331 329 326 323 324 330 334 335 332 331 337 339 341 333 317 334 338 337 338 327 325 326
316 324 325 325 326 326 323 321 324 323 323 324 326 327 331 337 344 341 338 338 344 344 342 342 340 337 334 331 329 323 320 321 325 330 332 333 333 338 341 337 326 329 336 334 333 329 321 324 324
323 324 324 324 326 327 324 322 322 323 324 325 327 327 332 339 343 345 341 341 344 344 342 343 341 338 334 331 328 321 331 325 329 328 330 332 334 339 339 334 320 333 336 334 320 318 319 320 319
318 322 323 324 323 322 323 322 323 322 323 325 325 327 333 336 341 345 339 343 343 344 342 342 341 339 333 331 325 322 331 321 328 329 332 332 337 343 339 330 321 337 336 334 319 318 317 317 316
320 321 321 322 322 322 321 322 322 321 322 324 324 325 328 337 339 342 338 344 343 342 341 343 342 338 333 330 323 325 333 323 331 334 336 336 337 342 337 326 333 334 325 320 319 317 317 316 316
319 319 322 321 319 318 320 320 320 320 321 323 323 323 328 336 333 334 343 343 343 342 342 341 342 338 333 330 325 322 332 333 328 334 337 336 338 340 331 319 334 322 321 323 324 319 318 318 317
320 319 318 318 318 318 318 319 319 319 321 321 322 320 327 338 335 331 331 340 341 341 339 339 341 337 335 331 328 328 320 335 333 333 336 339 339 336 327 330 336 323 322 326 321 321 320 320 319
316 316 318 318 316 316 316 316 317 319 319 321 321 320 321 334 337 333 338 336 335 337 337 334 339 337 335 331 325 338 330 317 336 336 337 340 338 334 318 335 335 321 322 324 322 322 320 319 319
315 316 317 316 316 316 316 315 315 315 317 319 320 320 321 328 337 335 340 339 336 336 335 335 331 336 337 333 330 339 334 318 324 339 340 340 339 328 316 335 334 322 322 323 323 322 320 320 319
314 316 316 314 313 314 314 314 315 316 316 317 319 320 320 328 333 331 334 337 338 335 334 333 331 332 337 337 333 336 332 320 315 336 340 339 337 326 315 329 335 328 323 323 322 321 320 319 319
311 314 314 313 313 314 314 314 315 316 317 318 318 319 318 319 324 329 328 328 332 333 332 329 328 327 328 335 334 334 335 321 313 323 338 337 336 328 317 320 334 326 323 323 322 320 319 318 320
309 310 310 311 311 311 312 312 314 314 314 315 316 319 323 323 324 329 330 327 334 334 332 331 331 331 326 328 327 329 335 321 315 316 334 335 335 331 323 321 319 321 322 322 321 318 318 319 324
308 308 308 308 308 308 308 309 311 312 313 313 314 316 318 321 322 324 325 329 333 333 330 331 328 327 325 327 327 335 334 328 326 326 327 329 333 332 327 325 317 319 321 319 320 321 324 325 322
306 306 306 306 307 308 309 308 308 309 311 311 312 314 316 319 321 324 324 329 329 332 328 327 327 327 327 327 325 330 332 331 330 330 330 332 332 332 327 326 320 321 324 325 329 326 326 325 323
306 306 306 306 306 307 307 308 309 308 308 309 310 313 314 317 320 324 325 327 329 329 328 327 326 327 327 327 325 326 330 331 331 327 331 332 331 328 329 331 330 329 329 326 325 323 324 325 324
306 306 307 306 306 307 306 306 307 309 309 309 308 309 313 317 321 323 324 327 324 326 326 326 328 326 326 326 326 324 324 330 331 333 325 327 328 326 327 328 326 324 322 320 323 323 324 324 325
306 307 307 307 307 307 307 306 307 307 307 308 309 308 311 315 320 322 325 326 325 324 324 326 328 329 327 326 328 326 324 323 330 330 334 326 329 327 323 322 322 323 325 325 324 322 321 321 324
307 308 308 308 308 309 309 307 307 308 308 308 308 309 311 314 319 323 324 328 326 326 323 323 326 329 328 327 328 325 330 329 327 331 331 333 330 331 328 328 327 330 331 331 328 326 326 327 328
307 308 307 307 307 307 309 309 309 309 308 309 312 310 312 315 321 323 324 325 327 327 325 324 325 328 329 327 327 322 326 332 329 329 332 332 333 332 331 330 329 328 332 332 329 329 327 328 328
308 308 308 307 307 308 309 310 309 309 308 310 315 315 320 321 321 321 322 324 327 327 327 327 324 324 329 328 326 325 324 330 331 327 329 329 329 332 333 334 332 328 328 331 332 332 330 329 328
308 309 309 310 309 308 310 311 310 309 308 314 318 319 320 321 321 321 325 325 327 326 326 327 328 328 329 328 327 325 325 329 331 328 328 328 330 331 331 331 332 331 330 332 332 333 332 331 329
311 310 310 311 311 311 310 310 309 308 308 314 316 319 320 321 320 321 323 324 326 326 324 323 327 328 328 327 327 326 326 327 329 330 331 331 330 329 328 329 329 329 330 331 331 331 331 331 331
313 311 313 312 312 311 313 312 307 309 312 314 315 318 320 321 319 319 322 324 325 321 321 321 324 327 328 327 327 328 327 327 329 329 328 328 328 327 323 323 324 326 329 329 330 330 328 328 329
314 311 311 311 313 315 314 313 311 311 313 315 317 318 320 320 318 317 320 321 324 322 320 322 323 324 326 325 328 327 327 327 326 327 327 328 326 325 325 325 323 323 323 327 329 326 327 327 326
315 312 317 314 312 320 315 313 318 313 313 316 317 320 320 319 317 316 317 318 320 322 321 321 323 324 324 322 323 325 325 326 326 326 323 323 326 326 325 324 323 322 327 327 328 327 326 325 324
316 317 320 319 322 320 316 321 317 315 313 313 319 316 315 314 315 317 316 317 318 321 320 322 322 322 322 323 324 325 326 324 324 321 322 322 324 325 325 322 323 324 324 323 325 326 325 324 324
315 318 314 319 318 323 320 315 314 316 314 316 315 313 311 310 312 314 316 313 312 314 314 317 318 319 320 321 323 324 323 324 323 324 325 326 325 326 324 323 323 324 323 324 325 325 325 325 323
314 314 315 317 321 323 321 317 319 316 312 310 309 310 309 309 310 310 310 312 310 311 311 312 314 314 315 316 316 320 325 326 325 326 325 326 327 327 327 326 326 326 326 326 326 326 324 325 325
316 316 315 314 316 323 318 318 315 314 310 309 308 308 307 307 309 310 310 310 308 308 308 309 310 310 311 311 312 314 315 317 319 321 323 326 328 326 327 326 326 326 325 326 326 327 326 324 325
313 315 313 312 315 313 313 316 312 311 309 309 307 306 307 307 306 305 307 311 308 306 307 308 308 308 308 309 310 310 310 311 312 314 316 316 317 317 319 321 321 324 325 326 326 326 326 326 325

GFSSGP_850_thetae_093.txt.gz
Theta_e
309 322 326 327 325 322 325 328 322 323 322 324 324 323 326 336 339 338 343 345 344 345 342 337 334 333 329 328 327 326 329 332 334 334 333 331 331 338 339 339 322 335 339 337 339 336 333 326 327
311 323 326 326 322 324 322 319 319 321 322 323 323 326 326 345 343 340 343 343 343 344 343 341 335 335 332 330 328 327 325 327 331 333 333 331 330 338 340 336 322 335 339 338 337 328 322 324 321
318 324 324 320 322 323 321 319 317 318 321 321 323 326 332 344 341 340 340 343 344 344 343 340 339 336 334 331 329 325 321 321 328 330 333 331 331 339 340 331 329 334 335 335 330 320 322 323 320
319 321 322 323 321 320 322 321 321 320 322 322 323 325 336 341 343 341 338 343 342 344 342 342 342 337 335 330 328 321 323 325 327 327 331 330 333 338 339 328 331 337 333 325 321 319 320 319 318
320 320 319 320 321 318 318 319 320 318 319 320 321 323 328 340 338 339 338 343 342 343 342 341 342 340 334 330 326 321 327 324 330 328 331 331 336 339 339 326 330 336 336 317 317 318 317 316 316
319 319 318 320 318 316 315 318 318 317 318 319 320 323 327 339 338 336 339 338 340 341 341 343 342 339 333 331 325 323 330 323 329 327 332 334 337 340 338 331 332 332 321 318 318 317 316 316 316
318 316 316 316 315 314 314 316 314 316 316 317 319 319 329 334 334 336 338 338 340 341 341 343 341 339 333 331 326 324 331 334 329 333 336 337 338 339 338 334 334 328 319 322 318 318 317 316 317
316 315 317 316 316 315 314 315 316 315 314 316 319 318 321 328 335 335 336 334 337 340 339 341 341 338 334 333 328 330 320 334 330 332 335 338 338 339 333 330 333 322 330 331 319 319 319 319 318
314 313 315 315 315 314 314 312 313 314 315 316 317 319 321 327 335 334 332 332 334 334 337 337 339 337 334 334 331 332 334 321 332 334 335 338 339 337 331 333 333 333 333 324 320 320 319 319 318
312 312 314 313 312 312 312 312 313 314 314 316 316 317 320 324 329 334 331 332 332 332 335 336 336 334 331 330 332 329 337 333 317 335 337 337 338 336 328 333 332 334 325 323 322 321 320 319 319
310 312 312 313 312 312 311 310 310 313 313 314 313 314 315 319 326 327 326 328 328 333 332 332 333 333 331 329 330 330 335 332 322 325 338 339 338 338 322 333 331 327 322 323 322 321 320 319 319
307 308 308 309 309 308 308 308 308 309 311 312 312 312 313 314 318 323 327 327 328 330 332 329 331 331 330 331 331 330 331 328 329 317 333 337 336 333 318 330 331 322 322 323 322 321 319 318 320
305 306 307 307 306 306 307 308 307 307 308 309 310 311 312 314 315 318 322 327 326 328 330 331 332 330 329 327 326 326 329 329 328 322 330 336 331 332 319 320 329 322 322 323 322 320 318 318 321
305 305 305 305 306 306 306 307 307 308 308 308 308 309 310 311 313 314 319 324 325 326 328 330 330 331 330 330 327 325 325 325 330 321 322 331 334 334 328 324 322 321 322 322 321 319 321 323 323
305 305 305 305 305 306 306 306 306 306 307 308 308 308 308 309 312 314 317 323 325 324 323 327 327 328 328 327 326 327 327 326 328 330 328 326 331 333 333 326 322 317 320 320 322 324 324 325 323
305 304 305 305 306 306 306 305 305 305 306 307 308 308 308 308 310 314 319 323 325 324 323 326 328 325 325 327 327 326 325 326 330 329 329 330 328 332 332 329 323 320 323 327 325 325 322 323 324
303 302 305 306 306 307 306 305 305 305 306 307 307 308 308 309 308 313 320 322 324 326 325 326 325 326 326 325 326 327 326 325 328 325 325 330 331 331 330 329 330 329 328 326 324 321 322 323 323
303 303 305 306 306 306 306 306 307 307 306 305 306 306 307 308 308 311 315 320 321 326 325 325 323 325 325 327 327 327 327 324 326 328 326 328 329 328 328 330 329 328 325 322 323 323 323 321 321
305 305 306 306 307 307 306 306 307 308 308 308 306 307 307 308 308 309 319 321 323 325 325 325 324 324 324 327 327 327 328 327 326 325 329 330 328 329 328 326 325 326 327 327 328 327 325 324 326
306 306 307 307 307 308 308 308 308 309 308 308 307 308 309 310 309 315 323 320 323 324 325 325 325 327 326 327 326 327 327 326 328 327 328 326 330 329 330 328 329 330 331 332 331 329 328 328 328
306 306 308 309 308 308 309 308 307 308 309 309 308 310 316 317 319 320 320 320 321 323 324 324 325 324 324 324 325 328 326 325 325 327 327 327 324 330 330 329 330 331 329 330 331 331 331 331 330
310 309 310 313 313 307 308 308 306 307 308 307 309 315 316 318 319 319 319 319 323 323 324 325 325 326 325 323 326 328 327 325 324 325 329 326 326 328 328 328 329 332 330 327 329 331 332 331 330
311 311 313 313 311 310 309 312 306 306 307 306 310 315 313 317 319 319 321 322 323 323 323 321 321 325 327 326 327 327 327 326 325 326 329 325 326 326 324 325 328 328 329 329 329 329 329 328 329
310 310 310 310 312 309 311 306 308 309 310 310 313 315 319 319 319 318 319 321 322 322 322 322 324 325 327 327 327 327 327 327 326 326 327 329 327 329 327 326 325 325 325 325 326 328 328 325 327
313 314 314 313 312 312 314 311 310 313 314 313 314 318 318 318 316 316 319 319 319 321 321 321 322 324 324 325 326 325 325 326 326 326 326 327 327 327 325 325 325 324 324 324 325 324 326 327 327
314 314 319 319 321 319 314 318 316 313 316 316 315 314 315 314 313 313 314 315 316 318 320 320 322 322 322 323 323 323 323 325 326 325 324 325 324 324 322 325 325 323 322 323 325 326 326 327 326
315 318 314 318 318 317 316 314 313 311 310 314 313 311 309 309 310 310 312 311 314 315 316 317 318 320 321 321 321 320 320 322 321 321 321 321 323 321 324 324 324 323 323 323 324 323 324 325 326
314 314 313 313 319 324 319 317 317 311 308 309 309 309 308 308 309 308 310 310 311 310 312 315 315 315 319 318 321 321 323 323 322 322 323 324 324 325 325 325 324 323 323 324 324 323 325 323 323
314 314 314 312 313 319 317 317 311 308 308 309 309 307 307 308 309 308 309 309 309 308 309 309 309 310 311 312 312 314 315 318 322 321 323 324 325 326 326 326 326 325 325 324 323 324 325 325 323
312 313 310 310 313 310 312 316 310 310 309 308 308 307 307 307 307 308 309 310 307 306 306 307 306 307 308 308 308 309 310 311 312 313 314 315 316 316 316 318 320 323 325 325 325 325 325 325 325

GFSSGP_850_thetae_096.txt.gz
Theta_e
310 320 323 328 323 320 325 326 322 323 322 322 322 321 319 327 332 334 344 343 344 342 336 331 328 326 326 326 329 330 333 334 333 333 332 330 336 336 342 337 319 332 337 339 339 339 335 330 326
315 323 326 325 320 323 321 321 323 320 320 320 322 322 323 336 343 342 343 343 344 343 340 334 331 329 327 326 326 328 329 332 333 333 333 331 334 336 339 333 324 337 337 340 338 337 325 324 320
318 324 323 320 318 320 320 318 317 317 320 320 320 322 328 343 341 342 342 343 344 344 342 337 334 332 330 329 327 326 325 326 329 332 332 330 332 338 339 328 333 337 338 338 333 324 322 321 317
322 322 322 320 320 319 320 319 319 319 320 320 319 317 339 341 339 339 336 342 344 344 342 340 335 335 333 331 328 326 323 322 325 328 333 332 331 338 340 327 334 335 337 336 326 320 322 319 318
319 320 318 319 320 318 317 318 318 317 317 319 318 318 330 341 341 339 336 339 340 343 341 340 339 336 335 331 329 323 320 321 322 329 332 332 330 338 339 329 335 335 332 333 323 321 320 319 317
318 317 317 318 317 315 314 315 315 315 315 316 316 318 325 337 341 339 339 339 338 340 341 341 341 339 335 330 328 321 324 330 324 329 327 330 331 338 339 331 335 336 332 324 319 319 317 316 316
316 314 315 317 316 314 314 314 313 313 313 313 315 316 321 333 333 335 337 337 337 342 341 341 342 339 335 330 327 322 327 330 322 331 329 331 333 339 339 330 333 336 328 317 317 317 316 316 316
316 312 316 315 316 315 314 313 313 313 313 315 315 314 319 324 333 334 335 335 336 336 337 339 341 339 335 331 327 324 326 335 327 329 332 335 335 339 339 332 332 334 322 318 317 317 316 316 317
313 312 313 315 315 314 313 310 312 311 313 313 315 314 316 329 329 334 334 333 333 334 336 336 340 340 336 332 328 326 322 328 332 329 334 337 337 338 338 335 327 329 325 331 318 318 318 317 317
311 310 312 312 312 312 312 311 309 309 310 313 314 314 315 320 326 328 331 331 331 332 332 333 336 337 336 334 333 327 328 322 321 333 332 334 338 338 339 332 322 331 332 334 321 320 319 319 318
309 311 311 312 311 311 308 308 308 308 309 310 311 311 312 314 317 323 328 331 329 330 332 331 333 333 334 333 331 330 329 333 329 319 334 334 337 339 337 332 331 332 334 328 322 321 319 319 318
307 307 307 307 308 307 307 307 307 307 307 308 307 308 309 312 314 315 319 327 327 327 331 332 332 332 332 333 331 331 329 332 333 328 322 334 336 338 338 331 331 332 325 322 322 322 320 319 319
305 304 305 305 305 305 306 306 306 307 307 308 307 308 308 310 311 313 314 320 328 328 328 331 332 331 331 331 330 331 329 329 330 326 328 326 333 337 336 330 330 328 325 323 322 322 320 319 319
304 305 305 305 305 305 305 305 305 306 307 307 307 308 308 308 310 310 313 316 324 324 327 326 327 329 330 331 329 329 326 329 328 327 327 328 331 332 333 330 332 330 323 324 323 321 320 318 319
305 304 304 304 305 305 305 305 304 305 305 305 306 307 307 307 307 307 309 313 321 323 324 326 328 328 328 329 330 328 328 326 326 326 327 328 327 332 327 326 329 329 323 324 324 322 319 320 321
304 303 304 303 305 305 305 304 304 304 304 304 305 304 305 305 307 308 307 312 322 322 324 324 324 324 326 326 327 327 327 327 328 330 328 327 323 326 331 325 319 322 321 323 324 321 321 323 323
300 301 303 304 305 306 305 305 305 305 305 304 304 305 305 306 307 308 308 311 319 322 325 325 324 324 323 326 325 326 326 325 326 327 326 324 325 324 326 331 332 327 321 321 322 323 324 323 323
302 302 303 304 305 305 306 306 306 305 306 305 305 305 305 306 306 307 308 308 312 322 320 326 325 326 326 326 326 326 326 326 326 327 325 323 321 327 326 326 330 328 321 327 326 324 325 323 322
304 304 304 305 305 306 306 306 306 306 306 306 307 307 307 308 307 307 308 308 311 322 320 323 326 324 324 326 326 326 327 327 327 326 327 325 324 326 327 328 330 329 329 327 326 327 324 321 323
304 306 306 306 306 308 308 308 307 307 307 307 307 307 307 308 307 307 309 309 320 319 323 323 325 324 324 325 326 327 327 327 328 327 327 328 327 328 329 330 328 330 330 330 328 324 323 324 324
303 302 305 306 308 309 310 308 307 306 307 307 307 308 308 308 309 312 312 316 322 321 324 323 324 324 324 324 327 325 327 327 327 327 328 327 329 328 327 327 327 330 329 325 325 328 329 327 326
307 307 308 310 313 312 308 308 306 304 307 307 307 308 308 311 316 315 317 320 321 321 323 323 323 323 324 325 324 324 325 326 326 326 327 327 328 328 327 329 329 326 326 327 328 329 328 327 329
307 310 310 313 313 310 309 309 305 304 306 307 304 307 313 315 315 317 318 320 320 321 323 323 323 323 325 326 326 325 325 322 324 327 326 324 326 327 327 329 328 327 329 327 326 328 326 327 329
308 309 311 311 313 306 309 306 306 311 313 312 310 313 315 316 316 317 318 320 323 321 322 321 322 321 322 325 326 328 326 326 326 327 327 324 324 328 326 325 328 328 327 326 327 328 328 329 327
309 312 312 306 312 311 314 306 304 313 314 313 313 314 313 314 316 316 316 318 319 320 321 322 321 322 323 324 325 326 327 326 327 326 326 325 325 325 326 327 327 324 324 325 326 326 326 326 326
313 314 317 317 319 317 313 314 316 311 312 313 313 311 311 312 312 313 314 315 317 319 320 320 321 322 322 323 323 324 323 323 324 324 327 326 326 327 326 326 326 326 325 324 324 324 324 324 324
315 318 315 316 317 311 315 315 312 310 309 311 311 309 309 309 310 310 311 311 311 314 314 317 319 320 320 321 321 320 323 324 323 323 323 322 324 325 325 323 323 324 325 325 323 324 324 324 325
314 313 316 313 314 322 319 317 315 310 307 310 309 309 308 308 308 308 309 309 307 309 311 312 314 317 318 319 321 322 321 321 323 322 321 321 322 322 321 324 325 325 324 324 323 323 324 324 323
313 314 313 313 314 318 316 317 309 308 306 308 309 307 307 307 307 306 308 307 306 306 307 308 310 311 312 313 316 316 318 320 321 322 323 323 323 324 325 325 326 325 323 322 323 323 324 324 324
312 312 310 310 313 309 311 317 309 308 307 308 308 306 305 306 306 307 307 308 308 308 310 305 305 306 307 307 308 308 309 310 311 312 313 314 314 315 315 316 317 319 323 324 323 324 322 322 323

GFSSGP_850_thetae_099.txt.gz
Theta_e
308 318 324 328 320 318 323 322 323 323 321 319 319 319 318 321 321 329 342 342 343 341 336 332 331 331 332 331 332 331 332 337 333 330 332 333 336 335 339 334 321 332 339 339 340 337 335 337 322
317 322 326 322 317 318 315 319 323 320 319 319 320 320 319 322 337 339 343 343 343 339 334 331 329 330 330 330 330 332 333 333 332 332 331 331 336 337 341 332 322 338 338 339 339 338 329 328 317
322 325 322 317 316 317 316 317 318 318 320 320 319 319 320 338 341 339 341 343 344 341 337 331 327 327 327 327 328 329 329 332 333 333 332 331 333 336 340 328 330 336 338 339 339 335 324 319 317
323 323 320 317 318 318 317 319 318 317 318 318 317 315 319 338 340 339 337 339 343 343 340 333 330 328 327 327 327 326 326 327 330 331 332 333 333 336 338 329 334 339 338 338 332 323 321 317 318
321 320 316 319 319 318 316 317 316 315 315 315 315 316 317 330 339 339 338 337 342 343 341 337 333 332 331 330 328 327 325 323 324 328 332 332 333 336 340 331 335 338 337 336 325 321 319 317 319
317 316 314 316 316 315 313 315 314 313 312 313 313 314 317 327 339 338 338 340 343 343 341 339 335 334 334 332 329 327 321 319 320 326 327 333 332 334 339 332 335 335 334 335 323 322 319 318 318
315 312 314 316 315 314 313 313 311 310 311 312 314 314 318 328 336 335 334 337 335 339 339 340 338 336 335 333 329 324 321 325 326 326 329 331 332 334 339 334 335 335 334 330 323 321 319 317 317
316 311 315 314 314 315 313 312 311 311 311 313 315 313 314 316 331 334 334 333 334 336 338 338 339 340 337 332 329 323 324 335 321 327 330 329 332 335 339 334 333 334 334 326 320 319 316 316 317
314 311 312 314 314 314 311 310 311 310 311 310 313 313 313 315 318 333 334 334 333 333 333 335 339 340 338 332 329 323 326 332 325 329 328 330 332 334 339 335 331 332 325 318 318 317 315 316 317
311 309 311 311 311 311 311 309 308 308 308 309 312 312 313 315 316 322 329 333 333 332 331 333 335 338 339 335 330 326 325 323 333 327 331 334 334 335 339 337 335 331 322 318 317 317 315 315 317
309 310 310 311 311 310 308 307 308 307 306 309 308 308 310 312 315 314 318 325 331 331 330 331 331 332 336 337 334 332 329 327 322 332 330 333 337 337 338 338 338 330 327 332 324 319 318 317 317
306 306 307 306 306 305 305 306 306 306 307 308 307 307 308 310 312 313 313 317 323 328 328 331 331 332 333 335 333 332 330 330 331 321 326 333 334 338 338 338 337 329 330 333 330 320 319 319 318
304 303 304 305 305 305 305 304 305 305 306 306 307 307 307 307 310 312 312 314 315 327 327 327 330 332 333 333 332 332 331 329 331 332 326 326 326 334 336 336 335 331 329 333 329 322 320 319 319
304 304 304 304 304 304 304 304 304 305 305 305 305 305 306 306 307 309 311 312 314 322 327 328 329 329 331 330 330 331 331 330 328 330 329 328 325 325 330 335 334 332 328 330 330 326 322 320 319
304 303 303 303 304 304 304 304 303 303 304 304 304 304 304 304 305 306 308 309 311 317 323 324 327 328 328 329 329 330 330 329 328 327 326 326 327 327 325 325 333 332 332 329 328 327 323 320 319
303 302 303 302 304 304 304 304 303 305 305 304 305 305 305 305 305 304 305 306 310 312 322 323 324 325 328 328 328 330 329 328 329 328 327 327 326 328 327 329 330 331 323 330 326 325 323 321 318
299 300 301 303 304 304 304 304 304 305 305 305 305 305 307 306 305 305 305 307 307 311 322 323 324 324 326 327 325 326 326 327 326 326 326 328 327 327 326 329 324 323 318 324 329 326 324 321 320
300 301 302 303 304 305 305 305 305 306 306 305 304 305 306 307 307 306 306 307 308 308 321 323 324 325 325 325 325 324 323 324 326 325 326 327 328 325 323 321 327 324 321 321 326 327 324 321 322
301 302 302 303 304 305 305 305 306 306 306 305 305 305 306 306 307 307 307 307 307 308 319 322 320 324 325 326 326 326 325 325 325 326 326 326 326 324 327 324 325 327 325 322 325 322 323 325 326
302 302 304 304 305 307 308 309 308 308 307 307 306 305 305 305 306 307 307 307 309 309 318 321 317 322 326 324 323 324 325 326 326 327 327 326 326 326 325 325 327 325 326 328 326 319 323 325 327
302 302 304 305 308 309 309 308 305 305 304 306 307 306 306 307 306 307 308 309 310 313 321 321 323 325 326 324 323 324 325 326 327 327 327 327 327 327 327 326 327 327 327 328 328 325 325 326 326
305 304 305 307 313 315 309 311 305 303 304 307 307 306 307 307 307 309 314 313 318 319 318 323 324 323 323 323 323 324 324 325 325 326 326 327 326 327 327 327 327 327 325 329 328 326 328 328 325
306 308 309 310 313 313 309 308 304 308 312 312 308 305 307 312 314 314 318 320 319 321 322 323 324 324 323 323 324 325 325 324 324 326 325 326 326 326 325 328 327 329 327 328 329 329 329 327 326
307 307 309 310 311 305 308 308 307 312 314 314 313 312 312 315 315 315 317 319 320 320 321 321 322 322 322 322 322 323 325 325 325 325 325 326 326 326 326 325 328 327 326 327 329 328 327 328 328
308 312 309 308 305 309 312 309 305 312 312 313 314 311 311 313 313 315 315 316 318 320 321 321 321 321 321 322 322 324 324 324 326 325 327 326 325 326 326 325 327 328 326 326 326 326 326 325 326
312 315 316 317 310 315 312 311 314 310 310 312 312 310 310 310 311 312 312 314 316 317 317 321 321 321 322 322 322 323 324 325 325 324 324 324 327 327 326 325 325 326 325 326 326 326 326 326 326
314 315 315 317 313 317 313 314 314 309 308 311 310 309 309 308 308 309 310 311 312 314 314 318 318 319 320 321 321 320 321 323 323 323 324 323 323 325 326 326 326 326 326 326 326 324 324 323 323
314 312 315 313 317 319 318 316 314 309 307 309 309 308 307 306 306 307 308 308 308 310 310 312 314 315 315 316 318 319 320 321 322 322 321 321 322 322 322 323 324 324 324 324 325 325 324 323 324
312 312 313 312 312 318 317 317 310 308 306 307 308 307 306 305 306 307 307 307 306 306 309 309 307 311 310 311 311 310 312 315 320 318 320 322 320 321 323 322 321 322 322 324 323 324 323 323 323
311 312 310 307 310 309 311 317 311 308 307 306 305 304 304 303 304 304 305 306 307 308 307 307 307 307 307 307 306 306 306 308 310 307 308 309 310 311 312 314 315 318 321 323 324 323 322 322 323

GFSSGP_850_thetae_102.txt.gz
Theta_e
311 322 327 326 316 315 319 317 321 322 320 318 318 318 318 319 320 322 339 341 342 343 339 336 334 334 336 336 335 335 334 333 332 330 332 332 332 331 334 334 321 322 330 338 331 334 338 334 316
312 321 327 320 316 311 309 317 322 320 319 319 319 318 317 319 323 324 339 341 341 341 337 333 332 333 336 336 333 332 332 335 334 330 332 340 335 333 337 334 322 335 339 339 337 334 335 328 315
320 325 322 314 314 312 311 316 317 318 318 318 318 316 317 331 341 341 342 342 341 339 336 332 331 331 333 336 333 331 332 334 333 331 330 333 336 335 339 334 327 337 339 340 337 336 328 320 317
324 323 319 315 316 316 316 317 317 314 316 315 315 313 317 338 340 341 342 342 342 341 336 332 330 329 329 329 330 330 331 332 333 332 332 333 334 336 340 332 331 335 339 338 338 333 321 317 318
322 319 313 315 317 316 314 316 314 313 313 313 312 313 314 331 331 341 341 342 343 342 340 335 329 328 327 327 327 327 327 328 331 332 332 332 334 334 337 333 331 336 337 338 334 326 318 317 319
317 315 310 313 314 314 313 315 313 310 311 312 313 312 318 322 334 339 336 337 340 342 341 337 330 329 328 328 328 327 326 325 326 330 330 332 332 332 337 335 333 337 338 336 331 322 319 317 319
313 308 311 314 314 314 313 312 310 310 310 312 313 311 315 325 328 335 334 335 336 340 340 339 335 332 331 331 330 329 326 323 321 327 328 329 333 333 336 337 333 336 336 334 330 321 318 317 318
315 311 314 313 313 314 311 311 310 310 310 312 312 312 313 315 319 329 335 334 334 334 337 338 338 336 334 333 332 329 324 322 323 326 328 329 333 333 335 338 335 336 334 332 331 321 319 318 317
314 310 310 313 313 312 311 310 311 310 309 309 311 313 313 312 315 322 332 335 334 333 334 337 337 338 339 336 333 329 323 325 333 326 326 330 329 332 335 338 335 334 333 330 328 321 319 317 317
310 307 309 310 311 311 310 309 308 308 308 307 309 311 311 311 314 317 318 326 333 334 333 333 334 336 339 339 334 330 324 324 329 324 328 330 329 332 333 338 335 333 333 326 323 320 317 316 316
309 309 309 310 310 306 306 306 307 306 305 308 308 308 309 311 312 313 315 315 319 331 332 332 331 331 333 338 336 330 326 325 324 329 328 329 331 333 334 338 335 332 333 329 325 317 315 315 316
305 306 306 305 305 304 304 304 305 305 305 306 306 307 307 307 309 311 313 314 314 321 329 330 331 330 331 332 335 333 331 330 327 323 329 329 332 334 334 338 336 335 335 328 327 318 316 315 316
303 303 304 305 304 304 304 304 303 304 305 305 305 305 306 306 307 308 310 311 312 314 324 327 327 331 331 331 333 334 333 331 330 332 326 323 329 331 334 337 336 336 337 327 330 328 320 318 317
303 304 304 304 304 303 303 303 303 303 304 304 304 303 303 304 304 304 307 310 311 311 314 328 327 328 331 332 332 332 331 330 329 331 329 327 326 327 328 333 335 336 335 328 332 332 327 321 318
304 302 301 301 303 303 304 302 302 304 304 303 304 305 305 305 305 305 304 308 309 310 310 315 327 328 331 331 331 329 327 330 328 327 328 328 326 326 326 326 330 334 334 332 332 332 330 325 321
301 301 301 301 302 304 303 303 302 305 304 304 304 305 305 305 305 306 305 305 307 308 309 311 322 324 328 329 329 328 330 330 330 329 328 327 327 327 327 326 326 329 333 333 332 330 329 326 323
297 300 301 302 303 304 304 303 304 305 305 304 305 305 305 305 306 306 306 305 305 307 308 310 320 324 325 327 328 328 329 330 328 329 328 328 327 327 326 327 327 328 330 333 331 324 328 327 324
301 301 302 302 303 304 304 304 304 305 305 305 305 305 305 305 306 305 306 305 306 305 307 310 320 324 324 327 327 326 325 327 327 326 325 325 325 325 328 327 328 329 326 328 327 323 324 326 325
300 302 301 302 303 304 304 304 305 306 306 306 306 306 305 304 306 306 306 306 307 307 307 308 321 323 325 325 326 325 325 324 324 325 326 325 325 326 327 327 327 327 328 324 324 322 322 323 322
302 302 302 302 304 305 307 308 307 307 306 306 307 305 306 305 305 306 306 306 306 307 307 308 321 321 324 325 325 326 325 325 325 325 325 326 326 326 326 326 325 324 325 324 320 319 319 320 322
299 300 302 303 306 307 309 309 305 303 304 308 309 306 306 306 306 306 305 306 307 307 308 312 320 320 321 326 326 325 324 323 324 325 326 326 326 327 326 326 326 326 326 325 325 322 321 320 321
304 303 304 306 309 312 310 311 305 304 308 310 311 309 306 306 307 307 307 309 311 309 308 315 320 320 321 324 326 324 323 322 323 324 324 325 326 326 327 327 327 325 326 325 326 326 324 326 324
306 306 307 309 311 311 308 309 304 306 312 311 311 310 310 311 312 313 314 315 314 313 317 320 320 322 322 323 324 323 323 323 323 324 324 324 325 324 326 326 327 327 327 327 326 326 326 325 325
306 307 309 310 309 305 306 307 307 312 312 312 312 311 310 312 313 313 314 316 318 317 317 318 319 321 322 323 323 323 324 324 324 323 325 324 324 324 324 325 326 327 326 326 327 326 325 323 326
307 311 306 304 301 307 310 307 308 310 309 312 312 311 311 311 311 313 313 315 316 318 319 319 320 321 321 321 321 322 323 322 323 323 324 325 324 326 325 324 325 326 326 325 328 328 326 324 326
311 314 316 313 307 310 310 308 313 308 307 310 310 309 308 308 309 310 311 312 314 315 317 318 319 321 321 321 321 321 321 322 321 325 324 324 324 325 326 325 326 326 325 325 324 325 324 325 326
313 314 314 315 311 314 309 314 313 309 307 308 309 308 306 306 306 306 309 311 312 313 314 315 317 318 319 319 319 320 320 320 322 322 323 322 323 323 324 324 324 324 326 325 325 326 324 322 324
311 311 310 312 310 311 310 313 315 310 307 307 307 306 304 305 305 305 305 307 308 309 310 311 312 313 313 311 312 314 316 317 317 316 317 321 321 321 322 322 322 322 324 324 324 325 325 325 323
310 310 311 310 310 315 316 312 311 309 308 307 306 303 301 303 305 305 305 305 305 305 305 305 306 307 307 305 304 306 306 308 311 310 307 307 310 311 312 313 318 321 322 321 322 321 321 324 324
310 311 307 307 309 307 311 310 310 310 308 305 303 303 301 302 305 305 306 306 307 307 308 308 306 304 303 305 307 306 305 304 304 308 309 303 304 304 305 307 310 311 313 316 319 321 321 323 321

GFSSGP_850_thetae_105.txt.gz
Theta_e
320 324 327 324 319 318 318 317 322 322 321 317 318 318 319 318 321 326 330 341 343 344 340 342 335 335 335 336 337 335 335 334 333 332 332 333 332 331 330 332 320 316 320 333 334 338 336 325 315
320 324 326 319 318 313 312 318 322 321 319 318 318 317 317 320 329 335 341 343 342 343 341 340 335 334 334 335 337 335 335 333 332 331 331 332 331 331 333 329 321 323 335 337 334 336 334 316 315
320 326 320 315 316 314 312 317 318 317 316 317 316 315 316 329 333 339 341 342 343 342 340 337 334 333 334 336 335 333 332 332 334 332 330 337 335 333 336 331 327 336 339 340 336 333 329 315 316
324 323 318 317 316 316 315 317 316 314 314 313 313 315 321 321 324 331 340 341 343 341 338 337 333 332 335 336 335 332 331 332 334 332 330 335 335 335 337 334 331 338 339 341 337 335 323 316 318
322 317 316 316 317 316 316 316 315 313 312 312 312 314 313 320 325 333 339 341 343 340 337 335 332 331 331 332 332 331 331 332 332 332 334 334 335 336 337 337 333 335 338 339 338 334 320 317 319
316 312 312 313 314 315 313 313 312 310 311 311 312 312 315 319 327 333 338 337 338 340 339 336 332 329 330 330 329 329 330 330 330 331 332 332 333 334 336 336 332 334 337 338 336 330 319 317 319
313 308 309 311 313 315 313 311 310 310 310 311 311 313 314 319 320 324 334 336 336 337 339 339 337 330 328 328 327 327 327 327 329 328 329 329 331 333 334 336 335 335 337 337 335 324 319 317 319
314 312 314 313 314 313 311 311 309 309 310 311 311 314 315 315 316 319 326 334 334 335 334 338 338 337 332 330 330 329 329 327 324 326 328 327 330 333 333 336 336 335 337 336 334 322 320 317 318
313 309 311 312 313 312 310 310 310 309 309 309 310 311 311 312 313 314 325 332 334 334 333 333 335 337 337 334 333 333 331 326 322 321 325 329 329 333 333 334 337 335 336 334 332 328 320 318 318
310 307 308 310 310 311 310 309 308 307 307 307 307 307 308 311 312 312 315 319 325 333 334 334 333 335 336 337 337 335 331 326 324 330 329 327 330 329 332 332 337 335 335 335 332 329 322 320 318
309 309 309 310 310 306 305 305 306 306 306 306 306 306 306 305 306 310 312 314 313 318 326 332 333 333 332 335 338 337 332 328 325 327 326 324 329 328 330 332 337 336 335 334 331 328 322 319 317
305 305 305 306 305 304 304 304 304 305 305 305 305 304 304 304 304 304 308 312 314 315 317 324 331 332 332 330 331 334 333 327 326 325 329 328 329 328 330 331 335 337 334 333 333 326 320 317 316
303 303 304 304 304 304 304 303 304 303 303 303 303 304 304 304 303 303 303 306 313 314 314 314 324 330 331 330 330 331 334 330 331 329 326 326 330 331 331 333 333 336 335 334 335 330 319 316 315
303 303 303 303 302 302 303 303 303 304 304 304 303 304 304 304 304 305 304 304 304 311 312 312 313 325 329 332 331 331 333 332 331 330 332 330 327 327 328 331 333 335 335 334 335 331 324 319 316
303 302 301 301 303 303 303 303 303 305 304 304 305 305 306 306 306 306 305 304 304 304 311 312 310 315 327 329 331 332 333 327 327 328 329 328 329 329 327 326 326 328 334 334 334 329 329 331 322
300 300 302 301 302 303 303 306 303 305 305 304 304 305 306 307 307 307 307 307 305 304 305 311 310 310 322 329 331 332 332 329 323 323 330 328 329 327 327 327 327 326 327 332 333 333 331 333 329
299 302 302 304 303 304 304 306 303 306 305 305 305 306 306 306 306 306 307 307 305 305 304 307 309 309 320 325 330 330 331 330 329 328 328 329 328 328 327 327 327 326 327 329 331 330 331 332 328
302 303 302 303 304 303 305 305 306 306 306 306 306 307 308 308 307 307 306 306 306 305 305 305 308 309 317 323 328 328 328 328 329 329 330 329 328 327 326 325 326 327 327 329 329 330 329 331 325
300 302 302 302 303 304 305 305 306 306 307 307 307 307 308 306 306 306 306 306 305 306 306 306 306 309 319 324 325 328 328 327 326 327 328 327 325 325 325 326 327 327 328 328 328 326 326 328 325
302 302 303 303 303 306 308 308 308 308 307 306 308 308 307 306 306 306 306 306 305 306 306 306 307 310 317 324 324 324 325 325 325 324 324 325 325 325 325 326 327 328 327 328 328 327 324 327 323
301 302 302 305 305 307 308 311 307 304 305 309 310 310 309 310 311 309 306 306 305 305 306 306 307 316 317 323 324 325 325 325 323 323 325 325 325 326 326 326 326 326 325 325 324 324 324 322 322
304 302 304 305 309 312 310 312 307 305 306 310 311 310 310 311 311 311 311 311 308 306 307 306 307 310 316 322 320 322 325 325 323 322 322 324 324 325 326 326 327 326 326 326 326 326 325 324 323
307 305 306 308 310 311 309 311 309 306 311 310 311 311 310 310 310 309 311 314 314 312 311 310 312 312 319 318 319 323 325 324 323 322 323 324 323 324 324 325 324 325 327 326 326 326 326 325 325
305 308 310 310 309 309 304 310 312 311 310 309 312 311 310 311 310 310 312 313 315 314 313 319 320 317 319 321 322 324 325 325 323 323 323 323 324 324 324 324 324 324 324 325 326 326 326 326 326
308 312 312 306 305 311 307 310 310 310 308 308 311 310 307 307 307 308 310 313 315 313 314 315 316 316 318 320 321 323 322 322 322 322 322 324 323 324 323 325 325 324 324 325 325 326 326 326 326
312 313 315 315 311 311 310 312 311 309 307 307 309 307 306 305 305 304 307 311 314 314 316 316 317 318 318 319 320 319 320 319 319 321 322 323 322 323 322 324 326 325 326 326 326 326 325 326 326
313 313 313 315 311 313 308 309 312 311 307 306 306 304 303 305 304 304 305 307 310 312 313 314 313 314 315 316 316 317 318 318 317 317 317 318 318 320 318 321 323 323 324 324 324 326 324 324 326
311 310 310 312 314 313 309 311 314 312 309 307 305 302 301 303 304 304 304 304 305 306 308 307 307 308 307 306 307 307 307 309 313 312 308 308 309 309 309 311 315 319 321 322 322 324 323 324 326
311 310 310 310 311 314 315 312 312 312 309 307 304 302 301 304 304 304 304 304 305 305 304 304 306 305 306 308 308 304 304 305 305 309 311 308 306 306 304 304 306 309 310 314 318 321 321 321 322
309 309 306 309 309 308 309 312 309 310 308 306 304 303 303 305 305 305 305 305 305 305 306 306 306 306 306 306 305 305 304 302 301 302 305 304 306 301 301 302 303 304 305 307 310 311 315 319 321

GFSSGP_850_thetae_108.txt.gz
Theta_e
322 323 325 324 322 321 320 321 325 324 324 321 321 321 323 322 324 328 340 341 343 345 345 344 342 339 339 339 336 334 333 333 333 335 338 339 336 335 331 330 318 321 334 335 334 330 331 328 321
324 325 325 321 321 320 320 322 324 325 322 320 320 320 321 324 335 333 342 341 344 344 344 346 339 337 338 338 339 336 335 334 333 331 332 340 333 332 330 331 319 319 332 334 337 336 330 315 315
323 326 322 321 319 320 320 321 321 320 318 319 320 317 320 326 323 325 333 340 344 344 344 346 341 336 337 336 336 336 334 334 333 332 331 332 334 332 332 330 321 321 338 336 334 336 326 315 316
324 323 318 320 319 318 320 321 319 318 317 316 316 319 322 318 319 323 334 341 344 343 344 342 338 336 337 336 337 336 335 332 332 334 331 334 337 334 334 331 327 334 340 340 335 333 326 316 317
322 319 319 318 319 319 319 320 319 318 316 316 315 318 318 316 320 327 338 341 343 343 342 341 337 337 337 336 337 336 334 332 333 335 334 333 336 336 335 337 331 338 340 341 337 335 326 316 318
318 316 316 317 317 317 317 316 316 315 315 315 316 317 319 318 322 327 336 337 339 341 340 339 336 334 336 336 336 335 333 332 333 333 333 333 334 335 336 338 335 335 337 340 339 336 323 317 319
316 314 314 315 316 316 316 313 314 315 315 315 313 317 318 317 318 319 325 335 337 338 340 339 339 336 330 331 331 331 332 331 331 332 332 332 333 334 335 335 336 333 335 339 338 333 324 317 320
315 314 315 315 315 315 315 314 312 314 315 312 312 317 318 316 314 316 317 325 334 336 336 337 339 338 338 335 328 328 328 328 328 329 330 330 331 333 334 334 335 335 335 337 337 334 323 318 320
311 312 314 315 314 314 313 314 312 310 310 310 311 313 314 312 313 314 315 323 328 332 334 335 336 337 337 337 335 330 330 330 328 326 324 328 330 335 334 334 335 336 336 337 336 334 323 319 318
312 312 311 312 314 314 313 311 310 309 309 309 308 308 308 308 308 309 311 314 323 325 329 332 334 333 336 337 336 334 334 333 330 325 323 325 336 337 337 336 334 337 336 337 336 333 330 321 319
312 312 311 313 312 310 309 308 307 308 309 308 308 307 307 307 307 307 307 309 312 320 324 324 330 334 334 335 336 337 338 335 331 332 333 335 335 336 334 335 334 336 336 336 336 333 332 323 328
310 309 310 309 307 307 307 306 306 306 307 307 306 306 306 306 306 306 306 306 307 310 319 320 323 330 333 334 333 334 337 337 332 327 331 329 333 333 336 337 334 334 336 336 335 334 331 329 325
307 306 306 306 306 305 305 306 306 305 306 306 305 305 306 306 306 306 306 305 305 305 312 318 317 323 330 332 332 331 331 334 333 326 327 330 330 332 333 331 333 333 335 336 336 335 334 329 322
306 306 306 305 304 304 305 306 304 307 305 306 306 307 307 308 308 308 307 307 307 306 305 311 315 317 324 329 332 331 331 331 332 331 331 328 328 330 330 331 332 333 334 335 336 335 335 331 323
305 306 305 305 305 306 305 309 307 307 306 308 309 309 309 308 308 308 308 308 308 308 307 304 309 313 317 325 328 331 331 332 333 332 329 331 330 327 327 327 329 328 328 332 334 334 335 332 329
305 306 308 306 306 306 307 312 310 307 307 310 310 309 308 308 308 308 307 307 307 307 308 307 304 308 311 318 325 328 331 332 332 327 326 327 328 327 328 328 327 327 329 328 332 332 333 333 330
307 308 308 308 306 307 308 312 311 309 309 310 310 309 309 309 309 308 308 308 307 307 307 308 305 304 308 311 319 327 330 332 329 324 323 323 325 328 329 329 328 330 329 328 329 330 330 331 331
307 308 308 308 308 308 310 311 312 311 310 310 310 310 310 310 309 308 306 307 307 306 306 306 306 306 305 309 314 325 328 330 332 328 324 322 323 323 328 328 328 327 326 326 328 329 329 330 329
306 308 309 309 307 309 312 313 313 312 311 310 311 311 312 311 311 311 307 306 306 306 306 306 305 305 305 307 311 322 328 328 328 329 329 328 326 324 326 328 326 325 326 329 329 329 331 329 329
307 309 311 310 307 310 313 313 313 311 311 311 312 312 312 312 311 312 313 310 306 306 306 305 306 306 305 308 310 322 326 326 326 328 327 327 327 327 325 325 325 326 327 331 329 329 329 330 328
309 310 311 311 310 313 312 316 312 309 309 311 311 312 313 312 311 313 312 313 314 310 306 305 306 306 306 308 314 325 327 325 326 325 325 325 325 325 325 325 326 326 327 326 328 328 328 329 327
312 307 308 310 313 316 312 318 314 310 311 312 312 311 311 311 311 311 311 310 312 312 307 306 305 306 306 315 316 325 326 326 325 325 324 324 325 326 326 326 326 326 327 327 327 327 326 325 325
311 307 309 311 312 312 313 314 315 310 313 312 311 310 310 309 309 308 308 310 311 312 313 316 315 313 314 313 318 323 325 324 324 324 323 323 325 324 324 324 324 326 326 325 327 327 326 326 327
308 311 312 311 311 314 313 314 318 314 312 311 309 309 308 306 306 308 308 310 311 311 312 316 316 317 320 314 318 316 319 321 321 322 326 324 324 324 324 324 324 325 326 325 326 325 326 326 326
310 314 318 319 318 320 311 312 316 312 310 309 309 307 307 305 305 307 306 307 308 312 313 313 316 315 315 317 319 320 321 321 321 323 321 322 323 324 324 323 323 324 326 325 325 325 326 326 327
314 314 315 319 321 318 311 315 318 312 309 308 307 305 304 305 304 304 304 305 308 311 313 313 315 315 316 317 317 318 318 319 319 319 320 320 320 321 322 322 322 322 323 324 324 326 324 324 325
314 315 313 315 315 315 317 317 313 313 311 307 306 304 303 304 304 304 304 304 305 308 311 313 313 314 315 316 316 315 316 317 316 316 315 315 314 314 314 317 320 320 321 322 323 323 325 325 326
314 312 314 316 317 319 317 315 319 314 312 309 307 304 302 304 304 303 304 303 303 304 305 306 307 308 309 309 306 305 306 309 311 311 310 309 307 307 308 307 308 309 310 311 316 321 321 322 322
314 315 314 313 314 317 316 317 315 312 310 308 306 304 304 304 304 304 304 304 305 304 304 305 305 305 306 306 305 302 302 300 299 301 304 307 307 304 303 304 304 303 304 306 308 310 312 317 320
311 312 312 313 314 314 314 315 312 311 309 307 306 304 304 305 305 306 305 305 305 305 306 306 306 306 306 306 304 306 306 298 296 296 297 297 297 302 298 298 298 298 299 299 301 304 304 306 310

GFSSGP_850_thetae_111.txt.gz
Theta_e
321 325 327 325 325 323 323 324 326 325 324 324 323 324 325 324 326 334 338 339 341 346 346 347 344 340 338 335 333 333 336 338 338 339 339 340 339 337 334 330 321 326 338 335 328 337 339 337 322
324 326 325 324 326 324 325 324 325 326 324 322 322 323 323 328 332 330 336 338 341 346 347 346 343 341 339 339 337 334 333 334 334 335 336 337 338 333 332 331 321 324 336 334 335 334 331 322 315
326 325 323 323 321 324 325 323 325 323 321 322 322 320 323 326 324 322 322 336 342 348 346 346 346 340 339 339 339 339 335 334 334 333 333 337 339 333 331 332 321 320 333 336 337 336 326 315 316
323 323 320 324 322 322 324 323 321 321 320 319 319 322 322 319 319 319 328 338 342 348 346 345 343 341 338 339 337 337 336 335 334 333 333 332 337 335 332 333 324 319 335 338 334 335 324 315 317
324 322 322 321 322 321 322 322 320 320 319 318 318 321 321 318 318 324 334 335 342 345 344 346 339 337 337 337 337 337 337 335 335 336 337 334 335 336 335 336 328 329 337 340 336 334 326 316 317
320 320 320 322 321 320 319 319 319 318 318 318 318 318 321 318 317 323 330 335 338 341 343 343 341 336 337 338 337 338 337 334 333 334 335 335 334 335 336 336 337 333 339 339 340 337 328 317 317
320 318 320 320 320 319 318 315 316 317 317 317 316 318 320 321 317 317 322 329 335 337 340 342 341 341 334 334 335 336 335 334 332 332 332 332 334 335 335 336 337 336 334 337 340 337 331 318 318
316 317 317 317 317 319 317 315 315 315 317 315 314 317 319 320 315 314 315 321 328 333 336 339 341 341 341 342 332 331 331 331 331 331 331 331 331 332 334 334 335 336 334 335 339 337 331 321 318
314 316 317 317 316 318 315 315 314 313 312 312 313 314 314 313 311 312 313 315 319 326 331 334 335 338 340 339 339 337 328 328 328 329 328 328 330 335 332 332 333 334 335 335 337 337 335 324 318
314 315 315 315 316 316 315 313 312 311 311 311 311 310 310 309 309 309 310 311 313 316 322 328 332 333 334 337 339 340 337 334 332 332 331 329 332 335 335 337 335 333 335 336 337 338 335 327 320
313 316 313 314 314 312 311 310 309 309 311 310 309 309 309 308 308 309 309 309 309 311 313 320 325 329 332 333 335 340 338 338 339 338 337 335 335 336 336 336 337 335 335 336 337 337 336 332 326
313 312 312 311 309 309 309 308 309 309 309 309 308 308 308 308 309 309 309 309 309 309 309 311 318 322 325 331 333 335 340 338 338 335 335 337 336 336 335 336 336 335 334 336 336 336 336 333 329
310 309 308 308 307 307 306 307 308 308 308 308 308 308 309 310 310 311 311 310 310 309 309 309 309 316 321 322 331 333 333 334 336 336 332 335 335 335 335 335 337 336 334 334 336 336 336 335 332
308 308 308 307 306 306 307 308 307 309 308 309 310 312 312 312 312 311 311 311 311 311 310 310 309 309 314 318 321 330 332 332 333 334 333 327 332 333 333 334 335 333 333 333 336 336 336 335 332
307 309 308 307 307 308 307 312 310 309 309 310 312 312 312 311 310 310 310 310 309 309 309 310 310 309 309 311 315 325 330 331 332 331 333 328 330 329 330 330 332 333 333 334 335 336 336 335 335
309 308 311 308 308 308 309 312 314 310 310 311 312 312 311 311 311 311 310 310 310 309 309 308 309 310 308 308 312 321 328 329 333 332 332 331 331 330 331 333 333 332 332 331 331 332 334 334 333
309 313 310 311 309 310 311 313 313 312 313 313 313 312 312 312 312 312 312 311 309 309 309 309 309 309 310 308 310 316 327 329 333 332 331 328 329 328 328 330 330 332 332 332 332 331 331 332 331
313 310 310 310 311 310 312 313 314 314 314 314 312 313 313 313 314 313 313 314 314 310 309 309 308 308 309 308 309 314 323 328 333 331 329 325 324 324 326 327 327 328 330 331 330 329 329 330 333
309 310 311 311 311 311 314 314 315 314 313 313 313 313 314 315 314 313 313 313 314 315 310 309 309 309 309 308 309 315 321 329 332 331 329 326 323 323 324 322 320 321 324 326 326 329 331 331 331
310 311 313 313 311 313 315 315 316 313 313 312 313 313 313 313 313 312 312 313 312 313 315 312 309 309 309 309 308 314 319 324 328 331 330 330 327 324 322 322 321 319 327 325 326 327 331 329 329
311 312 313 313 314 315 315 319 315 313 311 312 313 313 312 312 311 312 311 310 310 310 312 313 314 309 309 309 307 315 309 323 327 329 328 327 328 328 328 327 326 326 326 328 327 326 329 329 330
316 310 311 314 315 320 314 321 317 315 313 313 314 312 310 310 310 310 308 308 309 310 311 313 316 315 311 310 307 315 318 324 326 328 328 328 325 326 328 327 327 327 327 327 328 328 328 328 328
314 311 313 313 313 314 316 318 318 314 315 315 312 310 309 308 308 308 306 309 310 311 311 311 314 313 314 313 315 317 320 324 324 325 327 328 328 328 327 328 326 326 326 327 327 327 327 327 327
310 314 313 313 313 319 317 316 318 318 316 313 311 309 308 307 306 306 306 306 310 311 310 312 312 314 314 312 314 315 318 317 317 322 324 323 324 325 326 327 327 327 326 326 326 326 326 326 326
314 317 323 322 322 324 313 315 317 316 314 312 309 308 306 306 305 305 306 307 308 309 308 310 311 312 313 313 313 313 316 316 314 319 320 320 321 322 323 323 321 323 322 322 323 325 326 325 325
315 316 317 319 323 321 314 317 320 315 313 311 308 306 305 305 305 304 304 306 306 305 309 305 306 309 313 314 314 313 316 318 317 316 317 318 319 320 320 320 321 322 321 321 323 324 323 323 324
316 316 314 316 315 315 318 319 317 315 313 310 308 307 304 304 304 304 304 304 305 303 304 304 304 305 308 308 311 315 314 312 311 313 316 316 314 311 310 311 312 312 318 318 318 321 321 322 323
315 314 315 316 317 319 319 318 320 316 313 311 309 306 304 305 304 304 304 304 305 304 303 303 303 302 303 302 302 304 306 308 309 308 307 307 306 306 306 306 306 304 305 306 307 308 312 315 317
315 315 314 314 314 316 315 318 318 315 313 311 309 306 305 305 305 305 305 305 305 305 305 306 306 304 303 304 304 303 300 298 297 297 298 301 303 307 307 306 303 302 302 306 306 302 304 308 309
314 315 314 314 313 314 314 314 315 314 312 310 308 306 306 305 306 306 306 306 306 306 307 307 307 307 306 305 306 305 305 305 307 305 298 296 296 296 296 296 297 298 298 297 299 306 305 298 297

GFSSGP_850_thetae_114.txt.gz
Theta_e
321 323 328 326 326 323 324 325 324 324 324 324 323 323 323 328 330 339 333 337 340 345 345 345 343 341 337 336 334 336 338 339 340 340 340 340 338 336 334 330 323 324 336 329 333 339 338 337 321
324 326 327 326 325 322 323 323 325 324 323 322 322 323 323 330 328 326 327 332 341 345 345 345 344 344 339 337 334 333 334 334 337 336 337 337 338 335 332 330 325 324 338 337 330 337 335 326 316
326 326 325 324 321 324 325 324 325 322 321 322 322 320 325 323 322 320 324 335 343 345 345 344 345 343 340 339 339 338 335 335 334 335 335 335 337 338 332 330 326 320 336 337 336 333 329 315 315
324 324 323 323 323 321 323 321 321 322 320 320 320 322 322 320 320 320 329 333 341 344 344 344 344 345 339 339 338 338 337 335 334 335 333 334 334 337 334 331 330 319 327 336 336 337 328 315 316
324 324 322 320 322 321 322 321 320 319 319 318 318 320 321 318 318 322 329 334 338 343 344 345 344 339 340 338 338 337 337 336 335 333 333 334 333 336 336 334 332 323 322 337 337 334 328 315 316
322 321 321 321 321 320 320 320 319 318 318 318 318 318 321 320 318 319 323 331 335 340 342 343 343 340 336 337 337 336 338 337 334 333 333 334 334 333 336 336 336 331 331 338 340 335 334 319 316
323 319 321 320 320 319 318 316 317 317 317 316 316 317 321 320 316 316 317 322 329 334 339 341 341 341 340 335 334 336 336 336 335 332 331 331 331 332 334 335 336 337 335 337 338 339 337 326 317
318 316 319 317 318 320 316 316 315 316 316 315 315 315 318 315 313 313 313 315 320 326 332 336 340 340 340 340 340 337 332 332 332 332 331 330 330 329 330 332 333 335 336 335 335 338 338 331 318
314 317 317 317 316 317 315 316 314 313 312 312 312 313 313 311 310 310 309 310 313 316 322 330 332 334 337 339 339 339 339 332 329 329 329 329 328 328 328 328 329 331 333 334 334 337 338 335 323
315 316 316 315 315 315 314 312 311 311 311 311 312 311 310 309 309 309 309 309 309 310 312 319 328 331 332 334 338 338 338 339 330 329 329 330 329 327 327 335 336 335 332 333 335 336 337 336 330
313 316 314 314 313 311 311 310 310 309 309 310 309 309 309 309 308 308 309 309 309 309 309 311 314 324 328 330 332 334 337 338 338 338 337 336 333 334 332 335 336 337 335 333 335 336 337 337 334
313 312 312 312 309 309 309 308 308 309 309 309 308 308 308 309 310 310 310 311 311 310 309 308 307 310 316 324 328 331 333 336 337 337 337 337 337 335 336 335 335 333 333 333 334 335 336 337 335
311 310 309 308 308 307 306 307 307 308 308 309 308 309 311 312 312 312 312 312 311 311 311 311 310 309 308 311 319 324 329 333 335 338 337 336 337 336 335 335 335 336 335 334 333 335 336 336 335
309 309 309 307 307 307 307 308 308 309 308 309 310 312 312 312 312 311 310 310 310 310 310 309 310 310 310 308 309 315 319 327 334 334 335 336 333 335 333 333 334 335 336 335 332 332 335 335 335
307 308 308 308 308 309 308 310 309 309 310 309 310 312 313 312 311 311 311 310 310 309 309 310 309 308 309 310 309 310 314 320 330 334 332 332 333 332 333 332 332 335 334 332 331 333 334 335 335
308 308 310 308 308 309 309 310 312 311 310 311 312 313 313 312 312 313 313 313 313 313 311 307 308 309 309 309 310 308 310 314 318 330 333 331 330 331 328 329 329 330 331 332 332 334 335 336 335
308 309 310 310 309 310 310 311 311 312 312 313 314 314 312 313 314 314 314 313 313 314 315 312 307 307 308 308 309 310 309 314 318 323 332 333 330 331 330 329 329 329 331 331 330 331 330 330 331
311 309 310 310 310 310 310 310 311 312 314 314 314 313 313 314 314 314 313 313 313 313 313 315 315 311 308 308 308 309 308 311 321 320 329 331 329 330 330 330 329 330 329 329 328 328 328 329 329
309 309 310 311 310 311 311 312 313 314 314 313 313 313 313 313 313 312 312 312 311 311 310 311 315 315 311 309 308 308 308 308 317 320 327 329 329 327 328 326 327 328 327 324 325 322 325 328 329
310 311 313 313 311 313 313 314 314 315 313 312 312 313 312 311 311 310 310 310 310 310 310 311 311 314 314 310 309 309 308 310 315 317 325 326 329 326 324 324 323 323 322 321 321 321 324 326 329
311 312 312 313 313 314 314 315 314 313 312 312 313 312 311 309 309 309 309 309 310 310 311 310 312 311 311 313 309 309 308 308 308 312 316 324 328 328 325 323 322 322 322 324 322 324 326 326 326
316 311 312 314 313 314 312 313 316 311 311 312 312 311 310 309 308 308 308 308 309 310 310 311 311 312 313 315 313 310 311 309 309 310 316 320 326 327 328 326 325 326 325 325 326 325 327 326 327
314 311 313 313 313 311 315 312 316 312 313 313 311 310 309 307 306 307 307 307 308 310 310 310 311 311 313 312 313 314 313 313 315 317 321 324 325 326 329 327 328 327 327 327 326 326 327 328 327
311 313 315 313 313 315 313 313 313 315 314 314 311 309 308 306 306 306 306 306 308 309 310 310 311 311 311 314 312 311 312 313 316 314 315 318 319 320 323 325 325 324 325 325 325 324 325 325 326
313 314 313 314 321 315 313 310 312 313 313 311 309 309 307 306 306 305 305 305 307 307 309 309 311 311 309 313 312 312 312 312 314 314 314 315 315 317 322 323 322 322 322 322 321 321 322 322 322
315 315 309 314 314 312 313 309 314 314 313 311 309 308 306 305 305 305 305 304 305 305 307 309 310 310 309 312 312 312 311 310 311 314 316 316 314 317 318 320 320 320 320 320 321 320 321 322 323
315 315 313 311 312 311 311 314 315 313 313 311 309 308 305 305 305 305 305 305 304 304 305 305 304 305 307 309 309 310 310 308 310 311 313 310 303 305 308 312 314 315 315 315 315 317 317 319 318
314 313 313 314 310 313 312 317 315 315 313 312 309 307 305 305 305 305 305 306 304 305 305 304 304 302 301 300 300 298 297 297 300 303 305 304 303 304 304 306 306 304 303 303 304 304 305 308 307
313 314 313 312 312 311 312 310 318 313 312 312 309 307 306 305 306 306 306 306 306 306 306 306 305 303 304 304 304 304 304 305 304 300 297 296 297 298 299 302 306 305 305 304 304 303 306 309 305
313 314 312 311 312 311 311 311 314 313 312 311 310 308 307 306 306 307 307 307 307 307 305 302 301 301 300 298 297 297 298 299 299 297 297 296 297 297 296 295 295 295 295 294 294 295 295 296 297

GFSSGP_850_thetae_117.txt.gz
Theta_e
319 327 326 325 318 315 320 323 320 322 321 322 323 322 324 326 330 337 332 332 339 343 344 343 343 341 337 337 337 336 337 339 339 340 339 339 338 336 334 331 324 325 333 323 335 339 338 334 318
322 326 327 326 319 315 318 320 321 320 321 322 321 322 323 324 324 323 326 331 343 343 345 343 344 344 337 336 333 333 334 335 336 336 337 337 338 338 333 330 327 323 337 332 333 338 336 328 316
325 326 325 319 314 319 320 322 319 319 320 320 320 322 324 321 321 321 327 331 343 343 343 344 344 344 342 339 338 335 334 334 334 334 335 334 336 337 334 331 329 320 336 336 333 335 332 319 315
325 325 324 318 320 318 318 318 320 319 319 319 319 320 320 319 320 321 328 332 340 342 342 342 343 343 343 339 339 338 338 337 335 339 338 333 333 334 336 332 331 322 326 335 336 335 329 315 315
323 324 317 315 319 320 318 319 318 317 317 318 318 318 319 318 319 320 322 330 338 341 342 341 343 341 339 339 338 337 336 336 336 335 333 332 333 332 336 335 332 327 320 329 337 335 332 317 316
323 320 316 319 317 317 315 317 317 316 317 317 317 316 320 318 317 316 317 322 332 340 341 340 341 341 338 337 337 336 336 336 336 335 333 333 334 334 333 335 334 333 325 328 339 336 334 326 316
320 313 317 316 316 317 315 315 314 314 315 315 315 315 318 312 312 313 315 316 319 329 338 339 339 339 340 338 334 334 335 335 335 334 332 331 331 331 332 333 334 335 335 333 338 339 336 335 319
317 312 316 314 316 316 315 315 315 314 314 313 314 312 315 310 310 310 313 312 313 316 322 332 337 339 339 338 339 338 334 332 333 333 332 330 330 329 329 330 331 333 335 336 335 336 339 337 329
313 312 313 314 316 315 314 314 314 313 312 311 312 312 311 309 309 309 308 307 309 310 311 315 324 331 335 338 338 338 338 338 336 331 330 330 330 329 328 328 328 330 331 333 334 334 335 338 333
313 311 314 313 312 313 312 311 310 310 309 310 311 310 310 309 309 309 308 308 308 308 309 309 310 315 325 330 332 337 338 337 338 337 330 328 328 329 328 327 328 334 333 331 332 334 334 338 336
312 312 312 312 311 311 310 309 309 309 308 308 308 309 309 308 308 309 310 310 311 311 310 308 308 308 309 316 324 329 333 336 335 337 337 336 336 335 331 327 330 335 335 335 333 333 334 336 337
310 310 311 311 308 308 308 308 307 308 308 308 308 308 308 311 312 312 312 312 311 310 311 311 311 311 310 308 308 317 325 330 336 335 337 337 337 336 335 334 333 334 333 333 333 333 333 335 336
308 308 308 308 307 307 306 306 305 307 308 308 308 309 312 312 312 312 311 310 310 310 310 310 309 309 310 310 310 307 310 321 328 333 334 337 336 337 336 335 335 335 335 335 333 333 333 334 335
309 308 308 307 306 306 307 307 307 308 309 308 309 311 311 312 312 311 311 311 311 310 310 309 309 309 309 309 309 310 309 308 316 324 331 334 334 334 335 336 335 334 334 335 335 334 333 333 335
307 307 306 306 307 307 307 307 307 308 309 309 310 311 312 313 311 312 313 313 313 313 312 310 309 306 308 309 308 309 309 309 309 314 320 331 333 334 334 334 334 331 332 334 334 334 331 333 334
307 305 307 307 307 308 307 304 310 310 310 310 312 312 313 313 314 314 314 314 313 313 312 312 311 309 306 306 308 308 308 309 308 310 313 320 331 331 331 331 333 332 333 334 335 332 331 332 333
305 306 308 308 309 309 308 307 309 310 310 310 312 313 313 314 314 314 313 313 313 312 312 311 311 311 311 309 306 306 307 308 309 309 315 319 321 328 329 331 331 330 330 330 330 331 332 333 333
308 307 308 309 309 309 308 308 308 310 311 312 313 312 313 313 313 312 311 311 311 311 310 310 310 311 312 312 310 307 307 307 308 308 309 319 320 325 329 328 330 329 329 329 330 331 330 329 328
308 309 308 310 309 311 309 309 310 311 312 313 312 313 313 313 311 310 310 309 310 310 311 311 310 309 310 313 313 309 308 308 307 307 308 314 320 321 327 326 328 329 330 330 330 328 326 324 325
309 309 310 310 312 312 311 312 312 312 312 312 312 312 312 311 310 309 309 309 309 310 311 311 310 310 311 312 312 312 309 308 309 307 305 306 312 320 325 327 328 328 329 329 328 325 324 323 322
309 310 310 311 311 311 311 311 313 312 311 312 312 311 310 309 308 307 307 308 309 310 311 310 310 310 311 312 312 312 314 309 309 310 308 307 307 312 321 324 327 325 327 327 327 323 321 321 323
312 310 311 313 308 308 310 308 311 310 309 310 310 310 309 308 307 306 306 308 309 309 310 310 311 310 310 311 312 312 313 313 313 313 312 313 311 312 318 322 325 325 324 322 322 323 324 325 325
312 310 311 313 310 306 310 307 310 309 310 311 309 309 309 307 306 306 306 308 309 309 309 310 310 311 310 310 312 312 312 312 312 312 313 314 317 318 321 321 321 325 323 323 325 324 325 326 326
310 312 313 313 313 311 307 310 309 311 312 312 310 309 308 307 306 305 305 306 308 308 308 309 310 311 310 310 311 312 312 311 312 311 313 314 315 317 318 318 320 320 324 324 325 324 324 324 324
311 311 304 313 311 311 311 304 310 311 312 310 309 308 307 306 305 305 305 306 307 309 308 309 308 311 310 309 310 311 311 310 310 310 312 313 313 314 315 314 316 316 319 323 322 321 321 321 321
313 310 303 305 307 308 306 307 309 311 311 311 310 308 307 305 305 305 305 306 306 306 308 307 306 307 309 309 308 308 307 308 309 309 306 308 311 314 314 313 315 317 318 319 319 319 319 320 320
314 310 311 305 304 303 303 308 311 311 309 309 309 308 307 305 305 304 305 306 306 306 306 305 303 302 303 300 299 298 298 299 302 302 300 302 307 311 312 300 299 302 309 311 312 312 312 314 315
313 312 309 307 305 309 305 309 312 313 310 310 308 308 307 306 305 305 306 306 307 307 306 307 306 306 305 305 304 304 304 302 300 297 296 296 297 302 303 302 302 301 301 301 302 304 305 305 304
311 312 312 310 308 308 310 306 309 311 310 309 309 309 307 306 306 306 306 306 307 306 307 306 305 304 302 300 299 298 298 297 296 295 295 296 296 296 294 295 295 295 296 300 300 300 302 302 300
310 311 310 308 310 307 307 307 308 312 310 311 310 309 308 307 306 306 307 307 307 307 306 303 301 299 298 298 297 296 295 295 294 294 293 292 291 291 291 291 291 292 292 292 293 293 294 293 292